[[{"header":{"parameterUnit":"m.s-1","parameterCategory":1,"la1":30.6,"la2":29.2853,"lo1":-89.7004,"lo2":-87.6739,"dy":0.0162,"dx":0.0183,"nx":112,"ny":82,"refTime":"2023-04-02T06:00:00:Z","depth":0,"parameterNumber":2,"parameterNumberName":"U-component_of_WINDS"},"data":[0.0,0.0,0.0,0.0,0.0,0.0,0.0,0.0,0.0,0.0,0.0,0.0,0.0,0.0,0.0,0.0,0.0,0.0,0.0,0.0,0.0,0.0,0.0,0.0,0.0,0.0,0.0,0.0,0.0,0.0,0.0,0.0,0.0,0.0,0.0,0.0,0.0,0.0,0.0,0.0,0.0,0.0,0.0,0.0,0.0,0.0,0.0,0.0,0.0,0.0,0.0,0.0,0.0,0.0,0.0,0.0,0.0,0.0,0.0,0.0,0.0,0.0,0.0,0.0,0.0,0.0,0.0,0.0,0.0,0.0,0.0,0.0,0.0,0.0,0.0,0.0,0.0,0.0,0.0,0.0,0.0,0.0,0.0,0.0,0.0,0.0,0.0,0.0,0.0,0.0,-5.8782,-6.3418,-6.9792,-7.3486,-7.2943,-7.3197,-6.9618,-6.0857,0.0,0.0,0.0,0.0,0.0,0.0,0.0,0.0,0.0,0.0,0.0,0.0,0.0,0.0,0.0,0.0,0.0,0.0,0.0,0.0,0.0,0.0,0.0,0.0,0.0,0.0,0.0,0.0,0.0,0.0,0.0,0.0,0.0,0.0,0.0,0.0,0.0,0.0,0.0,0.0,0.0,0.0,0.0,0.0,0.0,0.0,0.0,0.0,0.0,0.0,0.0,0.0,0.0,0.0,0.0,0.0,0.0,0.0,0.0,0.0,0.0,0.0,0.0,0.0,0.0,0.0,0.0,0.0,0.0,0.0,0.0,0.0,0.0,0.0,0.0,0.0,0.0,0.0,0.0,0.0,0.0,0.0,0.0,0.0,0.0,0.0,0.0,0.0,0.0,0.0,0.0,0.0,0.0,0.0,0.0,0.0,0.0,0.0,0.0,0.0,0.0,0.0,0.0,0.0,-5.9035,-6.6496,-7.0661,-7.3124,-7.3667,-7.2001,-6.8011,-6.1144,0.0,0.0,0.0,0.0,0.0,0.0,0.0,0.0,0.0,0.0,0.0,0.0,0.0,0.0,0.0,0.0,0.0,0.0,0.0,0.0,0.0,0.0,0.0,0.0,0.0,0.0,0.0,0.0,0.0,0.0,0.0,0.0,0.0,0.0,0.0,0.0,0.0,0.0,0.0,0.0,0.0,0.0,0.0,0.0,0.0,0.0,0.0,0.0,0.0,0.0,0.0,0.0,0.0,0.0,0.0,0.0,0.0,0.0,0.0,0.0,0.0,0.0,0.0,0.0,0.0,0.0,0.0,0.0,0.0,0.0,0.0,0.0,0.0,0.0,0.0,0.0,0.0,0.0,0.0,0.0,0.0,0.0,0.0,0.0,0.0,0.0,0.0,0.0,0.0,0.0,0.0,0.0,0.0,0.0,0.0,0.0,0.0,0.0,0.0,0.0,0.0,0.0,0.0,-5.6862,-6.0665,-6.6134,-6.9539,-7.1603,-7.1965,-7.0625,-6.7003,-6.0557,-5.9496,0.0,0.0,0.0,0.0,0.0,0.0,0.0,0.0,0.0,0.0,0.0,0.0,0.0,0.0,0.0,0.0,0.0,0.0,0.0,0.0,0.0,0.0,0.0,0.0,0.0,0.0,0.0,0.0,0.0,0.0,0.0,0.0,0.0,0.0,0.0,0.0,0.0,0.0,0.0,0.0,0.0,0.0,0.0,0.0,0.0,0.0,0.0,0.0,0.0,0.0,0.0,0.0,0.0,0.0,0.0,0.0,0.0,0.0,0.0,0.0,0.0,0.0,0.0,0.0,0.0,0.0,0.0,0.0,0.0,0.0,0.0,0.0,0.0,0.0,0.0,0.0,0.0,0.0,0.0,0.0,0.0,0.0,0.0,0.0,0.0,0.0,0.0,0.0,0.0,0.0,0.0,0.0,0.0,0.0,0.0,0.0,0.0,0.0,0.0,0.0,0.0,0.0,-5.9144,-6.2549,-6.5555,-6.8416,-7.0149,-7.0149,-6.8881,-6.5555,-5.9687,-5.7478,0.0,0.0,0.0,0.0,0.0,0.0,0.0,0.0,0.0,0.0,0.0,0.0,0.0,0.0,0.0,0.0,0.0,0.0,0.0,0.0,0.0,0.0,0.0,0.0,0.0,0.0,0.0,0.0,0.0,0.0,0.0,0.0,0.0,0.0,0.0,0.0,0.0,0.0,0.0,0.0,0.0,0.0,0.0,0.0,0.0,0.0,0.0,0.0,0.0,0.0,0.0,0.0,0.0,0.0,0.0,0.0,0.0,0.0,0.0,0.0,0.0,0.0,0.0,0.0,0.0,0.0,0.0,0.0,0.0,0.0,0.0,0.0,0.0,0.0,0.0,0.0,0.0,0.0,0.0,0.0,0.0,0.0,0.0,0.0,0.0,0.0,0.0,0.0,0.0,0.0,0.0,0.0,0.0,0.0,0.0,0.0,0.0,0.0,0.0,0.0,0.0,0.0,-6.0122,-6.3961,-6.646,-6.8235,-6.9279,-6.9279,-6.646,-6.2947,-5.8746,-5.5631,0.0,0.0,0.0,0.0,0.0,0.0,0.0,0.0,0.0,0.0,0.0,0.0,0.0,0.0,0.0,0.0,0.0,0.0,0.0,0.0,0.0,0.0,0.0,0.0,0.0,0.0,0.0,0.0,0.0,0.0,0.0,0.0,0.0,0.0,0.0,0.0,0.0,0.0,0.0,0.0,0.0,0.0,0.0,0.0,0.0,0.0,0.0,0.0,0.0,0.0,0.0,0.0,0.0,0.0,0.0,0.0,0.0,0.0,0.0,0.0,0.0,0.0,0.0,0.0,0.0,0.0,0.0,0.0,0.0,0.0,0.0,0.0,0.0,0.0,0.0,0.0,0.0,0.0,0.0,0.0,0.0,0.0,0.0,0.0,0.0,0.0,0.0,0.0,0.0,0.0,0.0,0.0,0.0,0.0,0.0,0.0,0.0,0.0,0.0,0.0,0.0,0.0,-5.8166,-6.1498,-6.4939,-6.6279,-6.7366,-6.838,-6.6424,-6.3237,-5.8673,0.0,0.0,0.0,0.0,0.0,0.0,0.0,0.0,0.0,0.0,0.0,0.0,0.0,0.0,0.0,0.0,0.0,0.0,0.0,0.0,0.0,0.0,0.0,0.0,0.0,0.0,0.0,0.0,0.0,0.0,0.0,0.0,0.0,0.0,0.0,0.0,0.0,0.0,0.0,0.0,0.0,0.0,0.0,0.0,0.0,0.0,0.0,0.0,0.0,0.0,0.0,0.0,0.0,0.0,0.0,0.0,0.0,0.0,0.0,0.0,0.0,0.0,0.0,0.0,0.0,0.0,0.0,0.0,0.0,0.0,0.0,0.0,0.0,0.0,0.0,0.0,0.0,0.0,0.0,0.0,0.0,0.0,0.0,0.0,0.0,0.0,0.0,0.0,0.0,0.0,0.0,0.0,0.0,0.0,0.0,0.0,0.0,0.0,0.0,0.0,0.0,0.0,-5.4215,-5.7051,-6.0106,-6.3351,-6.4607,-6.5663,-6.675,-6.4685,-6.1679,-5.7876,0.0,0.0,0.0,0.0,0.0,0.0,0.0,0.0,0.0,0.0,0.0,0.0,0.0,0.0,0.0,0.0,0.0,0.0,0.0,0.0,0.0,0.0,0.0,0.0,0.0,0.0,0.0,0.0,0.0,0.0,0.0,0.0,0.0,0.0,0.0,0.0,0.0,0.0,0.0,0.0,0.0,0.0,0.0,0.0,0.0,0.0,0.0,0.0,0.0,0.0,0.0,0.0,0.0,0.0,0.0,0.0,0.0,0.0,0.0,0.0,0.0,0.0,0.0,0.0,0.0,0.0,0.0,0.0,0.0,0.0,0.0,0.0,0.0,0.0,0.0,0.0,0.0,0.0,0.0,0.0,0.0,0.0,0.0,0.0,0.0,0.0,0.0,0.0,0.0,0.0,0.0,0.0,0.0,0.0,0.0,0.0,0.0,0.0,0.0,0.0,0.0,0.0,-5.3575,-5.7354,-6.0474,-6.2015,-6.348,-6.4396,-6.4396,-6.0738,-5.7732,0.0,0.0,0.0,0.0,0.0,0.0,0.0,0.0,0.0,0.0,0.0,0.0,0.0,0.0,0.0,0.0,0.0,0.0,0.0,0.0,0.0,0.0,0.0,0.0,0.0,0.0,0.0,0.0,0.0,0.0,0.0,0.0,0.0,0.0,0.0,0.0,0.0,0.0,0.0,0.0,0.0,0.0,0.0,0.0,0.0,0.0,0.0,0.0,0.0,0.0,0.0,0.0,0.0,0.0,0.0,0.0,0.0,0.0,0.0,0.0,0.0,0.0,0.0,0.0,0.0,0.0,0.0,0.0,0.0,0.0,0.0,0.0,0.0,0.0,0.0,0.0,0.0,0.0,0.0,0.0,0.0,0.0,0.0,0.0,0.0,0.0,0.0,0.0,0.0,0.0,0.0,0.0,0.0,0.0,0.0,0.0,0.0,0.0,0.0,0.0,0.0,0.0,0.0,-5.1688,-5.5588,-5.8936,-6.0454,-6.1561,-6.2581,-6.3615,-6.1035,-5.8188,-5.5389,0.0,0.0,0.0,0.0,0.0,0.0,0.0,0.0,0.0,0.0,0.0,0.0,0.0,0.0,0.0,0.0,0.0,0.0,0.0,0.0,0.0,0.0,0.0,0.0,0.0,0.0,0.0,0.0,0.0,0.0,0.0,0.0,0.0,0.0,0.0,0.0,0.0,0.0,0.0,0.0,0.0,0.0,0.0,0.0,0.0,0.0,0.0,0.0,0.0,0.0,0.0,0.0,0.0,0.0,0.0,0.0,0.0,0.0,0.0,0.0,0.0,0.0,0.0,0.0,0.0,0.0,0.0,0.0,0.0,0.0,0.0,0.0,0.0,0.0,0.0,0.0,0.0,0.0,0.0,0.0,0.0,0.0,0.0,0.0,0.0,0.0,0.0,0.0,0.0,0.0,0.0,0.0,0.0,0.0,0.0,0.0,0.0,0.0,0.0,0.0,0.0,0.0,-5.0816,-5.4625,-5.7869,-5.9369,-6.0258,-6.1104,-6.1974,-6.0164,-5.7868,-5.524,0.0,0.0,0.0,0.0,0.0,0.0,0.0,0.0,0.0,0.0,0.0,0.0,0.0,0.0,0.0,0.0,0.0,0.0,0.0,0.0,0.0,0.0,0.0,0.0,0.0,0.0,0.0,0.0,0.0,0.0,0.0,0.0,0.0,0.0,0.0,0.0,0.0,0.0,0.0,0.0,0.0,0.0,0.0,0.0,0.0,0.0,0.0,0.0,0.0,0.0,0.0,0.0,0.0,0.0,0.0,0.0,0.0,0.0,0.0,0.0,0.0,0.0,0.0,0.0,0.0,0.0,0.0,0.0,0.0,0.0,0.0,0.0,0.0,0.0,0.0,0.0,0.0,0.0,0.0,0.0,0.0,0.0,0.0,0.0,0.0,0.0,0.0,0.0,0.0,0.0,0.0,0.0,0.0,0.0,0.0,0.0,0.0,0.0,0.0,0.0,0.0,0.0,-5.0381,-5.3954,-5.6947,-5.8427,-5.9241,-5.9736,-5.987,-5.8367,-5.6755,-5.5144,0.0,0.0,0.0,0.0,0.0,0.0,0.0,0.0,0.0,0.0,0.0,0.0,0.0,0.0,0.0,0.0,0.0,0.0,0.0,0.0,0.0,0.0,0.0,0.0,0.0,0.0,0.0,0.0,0.0,0.0,0.0,0.0,0.0,0.0,0.0,0.0,0.0,0.0,0.0,0.0,0.0,0.0,0.0,0.0,0.0,0.0,0.0,0.0,0.0,0.0,0.0,0.0,0.0,0.0,0.0,0.0,0.0,0.0,0.0,0.0,-6.5925,0.0,0.0,0.0,0.0,0.0,0.0,0.0,0.0,0.0,0.0,0.0,0.0,0.0,0.0,0.0,0.0,0.0,0.0,0.0,0.0,0.0,0.0,0.0,0.0,0.0,0.0,0.0,0.0,0.0,0.0,0.0,0.0,0.0,0.0,0.0,0.0,0.0,0.0,0.0,0.0,0.0,-4.7695,-5.1475,-5.4669,-5.6022,-5.6807,-5.7703,-5.8771,-5.6811,-5.4839,-5.3329,-5.0704,0.0,0.0,0.0,0.0,0.0,0.0,0.0,0.0,0.0,0.0,0.0,0.0,0.0,0.0,0.0,0.0,0.0,0.0,0.0,0.0,0.0,0.0,0.0,0.0,0.0,0.0,0.0,0.0,0.0,0.0,0.0,0.0,0.0,0.0,0.0,0.0,0.0,0.0,0.0,0.0,0.0,0.0,0.0,0.0,0.0,0.0,0.0,0.0,0.0,0.0,0.0,0.0,0.0,0.0,0.0,0.0,0.0,0.0,0.0,0.0,-6.5615,0.0,0.0,0.0,0.0,0.0,0.0,0.0,0.0,0.0,0.0,0.0,0.0,0.0,0.0,0.0,0.0,0.0,0.0,0.0,0.0,0.0,0.0,0.0,0.0,0.0,0.0,0.0,0.0,0.0,0.0,0.0,0.0,0.0,0.0,0.0,0.0,0.0,0.0,0.0,0.0,-4.8149,-5.1798,-5.4658,-5.5693,-5.6432,-5.7187,-5.7891,-5.6124,-5.4669,-5.3909,-5.0811,0.0,0.0,0.0,0.0,0.0,0.0,0.0,0.0,0.0,0.0,0.0,0.0,0.0,0.0,0.0,0.0,0.0,0.0,0.0,0.0,0.0,0.0,0.0,0.0,0.0,0.0,0.0,0.0,0.0,0.0,0.0,0.0,0.0,0.0,0.0,0.0,0.0,0.0,0.0,0.0,0.0,0.0,0.0,0.0,0.0,0.0,0.0,0.0,0.0,0.0,0.0,0.0,0.0,-6.762,-6.8042,-6.8514,-6.8788,-6.8083,-6.6659,-6.6547,-6.6732,-6.6983,-6.5477,0.0,0.0,0.0,0.0,0.0,0.0,0.0,0.0,0.0,0.0,0.0,0.0,0.0,0.0,0.0,0.0,0.0,0.0,0.0,0.0,0.0,0.0,0.0,0.0,-5.5724,-5.4499,0.0,0.0,0.0,0.0,0.0,0.0,0.0,0.0,0.0,0.0,0.0,0.0,-4.9545,-5.2671,-5.5013,-5.5676,-5.6549,-5.7051,-5.7051,-5.581,-5.4974,-5.4876,-5.1561,-4.9514,0.0,0.0,0.0,0.0,0.0,0.0,0.0,0.0,0.0,0.0,0.0,0.0,0.0,0.0,0.0,0.0,0.0,0.0,0.0,0.0,0.0,0.0,0.0,0.0,0.0,0.0,0.0,0.0,0.0,0.0,0.0,0.0,-6.1602,-6.2327,0.0,0.0,0.0,0.0,0.0,0.0,0.0,0.0,0.0,0.0,0.0,0.0,0.0,-6.4489,-6.7588,-6.8158,-6.8906,-6.9755,-7.1658,-7.1987,-7.0904,-7.2203,-7.1943,-7.0534,-6.9872,0.0,-6.7791,-6.6777,0.0,0.0,0.0,0.0,0.0,0.0,0.0,0.0,0.0,0.0,0.0,0.0,0.0,0.0,0.0,0.0,0.0,0.0,0.0,0.0,0.0,0.0,-5.7281,-5.6128,-5.6193,-5.609,0.0,-5.2191,-5.0057,-4.9006,-4.8335,0.0,0.0,0.0,0.0,0.0,0.0,0.0,-4.9579,-5.1799,-5.3402,-5.3995,-5.5259,-5.6092,-5.6092,-5.514,-5.4376,-5.3925,-5.2089,-5.076,-5.0085,-4.8519,0.0,0.0,0.0,0.0,0.0,0.0,0.0,0.0,0.0,0.0,0.0,0.0,0.0,0.0,0.0,0.0,0.0,0.0,0.0,0.0,0.0,0.0,0.0,0.0,0.0,0.0,0.0,0.0,0.0,-6.1197,-6.2442,-6.2374,-6.1692,-6.0489,0.0,0.0,0.0,0.0,0.0,0.0,0.0,0.0,0.0,-6.5865,-6.6406,-6.7692,-6.9789,-7.0567,-7.1312,-7.2056,-7.3443,-7.4018,-7.3815,-7.4897,-7.4593,-7.3172,-7.324,-7.2451,-7.0933,-6.8879,-6.6839,-6.4755,0.0,0.0,0.0,0.0,-5.8565,-5.8943,-5.9218,-5.994,0.0,-6.0008,0.0,0.0,0.0,0.0,0.0,0.0,0.0,0.0,0.0,0.0,-5.7205,-5.7002,-5.7509,-5.7746,-5.6664,-5.4769,-5.2639,0.0,-5.0274,-4.9765,-4.7717,0.0,0.0,0.0,0.0,-4.8955,-4.9991,-5.1927,-5.3285,-5.3512,-5.4837,-5.5567,-5.5136,-5.473,-5.4195,-5.3576,-5.2146,-5.0956,-5.0225,-4.9184,-4.7998,0.0,0.0,0.0,0.0,0.0,0.0,0.0,0.0,0.0,0.0,0.0,0.0,0.0,0.0,0.0,0.0,0.0,0.0,0.0,0.0,0.0,0.0,0.0,0.0,0.0,0.0,0.0,0.0,-6.1637,-6.3429,-6.2516,-6.2922,-6.2245,0.0,0.0,0.0,0.0,0.0,0.0,-6.3396,-6.37,-6.5595,-6.9485,-7.0195,-7.1312,-7.3003,-7.3544,-7.4086,-7.4661,-7.5405,-7.5946,-7.6318,-7.7096,-7.6623,-7.5236,-7.5777,-7.5168,-7.3578,-7.1007,-6.8098,-6.5121,-6.4174,-6.2415,-6.0317,-5.937,-5.9505,-6.0182,-6.0385,-6.1061,-6.1738,-6.096,-6.0351,-5.9404,-5.6799,0.0,0.0,0.0,0.0,-5.4363,-5.5649,-5.6528,-5.7205,-5.7746,-5.8321,-5.8524,-5.778,-5.663,-5.4937,0.0,-5.2066,-5.1592,-4.9375,0.0,0.0,0.0,0.0,-5.0126,-5.0892,-5.2381,-5.3334,-5.3169,-5.446,-5.5019,-5.4258,-5.4229,-5.3997,-5.3434,-5.2241,-5.1247,-5.0518,-4.9892,-4.8629,-4.6676,0.0,0.0,0.0,0.0,0.0,0.0,0.0,0.0,0.0,0.0,0.0,0.0,0.0,0.0,0.0,0.0,0.0,0.0,0.0,0.0,0.0,0.0,0.0,0.0,0.0,0.0,0.0,0.0,0.0,-6.255,-6.6136,0.0,0.0,0.0,0.0,-6.2144,-6.2854,-6.4241,-6.6474,-6.7252,-6.9654,-7.4119,-7.4322,-7.5405,-7.7638,-7.7671,-7.7739,-7.7773,-7.8517,-7.8551,-7.7908,-7.8653,-7.8179,-7.6792,-7.6826,-7.598,-7.4424,-7.2868,-7.1278,-6.9485,-6.5933,-6.4444,-6.414,-6.2685,-6.2651,-6.3396,-6.4072,-6.3903,-6.3632,-6.4918,-6.3937,-6.1535,-5.7848,-5.6224,0.0,0.0,-5.5074,-5.5784,-5.6562,-5.7273,-5.7848,-5.7881,-5.7915,-5.7746,-5.7002,-5.6258,-5.5376,0.0,-5.3146,-5.1761,-5.0048,0.0,-5.0823,-5.0889,-5.1195,-5.1657,-5.2389,-5.3045,-5.3169,-5.2506,-5.3732,-5.4258,-5.3533,-5.3467,-5.3467,-5.34,-5.2738,-5.2011,-5.1282,-5.0518,-4.9756,-4.8961,-4.6841,0.0,0.0,0.0,0.0,0.0,0.0,0.0,0.0,0.0,0.0,0.0,0.0,0.0,0.0,0.0,0.0,0.0,0.0,0.0,0.0,0.0,0.0,0.0,0.0,0.0,0.0,0.0,0.0,-6.6779,-6.9789,0.0,-6.7421,-6.6643,-6.644,-6.6677,-6.8267,-7.0195,-7.2428,-7.3274,-7.4627,-7.6724,-7.7266,-7.7908,-7.872,-7.872,-7.872,-7.872,-7.8991,-7.8483,-7.7299,-7.8044,-7.757,-7.6115,-7.6115,-7.5811,-7.527,-7.4728,-7.3375,-7.1278,-6.7996,-6.6711,-6.6474,-6.4512,-6.4275,-6.4952,-6.5222,-6.4816,-6.414,-6.37,-6.2719,-6.1434,-6.0114,-5.9167,-5.8389,-5.7645,-5.7273,-5.7273,-5.8017,-5.8312,-5.8407,-5.8407,-5.8698,-5.8719,-5.798,-5.6872,-5.6029,-5.6047,-5.4352,-5.2606,-5.173,-5.183,-5.1863,-5.1362,-5.1723,-5.2016,-5.1783,-5.2343,-5.2638,-5.2442,-5.3235,-5.3533,-5.2804,-5.3169,-5.3003,-5.2108,-5.1846,-5.1149,-4.9922,-5.0088,-4.9657,-4.8431,-4.7636,-4.6278,0.0,0.0,0.0,0.0,0.0,0.0,0.0,0.0,0.0,0.0,0.0,0.0,0.0,0.0,0.0,0.0,0.0,0.0,0.0,0.0,0.0,0.0,0.0,0.0,0.0,-6.6136,-7.0128,-6.9891,-7.3341,-7.4593,-7.1616,-7.1312,-7.1515,-7.2056,-7.368,-7.5405,-7.713,-7.7942,-7.872,-7.9464,-7.9972,-8.0107,-7.9837,-7.9837,-7.9735,-7.9464,-7.9464,-7.8957,-7.8044,-7.8517,-7.7908,-7.6487,-7.6487,-7.6048,-7.5337,-7.5337,-7.4458,-7.2935,-7.0669,-6.9485,-6.8808,-6.6846,-6.6271,-6.6373,-6.5865,-6.5527,-6.5087,-6.3599,-6.2482,-6.167,-6.167,-6.1129,-6.0351,-5.9607,-5.9201,-5.9099,-5.9302,-5.9257,-5.9144,-5.9102,-5.9358,-5.9242,-5.7926,-5.7089,-5.6445,-5.5958,-5.4374,-5.2972,-5.2659,-5.2389,-5.1956,-5.1258,-5.1418,-5.1479,-5.0982,-5.1777,-5.2409,-5.2409,-5.3003,-5.3235,-5.2771,-5.2705,-5.2274,-5.1382,-5.1083,-5.0386,-4.916,-4.9326,-4.8895,-4.7636,-4.7139,-4.5914,-4.3992,0.0,0.0,0.0,0.0,0.0,0.0,0.0,0.0,0.0,0.0,0.0,0.0,0.0,0.0,0.0,0.0,0.0,0.0,0.0,0.0,0.0,0.0,0.0,-6.3632,-6.8808,-7.2326,-7.1718,-7.6758,-7.916,-7.6183,-7.7232,-7.8077,-7.8077,-7.8788,-7.9532,-8.0276,-8.0953,-8.1697,-8.2408,-8.2408,-8.2069,-8.1325,-8.1291,-8.0919,-8.0242,-8.0175,-8.0141,-8.0141,-8.0107,-7.9295,-7.7874,-7.7908,-7.6657,-7.4627,-7.4627,-7.4627,-7.4525,-7.3713,-7.2529,-7.1142,-6.9586,-6.8538,-6.7692,-6.6203,-6.617,-6.6576,-6.5087,-6.3632,-6.2482,-6.2482,-6.1975,-6.1231,-6.0419,-6.0723,-6.1095,-6.0351,-6.0148,-6.0038,-5.9881,-5.9804,-5.9161,-5.6754,-5.6783,-5.6612,-5.4292,-5.3365,-5.2901,-5.269,-5.2056,-5.1324,-5.0592,-5.0389,0.0,-5.0286,-5.1512,-5.2409,-5.2409,-5.3003,-5.34,-5.3367,-5.2108,-5.1315,-5.1249,-5.0551,-4.9823,-4.9061,-4.8365,-4.7669,-4.6974,-4.5483,-4.4718,-4.4688,0.0,0.0,0.0,0.0,0.0,0.0,0.0,0.0,0.0,0.0,0.0,0.0,0.0,0.0,0.0,0.0,0.0,0.0,0.0,0.0,0.0,-6.5019,-6.8132,-6.8335,-7.2529,-7.6352,-7.8314,-8.0919,-8.2069,-8.0682,-8.0445,-8.0378,-8.0378,-8.1088,-8.1832,-8.2543,-8.278,-8.2983,-8.3186,-8.2678,-8.2306,-8.2103,-8.1562,-8.119,-8.0953,-7.9904,-7.9126,-7.8585,-7.8044,-7.6995,-7.5574,-7.6082,-7.5676,-7.4661,-7.5168,-7.51,-7.439,-7.2022,-7.1176,-7.1007,-6.8402,-6.7624,-6.7692,-6.6203,-6.617,-6.6576,-6.5087,-6.4681,-6.4783,-6.4783,-6.3903,-6.2854,-6.2651,-6.1535,-6.0655,-6.1535,-6.0811,-5.9886,-5.9809,-5.9693,-5.9198,-5.7868,-5.733,-5.7025,-5.6729,-5.5269,-5.404,-5.4004,-5.3838,-5.344,-5.271,-5.2542,0.0,-5.1843,-5.2142,-5.2409,-5.2409,-5.3003,-5.3202,-5.2705,-5.2307,-5.138,-4.9823,-4.9028,-4.8266,-4.7537,-4.7835,-4.8166,-4.8498,-4.651,-4.5218,0.0,0.0,0.0,0.0,0.0,0.0,0.0,0.0,0.0,0.0,0.0,0.0,0.0,0.0,0.0,0.0,0.0,0.0,0.0,0.0,0.0,0.0,-6.8842,-7.2699,-7.4559,-7.7063,-7.9566,-8.1934,-8.3253,-8.393,-8.3828,-8.3422,-8.3186,-8.3186,-8.3558,-8.3862,-8.3964,-8.3964,-8.3964,-8.3964,-8.3253,-8.2712,-8.2408,-8.1663,-8.0987,-8.0378,-7.9837,-7.9025,-7.7976,-7.7536,-7.6521,-7.5067,-7.5202,-7.4661,-7.3747,-7.4458,-7.4356,0.0,0.0,0.0,0.0,0.0,-6.7083,-6.7218,-6.573,-6.5527,-6.573,-6.4884,-6.4681,-6.4884,-6.5493,-6.4884,-6.3903,-6.3599,-6.255,-6.1603,-6.1873,-6.1187,-6.0358,-6.0203,-6.0047,-5.9689,-5.864,-5.8368,-5.8063,-5.7481,-5.6547,0.0,-5.5487,-5.4659,-5.3798,-5.3102,-5.297,-5.2837,-5.244,-5.2638,-5.2804,-5.2804,-5.3169,-5.3235,-5.2837,-5.2274,0.0,0.0,0.0,-4.8001,-4.6941,-4.7007,0.0,0.0,0.0,-4.5284,-4.5152,0.0,0.0,0.0,-4.3959,-4.3267,0.0,0.0,0.0,0.0,0.0,0.0,0.0,0.0,0.0,0.0,0.0,0.0,0.0,0.0,0.0,0.0,-7.2462,-7.6927,-8.1088,-8.1799,-8.234,-8.349,-8.42,-8.4911,-8.5587,-8.5723,-8.579,-8.579,-8.579,-8.5486,-8.4776,0.0,0.0,0.0,0.0,-8.3152,-8.2408,-8.1663,-8.0581,-7.9228,-7.9735,-7.9261,-7.7976,-7.7705,-7.6826,-7.5405,-7.4762,-7.368,-7.2462,-7.3172,-7.2969,-7.2225,-7.2868,-7.1751,-6.9553,-6.7557,-6.6812,-6.6609,-6.5121,0.0,0.0,-6.4546,-6.4106,-6.3903,-6.5256,-6.5121,-6.4377,-6.3802,-6.3463,-6.2956,-6.1637,-6.1298,-6.1148,-6.0622,-6.0577,-6.0324,-5.9186,-5.947,-5.9337,-5.7309,-5.7409,-5.7574,-5.6912,-5.5123,-5.3533,-5.2837,-5.2738,-5.2705,-5.2638,-5.3169,-5.35,-5.3434,0.0,0.0,-5.3301,-5.2142,-5.1015,-5.0154,-4.9326,-4.8266,-4.6941,-4.6344,-4.5715,-4.5052,-4.5052,-4.5384,-4.6046,-4.5384,-4.6079,-4.7934,-4.522,-4.4688,0.0,0.0,0.0,0.0,0.0,0.0,0.0,0.0,0.0,0.0,0.0,0.0,0.0,0.0,0.0,-7.1954,-7.7198,-8.1629,-8.3693,-8.5046,-8.5452,-8.4505,-8.4539,-8.4674,-8.4843,-8.5418,-8.579,-8.579,-8.579,-8.5723,-8.5587,-8.4979,-8.464,-8.464,-8.3896,-8.3152,-8.2408,-8.1663,-8.0851,-7.9972,0.0,0.0,-7.7942,-7.6115,-7.4762,-7.3916,-7.3747,-7.3206,-7.2462,-7.3172,-7.236,-7.0635,-7.077,-6.9451,-6.7421,-6.6981,-6.6812,-6.6609,-6.5121,-6.4986,-6.529,-6.4106,-6.4038,-6.4546,-6.5425,-6.4783,0.0,-6.4275,-6.3091,-6.167,-6.1366,-6.1298,-6.1052,-6.0141,-6.0404,-6.0522,-5.9391,-5.9239,-5.9166,-5.8608,-5.8104,-5.774,-5.7608,-5.6746,-5.5819,-5.509,-5.499,-5.4792,-5.4195,-5.4229,-5.4063,-5.3467,-5.3964,-5.3831,-5.2672,-5.234,-5.1347,-4.9425,-4.8067,-4.7206,-4.6908,-4.7338,-4.7504,-4.7371,-4.7371,-4.7438,-4.757,-4.7438,-4.757,-4.7968,-4.6808,-4.6411,0.0,0.0,0.0,0.0,0.0,0.0,0.0,0.0,0.0,0.0,0.0,-6.4647,-6.6508,0.0,-7.3916,-7.6893,-8.0513,-8.3625,-8.552,-8.6433,-8.6501,-8.5351,-8.5215,-8.5351,-8.5723,-8.579,-8.5926,-8.6332,-8.5993,-8.5621,-8.5215,-8.4843,-8.464,-8.464,-8.3524,-8.278,-8.2408,-8.1291,-8.0378,-7.9634,-7.8889,-7.8145,-7.7367,-7.5473,-7.4187,-7.3477,-7.3105,-7.2529,-7.1887,-7.2259,-7.1312,-6.9654,-6.9654,-6.847,-6.6812,-6.6812,-6.6576,-6.6102,-6.4986,-6.485,-6.5019,-6.4309,-6.4546,-6.529,-6.6034,-6.5493,-6.4512,-6.4174,-6.299,-6.167,-6.0892,-6.0419,-6.0173,-6.0319,-6.0342,-6.0365,-6.0298,-6.0018,-5.9611,-5.9006,-5.8303,-5.7674,-5.7309,-5.6945,-5.6547,-5.6216,-5.615,-5.6017,-5.5653,-5.4957,-5.4357,-5.396,-5.3665,-5.3169,-5.2475,-5.2409,-5.1612,-4.979,-4.8961,-4.8233,-4.7471,-4.7802,-4.8001,-4.8001,-4.8001,-4.8001,-4.8001,-4.8001,-4.8001,-4.7968,-4.7239,-4.6908,0.0,0.0,0.0,0.0,0.0,0.0,0.0,-6.0858,-6.1704,-6.5899,-6.7692,-6.9417,-7.2293,-7.4999,-7.7908,-8.1359,-8.3186,-8.4911,-8.7042,-8.7347,-8.7042,-8.6298,-8.596,-8.596,-8.6433,-8.6061,-8.6095,-8.6839,-8.623,-8.5587,-8.508,-8.4776,-8.464,-8.464,-8.3186,-8.2408,-8.2408,-8.0953,-7.9904,-7.9329,-7.9194,-7.8416,-7.7063,-7.5371,-7.4289,-7.3646,-7.2766,-7.2056,-7.1515,-7.1379,-7.0534,-6.9316,-6.9147,-6.8267,-6.6981,-6.6711,-6.6136,-6.5358,-6.4647,-6.4275,-6.4208,-6.4343,-6.4783,-6.5425,-6.6339,-6.6068,-6.5189,-6.3869,-6.2888,-6.1806,-6.0283,-5.9471,-5.9227,-6.0252,-6.0107,-6.0024,-6.0965,-6.0717,-6.0077,-5.9271,-5.8502,-5.7773,-5.7044,-5.6779,-5.668,-5.668,-5.668,-5.668,-5.668,-5.5653,-5.4891,-5.4759,-5.3699,-5.2904,-5.2605,-5.244,-5.1777,-5.032,-5.022,-4.9558,-4.8067,-4.8001,-4.8001,-4.8001,-4.8001,-4.8001,-4.8001,-4.8001,-4.8001,-4.7968,-4.7106,-4.6676,-6.5048,-6.2645,-6.1884,-6.179,-6.1327,-6.2316,0.0,-6.7387,-6.7557,-7.3274,-7.4593,-7.5439,-7.7807,-7.9566,-8.1426,-8.3862,-8.552,-8.7076,-8.8632,-8.8835,-8.8564,-8.782,-8.6602,-8.5554,-8.4945,-8.5418,-8.6095,-8.6839,-8.623,-8.6027,-8.6636,-8.5351,-8.464,-8.464,-8.3186,-8.2408,-8.2408,-8.0953,-8.0175,-8.0073,-7.9431,-7.8686,-7.7773,-7.5608,-7.4559,-7.4424,-7.3003,-7.236,-7.2225,-7.1582,-7.0838,-6.9992,-6.935,-6.8571,-6.7624,-6.6305,-6.5358,-6.4613,-6.3903,-6.3193,-6.2753,-6.3429,-6.37,-6.4005,-6.5392,-6.529,-6.4546,-6.3734,-6.2516,-6.1061,-5.9539,-5.9066,-5.8991,-5.8938,-5.9367,-5.989,-6.0331,-6.0384,-6.0203,-5.9934,-5.9264,-5.8535,-5.7806,-5.7111,-5.668,-5.668,-5.668,-5.668,-5.668,-5.6547,-5.6216,-5.5549,-5.5317,-5.4688,-5.34,-5.2738,-5.1777,-5.032,-5.022,-4.9558,-4.8067,-4.8001,-4.8001,-4.8001,-4.8001,-4.8001,-4.8001,-4.8001,-4.8001,-4.7968,-4.6576,-4.5914,-6.9575,-6.7325,-6.5971,-6.6637,-6.6665,-6.7503,-7.1294,-7.1379,-7.2157,-7.7266,-7.8991,-8.031,-8.2577,-8.42,-8.579,-8.7583,-8.8057,-8.8531,-8.9579,-8.9342,-8.8666,-8.7516,-8.6805,-8.6467,-8.6569,-8.6095,-8.6264,-8.7448,-8.6467,-8.5926,-8.623,-8.5215,-8.464,-8.464,-8.3592,-8.2847,-8.2408,-8.1359,-8.0615,-8.0175,-7.9464,-7.872,-7.7908,-7.6082,-7.4999,-7.4525,-7.3037,-7.2631,-7.2935,-7.1785,-7.0872,-7.0128,-6.9383,-6.8605,-6.776,-6.6745,-6.617,-6.5764,-6.5053,-6.485,-6.4952,-6.4816,-6.5087,-6.5561,-6.617,-6.6136,-6.5662,-6.4478,-6.3396,-6.2245,-6.0723,-6.0013,-5.9738,-6.0135,-6.0435,-6.0796,-6.1193,-6.0531,-5.9771,-5.9565,-5.8482,-5.7508,-5.721,-5.6879,-5.668,-5.668,-5.668,-5.668,-5.668,-5.6316,-5.562,-5.4423,-5.4291,-5.393,-5.2904,-5.3301,-5.2638,-5.0353,-5.138,-5.085,-4.81,-4.8398,-4.8431,-4.8001,-4.8001,-4.8001,-4.8001,-4.8001,-4.7769,-4.7338,-4.6278,-4.5781,-7.1241,-7.0299,-6.9801,-7.0983,-7.1877,-7.3083,-7.5287,-7.5539,-7.6487,-8.0581,-8.2103,-8.3355,-8.5418,-8.667,-8.7922,-8.9613,-8.9275,-8.9106,-9.0087,-8.9376,-8.8226,-8.6771,-8.6399,-8.6569,-8.7313,-8.6433,-8.6399,-8.7888,-8.6602,-8.5892,-8.6095,-8.5148,-8.464,-8.464,-8.3896,-8.3152,-8.2408,-8.1663,-8.0919,-8.0175,-7.9667,-7.9025,-7.8247,-7.6724,-7.5405,-7.4255,-7.3172,-7.2868,-7.3105,-7.1819,-7.1007,-7.0398,-6.9485,-6.8741,-6.8098,-6.7151,-6.6542,-6.6136,-6.5561,-6.5595,-6.5865,-6.5493,-6.5899,-6.6542,-6.6745,-6.6812,-6.6508,-6.5019,-6.4072,-6.3159,-6.1704,-6.0689,-6.025,-6.0825,-6.096,-6.1086,-6.1565,-6.0735,-5.9773,-5.937,-5.8313,-5.7332,-5.6862,-5.6796,-5.6757,-5.6719,-5.668,-5.668,-5.668,-5.6249,-5.5521,-5.4427,-5.4129,-5.3732,-5.3036,-5.393,-5.3467,-5.0982,-5.2075,-5.1545,-4.873,-4.873,-4.8564,-4.8001,-4.8199,-4.8199,-4.8001,-4.8199,-4.7835,-4.6874,-4.6146,-4.5682,-6.7003,-6.8633,-7.0938,-7.3189,-7.5932,-7.8664,-8.0905,-8.0697,-8.0851,-8.3862,-8.393,-8.393,-8.5486,-8.5824,-8.6569,-8.8767,-8.8497,-8.8531,-9.0019,-8.8937,-8.7482,-8.5993,-8.5148,-8.5012,0.0,-8.5824,-8.6399,-8.7888,-8.6602,-8.6095,-8.6839,-8.5452,-8.464,-8.464,-8.3896,-8.3152,-8.2408,-8.1663,-8.0919,-8.0209,-8.0175,-7.9769,-7.9025,-7.7536,-7.5642,-7.351,-7.3477,-7.3071,-7.236,-7.1616,-7.1312,-7.1142,-6.9688,-6.9079,-6.8876,-6.7387,-6.5899,-6.4647,-6.4647,-6.4174,-6.3734,-6.441,-6.5121,-6.5865,-6.6576,-6.6812,-6.6508,-6.5019,-6.4072,-6.3159,-6.1704,-6.0689,-6.0114,-6.0148,-6.0148,-6.0275,-6.0824,-6.092,-6.0606,-5.9667,-5.946,-5.892,-5.7258,-5.6987,-5.6911,-5.6719,-5.668,-5.668,-5.668,-5.668,-5.6647,-5.6581,-5.5984,-5.5218,-5.449,-5.4494,-5.3897,-5.2442,-5.1746,-5.0982,-5.0187,-4.8796,-4.8034,-4.8001,-4.8696,-4.873,-4.8001,-4.873,-4.8332,-4.6874,-4.6146,-4.5417,-7.0589,-7.3269,-7.6612,-7.9377,-8.123,-8.2764,-8.4492,-8.4087,-8.3647,-8.4641,-8.2581,-8.0885,-8.19,-8.1697,-8.2238,-8.4945,-8.6433,-8.7617,-8.8598,-8.8734,-8.7786,-8.5317,-8.5689,0.0,0.0,0.0,0.0,-8.7177,-8.6366,-8.5892,-8.6163,-8.5182,-8.464,-8.464,-8.437,-8.3659,-8.2408,-8.2171,-8.1426,-8.0175,-7.9194,-7.8077,-7.6826,-7.5811,-7.4695,-7.3443,-7.2969,-7.2631,-7.2326,-7.1616,-7.1312,-7.121,-7.0195,-6.9519,-6.8977,-6.7929,-6.6609,-6.5392,-6.5899,-6.5899,-6.573,-6.6,-6.6237,-6.6474,-6.6745,-6.6812,-6.6711,-6.6203,-6.5189,-6.4005,-6.3024,-6.2212,-6.1501,-6.1028,-6.1264,-6.1569,-6.1255,-6.1071,-6.0583,-5.9223,-5.9242,-5.9087,-5.7925,-5.8153,-5.8208,-5.7514,-5.7011,-5.668,-5.668,-5.668,-5.6514,-5.6017,-5.5747,-5.5085,-5.3897,-5.4229,-5.3699,-5.1812,-5.2307,-5.1711,-4.9558,-4.9458,-4.8995,-4.8034,-4.873,-4.8763,-4.8001,-4.8763,-4.8332,-4.6874,-4.6643,-4.6378,-7.345,-7.6927,-8.0731,-8.3849,-8.51,-8.594,-8.7152,-8.6452,-8.525,-8.4391,-8.1317,-7.8856,-7.8973,-7.7739,-7.7841,-8.1359,-8.2949,-8.4437,-8.6501,-8.6974,-8.6467,-8.4809,-8.5249,-8.5317,0.0,0.0,0.0,-8.6771,-8.623,-8.579,-8.579,-8.5046,-8.464,-8.464,-8.464,-8.3896,-8.2408,-8.2408,-8.1663,-8.0175,-7.8957,-7.7604,-7.6115,-7.5642,-7.4593,-7.3105,-7.2868,-7.2496,-7.1988,-7.1515,-7.1312,-7.1244,-7.0466,-6.9755,-6.9011,-6.8199,-6.7117,-6.6102,-6.6339,-6.6406,-6.6406,-6.6406,-6.6609,-6.6812,-6.6812,-6.6812,-6.6779,-6.6474,-6.573,-6.4749,-6.3768,-6.3159,-6.2618,-6.1873,-6.2042,-6.2245,-6.1806,-6.1593,-6.1138,-5.989,-5.9838,-5.9672,-5.8775,-5.8846,-5.8794,-5.7945,-5.7376,-5.6978,-5.6713,-5.668,-5.6514,-5.6051,-5.5984,-5.5521,-5.4295,-5.4589,-5.4195,-5.2539,-5.2804,-5.2208,-5.0353,-5.0253,-4.9657,-4.8431,-4.9392,-4.926,-4.8001,-4.8995,-4.8597,-4.6908,-4.6908,-4.6742,-7.5587,-7.9571,-8.341,-8.6561,-8.7699,-8.8221,-8.8971,-8.7692,-8.5647,-8.3144,-8.011,-7.7537,-7.651,-7.4052,-7.3612,-7.8044,-7.845,-7.9735,-8.4065,-8.4167,-8.3998,-8.4573,-8.4065,-8.3625,-8.3524,-8.3524,-8.4437,-8.6636,0.0,-8.5723,-8.5723,-8.5012,-8.464,-8.464,-8.464,-8.393,-8.2475,-8.2408,-8.1596,-8.0141,-7.9397,-7.8247,-7.6792,-7.6758,-7.5134,-7.2394,-7.3071,-7.2597,-7.1312,-7.1312,-7.1312,-7.1176,-7.0466,-6.9722,-6.8944,-6.8166,-6.7455,-6.6711,-6.6,-6.5764,-6.5764,-6.5764,-6.6237,-6.6812,-6.6812,-6.6812,-6.6677,-6.5933,-6.573,-6.5358,-6.4005,-6.3565,-6.3328,-6.2618,-6.2415,-6.2381,-6.2347,-6.2347,-6.2144,-6.14,-6.1037,-6.064,-5.9734,-5.9212,-5.8668,-5.7939,-5.7773,-5.7475,-5.6779,-5.668,-5.668,-5.668,-5.668,-5.6415,-5.5648,-5.5582,-5.5251,-5.449,-5.3202,-5.2442,-5.2376,-5.0949,-4.9856,-4.9127,-5.0452,-5.0121,-4.8001,-4.9458,-4.9061,-4.7007,-4.6974,-4.6609,-8.0585,-8.4569,-8.8046,-9.011,-9.024,-8.997,-9.0186,-8.7938,-8.4804,-8.1269,-7.6173,-7.1557,-6.9015,-6.8808,-7.0161,-7.3544,-7.8145,-8.2272,-8.508,-8.6738,-8.6907,-8.4877,-8.5452,-8.5384,-8.3659,-8.3998,-8.4573,0.0,-8.5012,-8.4911,-8.4911,-8.4742,-8.464,-8.464,-8.464,-8.4167,-8.3219,-8.2137,-8.0851,-7.9397,-7.8619,-7.7198,-7.5168,-7.4627,-7.3341,-7.1616,-7.1785,-7.165,-7.1312,-7.1312,-7.0973,-7.0466,-7.0263,-6.9383,-6.8166,-6.7963,-6.7455,-6.6779,-6.6576,-6.6542,-6.6542,-6.6542,-6.6643,-6.6812,-6.6812,-6.6812,-6.6779,-6.6576,-6.6102,-6.5595,-6.5222,-6.4343,-6.3463,-6.326,-6.2787,-6.2245,-6.1704,-6.2009,-6.2009,-6.0655,-6.055,-6.0705,-6.0905,-5.9797,-5.8833,-5.8634,-5.7674,-5.6912,-5.6713,-5.668,-5.668,-5.668,-5.668,-5.6415,-5.5648,-5.5582,-5.5019,-5.3765,-5.3334,-5.2672,-5.1647,-5.0684,-4.9856,-4.9127,-4.9458,-4.9127,-4.8001,-4.8928,-4.9094,-4.8531,-4.7968,-4.8199,-8.4678,-8.7974,-9.0654,-9.1559,-9.1451,-9.0473,-8.8046,-8.6033,-8.2965,-7.6908,-7.1798,-6.7746,-6.5568,-6.5054,-6.6508,-7.1176,-7.5608,-7.9972,-8.42,-8.5858,-8.6366,-8.5689,-8.6095,-8.579,-8.4133,-8.437,-8.464,-8.464,-8.464,-8.464,-8.464,-8.464,-8.464,-8.464,-8.464,-8.4099,-8.3016,-8.1866,-8.0716,-7.9566,-7.8517,-7.6961,-7.5067,-7.4322,-7.3003,-7.1345,0.0,-7.1616,-7.1312,-7.1312,-7.0872,-7.0195,-7.0195,-6.9248,-6.7861,-6.7557,-6.6948,-6.6271,-6.5967,-6.6068,-6.6373,-6.6711,-6.6812,-6.6812,-6.6812,-6.6812,-6.6812,-6.6812,-6.6508,-6.6102,-6.5764,-6.485,-6.3903,-6.3599,-6.2956,-6.2279,-6.1873,-6.211,-6.2071,-6.1032,-6.0964,-6.1127,-6.1268,-6.0472,-5.9761,-5.9429,-5.8668,-5.7906,-5.7243,-5.6879,-5.668,-5.668,-5.668,-5.6514,-5.6117,-5.6084,-5.5587,-5.4423,-5.4063,-5.34,-5.2274,-5.1545,-5.0817,-5.0088,-5.0055,-4.9525,-4.8498,-4.9226,-4.926,-4.863,-4.8862,-4.926,-8.8046,-9.0292,-9.1958,-9.1958,-9.1813,-9.0255,-8.4859,-8.3157,-8.0298,-7.1759,-6.751,-6.5023,-6.3878,-6.237,-6.3497,-7.0229,-7.28,-7.6251,-8.2881,-8.3896,-8.464,-8.6535,-8.6196,-8.5486,-8.4708,-8.464,-8.464,-8.464,-8.464,-8.464,-8.464,-8.464,-8.464,-8.464,-8.464,-8.3896,-8.2408,-8.1765,-8.0953,-8.004,-7.8653,-7.7164,-7.5676,-7.483,-7.3375,-7.1481,-7.2022,-7.1887,-7.1312,-7.1312,-7.0804,-7.0026,-7.0026,-6.9113,-6.7658,-6.6948,-6.6237,-6.5561,-6.485,-6.5087,-6.5797,-6.644,-6.6745,-6.6812,-6.6812,-6.6812,-6.6812,-6.6812,-6.6812,-6.6677,-6.6,-6.5222,-6.4444,-6.3802,-6.3091,-6.2516,-6.2415,-6.2381,-6.2263,-6.179,-6.1709,-6.1547,-6.1169,-6.102,-6.0755,-6.0092,-5.9926,-5.9396,-5.8104,-5.7376,-5.6945,-5.6846,-5.6846,-5.6846,-5.6846,-5.6746,-5.6382,-5.5648,-5.4887,-5.4195,-5.3434,-5.2638,-5.1978,-5.1315,-5.1216,-5.0485,-4.9094,-4.9856,-4.9558,-4.8332,-4.9624,-4.9955,-9.0545,-9.1994,-9.2791,-9.2791,-9.1813,-8.9712,-8.5438,-8.1418,-7.6648,-6.9895,-6.503,-6.159,-6.0117,-6.0669,-6.3497,-7.0229,-7.4119,-7.845,-8.4539,-8.5926,-8.623,-8.5993,-8.5858,-8.5486,-8.4708,-8.464,-8.464,0.0,-8.464,-8.464,-8.464,-8.464,-8.464,-8.464,-8.464,-8.3896,-8.2408,-8.2272,-8.1224,-7.9295,-7.8416,-7.7164,-7.5642,-7.4289,-7.3138,-7.2191,-7.1718,0.0,-7.1312,-7.1312,-7.0534,-6.9282,-6.9282,-6.8368,-6.6914,-6.617,-6.5797,-6.5561,-6.485,-6.5087,-6.5696,-6.5831,-6.6305,-6.6812,-6.6812,-6.6812,-6.6812,-6.6812,-6.6812,-6.6779,-6.6643,-6.5628,-6.458,-6.4444,-6.3869,-6.3159,-6.2516,-6.2381,-6.2263,-6.179,-6.1709,-6.1547,-6.1169,-6.0589,-6.0158,-6.0026,-5.9496,-5.8999,-5.8734,-5.8601,-5.827,-5.7674,-5.7608,-5.7608,-5.7608,-5.7044,-5.6382,-5.5648,-5.4887,-5.4195,-5.3434,-5.2175,-5.1448,-5.1315,-5.0684,-4.9955,-4.9094,-4.9856,-5.0088,-4.9823,-5.0088,-5.0783,-9.2252,-9.3334,-9.4058,-9.3225,-9.1813,-8.8915,-8.2432,-7.8195,-7.3461,-6.5893,-6.1944,-5.9571,-5.843,-5.9838,-6.2638,-6.7091,-7.0973,-7.5506,-8.146,-8.2949,-8.3998,-8.5587,-8.579,-8.5486,-8.4708,-8.464,-8.464,-8.464,-8.464,-8.464,-8.464,-8.464,-8.464,-8.464,-8.464,-8.3896,-8.2408,-8.2408,-8.1291,-7.9092,-7.8348,-7.6995,-7.51,-7.3984,-7.2868,-7.1819,-7.1447,-7.1312,-7.1312,-7.1312,-7.0669,-6.962,-6.9248,-6.8402,-6.7252,-6.6102,-6.5459,-6.5019,-6.4275,-6.4275,-6.4546,-6.4546,-6.5595,-6.6745,-6.6339,-6.6237,-6.6305,-6.6711,-6.6542,-6.6237,-6.6237,-6.5425,-6.4512,-6.414,-6.3463,-6.2821,-6.2482,-6.2381,-6.2263,-6.179,-6.1709,-6.1547,-6.1169,-6.0821,-6.0589,-6.0589,-6.0258,-6.0059,-6.0059,-6.0059,-5.9628,-5.8502,-5.8038,-5.7806,-5.7806,-5.7111,-5.6547,-5.6183,-5.5487,-5.4721,-5.403,-5.297,-5.2208,-5.1879,-5.1148,-5.0585,-5.0253,-5.0585,-5.0585,-5.022,-5.0982,-5.1512,-9.3493,-9.4462,-9.5217,-9.3443,-9.1668,-8.8118,-7.968,-7.5478,-7.1096,-6.2983,-5.9797,-5.8316,-5.7921,-5.9107,-6.1101,-6.4125,-6.732,-7.1616,-7.7773,-7.9532,-8.146,-8.4877,-8.5452,-8.5283,-8.4674,-8.464,0.0,-8.464,-8.464,-8.464,-8.464,-8.464,-8.464,-8.464,-8.4471,-8.3761,-8.2408,-8.2103,-8.0919,-7.8855,-7.7942,-7.6487,-7.4593,-7.368,-7.2631,-7.1548,-7.1379,-7.1312,-7.1312,-7.1312,-7.0872,-7.0128,-6.9383,-6.8605,-6.7726,-6.6237,-6.5324,-6.4715,-6.4005,-6.3835,-6.3937,-6.3632,-6.4783,-6.6271,-6.5831,-6.5696,-6.5797,-6.6406,-6.6136,-6.5662,-6.5493,-6.4918,-6.4241,-6.3666,-6.2956,-6.2482,-6.2787,-6.2618,-6.2296,-6.1991,-6.181,-6.1547,-6.1169,-6.1218,-6.1285,-6.1119,-6.1384,-6.1516,-6.1351,-6.1351,-6.0887,-5.9728,-5.8933,-5.8436,-5.827,-5.7574,-5.7011,-5.6713,-5.6017,-5.5251,-5.4523,-5.3798,-5.3069,-5.2407,-5.1846,-5.1547,-5.1547,-5.168,-5.138,-5.0717,-5.2009,-5.2208,-9.42,-9.542,-9.5905,-9.3587,-9.1233,-8.7575,-8.0259,-7.5044,-7.0046,-6.4178,-6.012,-5.7818,-5.8585,-5.7784,-5.8667,-6.3786,-6.6034,-6.9451,-7.6149,-7.8889,-8.1054,-8.3422,-8.4302,-8.4708,-8.464,-8.464,-8.464,-8.464,-8.464,-8.464,-8.464,-8.464,-8.464,-8.464,-8.3964,-8.3219,-8.2408,-8.1088,-7.9634,-7.8077,-7.6589,-7.5439,-7.4559,-7.3138,-7.2428,-7.2259,-7.1616,-7.1312,0.0,-7.1312,-7.0872,-7.0128,-6.9383,-6.8605,-6.7726,-6.6237,-6.5662,-6.5493,-6.4749,-6.4918,-6.5256,-6.3937,-6.4106,-6.4918,-6.5493,-6.5696,-6.5696,-6.5764,-6.573,-6.5527,-6.4884,-6.4174,-6.3599,-6.3531,-6.2956,-6.2753,-6.4106,-6.3328,-6.2465,-6.2628,-6.2144,-6.1547,-6.1169,-6.1649,-6.1848,-6.1218,-6.2245,-6.2884,-6.2221,-6.2122,-6.2056,-6.1923,-6.1218,-6.0523,-5.986,-5.9131,-5.8138,-5.6779,-5.6017,-5.5251,-5.4523,-5.3798,-5.3069,-5.2407,-5.2307,-5.231,-5.231,-5.2904,-5.287,-5.2243,-5.297,-5.2937,-9.2024,-9.4441,-9.6014,-9.3587,-9.0473,-8.6199,-7.9499,-7.3885,-6.8669,-6.3526,-6.0106,-5.8026,-5.8017,-5.7544,-5.779,-5.9523,-6.1091,-6.4174,-7.0026,-7.1954,-7.4965,-8.0818,-8.1765,-8.2678,-8.4437,-8.464,-8.464,-8.464,-8.42,-8.3964,-8.3964,-8.437,-8.4403,-8.3964,-8.3659,-8.2712,-8.1088,-8.0479,-7.8991,-7.6589,-7.598,-7.4864,-7.3274,-7.2665,-7.2157,-7.1718,-7.1447,0.0,0.0,-7.1312,-7.0872,-7.0128,-6.9383,-6.8605,-6.7793,-6.6745,-6.6068,-6.5662,-6.5358,-6.4884,-6.4275,-6.37,-6.3396,-6.3396,-6.414,-6.4681,-6.5019,-6.5019,-6.5019,-6.4884,-6.414,-6.3396,-6.2854,-6.2854,-6.2618,-6.255,-6.3125,-6.2707,-6.2138,-6.2118,-6.1788,-6.1591,-6.1766,-6.2022,-6.2122,-6.1781,-6.2245,-6.2553,-6.2255,-6.1781,-6.1881,-6.2785,-6.1417,-6.0158,-5.9396,-5.8668,-5.7806,-5.6746,-5.6415,-5.5951,-5.5185,-5.4854,-5.4195,-5.3036,-5.3003,-5.3003,-5.3003,-5.3268,-5.35,-5.3665,-5.35,-5.3268,-8.9524,-9.2642,-9.4949,-9.3162,-8.9537,-8.4897,-7.9136,-7.3342,-6.7902,-6.3309,-6.0448,-5.8517,-5.7664,-5.74,-5.7126,0.0,0.0,-6.0689,-6.5493,-6.7557,-7.0906,-7.7164,-7.8483,-7.987,-8.2408,-8.3456,-8.3964,-8.3964,-8.349,-8.3186,-8.3186,-8.3693,-8.3727,-8.3186,-8.2746,-8.1663,-7.9904,-7.9194,-7.7705,-7.5371,-7.4931,-7.3916,-7.2394,-7.2191,-7.1785,-7.1312,-7.1312,-7.1312,0.0,-7.1075,-7.0669,-7.0094,-6.9113,-6.8402,-6.7793,-6.7083,-6.6474,-6.6,-6.5764,-6.5019,-6.4106,-6.3666,-6.3159,-6.2787,-6.3091,-6.37,-6.4275,-6.4275,-6.4106,-6.3835,-6.3328,-6.2787,-6.2381,-6.2381,-6.2381,-6.2448,-6.2685,-6.2398,-6.2098,-6.2018,-6.1721,-6.155,-6.1832,-6.2089,-6.2155,-6.1881,-6.2255,-6.2553,-6.2553,-6.1881,-6.198,-6.3481,-6.1649,-6.0125,-5.9595,-5.8866,-5.8038,-5.7077,-5.6812,-5.6382,-5.5615,-5.5582,-5.4986,-5.3765,-5.3732,-5.3827,-5.4063,-5.4063,-5.4328,-5.4787,-5.4258,-5.3964,-8.7301,-9.0152,-9.2405,-9.2172,-8.8535,-8.3883,-7.9642,-7.374,-6.8084,-6.3997,-6.1281,-5.9167,-5.7771,-5.6969,-5.6528,-5.6595,-5.7974,0.0,-6.4106,-6.7827,-7.0737,-7.2293,-7.4424,-7.6352,-7.7908,-8.0716,-8.2441,-8.2441,-8.2441,0.0,-8.2408,-8.2441,-8.2441,-8.2408,-8.0987,-7.987,-7.9126,-7.686,-7.5371,-7.4593,-7.3138,-7.2428,-7.2394,-7.165,-7.1312,-7.1312,0.0,0.0,0.0,-7.05,-7.0195,-7.0026,-6.8504,-6.7895,-6.7793,-6.7083,-6.6812,-6.6677,-6.5933,-6.5662,-6.5425,-6.3971,-6.3497,-6.3362,-6.2618,-6.2922,-6.3531,-6.3531,-6.299,-6.2415,-6.2415,-6.2381,-6.2381,-6.2381,-6.2381,-6.2584,-6.3328,-6.2922,-6.2465,-6.2729,-6.2211,-6.1547,-6.1202,-6.1715,-6.1956,-6.1218,-6.2345,-6.3315,-6.3315,-6.2652,-6.2752,-6.42,-6.2411,-6.1086,-6.1086,-6.0423,-5.9363,-5.7873,-5.7077,-5.6382,-5.5615,-5.5582,-5.5251,-5.449,-5.4494,-5.4821,-5.5582,-5.5582,-5.5582,-5.5582,-5.5582,-5.5185,-8.0758,-8.3001,-8.4682,-8.4028,-8.1887,-7.8771,-7.4682,-7.0987,-6.7402,-6.3925,-6.1716,-6.0286,-5.9844,-5.843,-5.7662,-5.8669,-5.853,0.0,-6.2618,-6.5425,-6.8605,-7.2665,-7.7367,-8.0479,-8.0953,-8.1393,-8.1866,-8.2374,-8.1934,-8.1629,-8.1629,-8.1156,-8.0885,-8.0885,-8.0445,-7.9092,-7.6792,-7.6048,-7.483,-7.3105,-7.2631,-7.2157,-7.165,-7.1413,-7.1312,0.0,0.0,0.0,0.0,-7.0297,-6.9586,-6.8571,-6.8098,-6.759,-6.7083,-6.6305,-6.6034,-6.5933,-6.5189,-6.4613,-6.414,-6.3666,-6.3159,-6.2685,-6.2448,-6.2922,-6.3531,-6.3531,-6.2956,-6.2381,-6.2381,-6.2381,-6.2381,-6.2381,-6.2381,-6.2448,-6.2685,-6.2398,-6.2138,-6.2051,-6.1755,-6.155,-6.1832,-6.2056,-6.2122,-6.1881,-6.2255,-6.2387,-6.1848,-6.2013,-6.2221,-6.2146,-6.1947,-6.1417,-6.0423,-5.9661,-5.8601,-5.7144,-5.6812,-5.6581,-5.6349,-5.6349,-5.6017,-5.5251,-5.5251,-5.535,-5.5582,-5.5582,-5.5582,-5.5582,-5.5582,-5.5185,-7.658,-7.8508,-7.9694,-7.9701,-7.7964,0.0,-7.2581,-6.943,-6.6351,-6.3744,-6.1933,-6.0738,-6.0412,-5.8652,-5.7754,-5.9236,-5.7878,-5.778,-6.1061,-6.3463,-6.6812,-7.2056,-7.6927,-8.0006,-8.031,-8.0648,-8.119,-8.1934,-8.1291,-8.075,-8.0479,-8.004,-7.9397,-7.8517,-7.8483,-7.7468,-7.5303,-7.4728,-7.3612,-7.1988,-7.1988,-7.1751,-7.1312,-7.1312,-7.1312,0.0,0.0,-7.0872,0.0,-6.9891,-6.9045,-6.7861,-6.759,-6.7218,-6.6711,-6.5967,-6.5696,-6.5527,-6.4546,-6.3903,-6.3463,-6.3193,-6.2753,-6.2381,-6.2381,-6.2719,-6.3091,-6.3091,-6.2753,-6.2381,-6.2381,-6.2381,-6.2381,-6.2381,-6.2381,-6.2381,-6.2381,-6.2268,-6.207,-6.175,-6.1588,-6.1591,-6.1766,-6.1748,-6.1748,-6.1748,-6.1748,-6.1715,-6.155,-6.1914,-6.2155,-6.1947,-6.208,-6.1757,-6.0523,-5.9496,-5.8634,-5.7972,-5.7409,-5.6978,-5.6713,-5.6945,-5.6779,-5.6051,-5.6017,-5.6017,-5.6017,-5.6017,-5.6017,-5.6017,-5.6017,-5.5786,0.0,-7.5885,-7.6664,-7.7873,-7.592,-7.3493,-7.2504,-6.8814,0.0,-6.3599,-6.1969,-6.0593,-5.9905,-5.8003,-5.7017,-5.8636,-5.657,-5.5987,-5.9607,-6.2347,-6.5865,-7.0939,-7.4153,-7.6217,-7.6893,-7.8889,-8.0412,-8.1156,-8.0479,-7.9769,-7.916,-7.9025,-7.7976,-7.5845,-7.5642,-7.5202,-7.4458,-7.3071,-7.2022,-7.1312,-7.1312,-7.1312,-7.1312,-7.1312,-7.1312,0.0,-7.1312,-7.0872,0.0,-6.9383,-6.8605,-6.776,-6.7083,-6.6779,-6.6643,-6.5899,-6.5561,-6.5324,-6.3937,-6.3429,-6.3328,-6.2618,-6.2381,-6.2381,-6.2381,-6.2381,-6.2381,-6.2381,-6.2381,-6.2381,-6.2381,-6.2381,-6.2381,-6.2381,-6.2381,-6.2381,-6.2381,-6.2381,-6.2263,-6.179,-6.1709,-6.1547,-6.1169,-6.1119,-6.1119,-6.1119,-6.1119,-6.1351,-6.2056,-6.2188,-6.2453,-6.3083,-6.2586,-6.1914,-6.1251,-5.9827,-5.9264,-5.9893,-5.8601,-5.7475,-5.6812,-5.7376,-5.7376,-5.6713,-5.668,-5.668,-5.668,-5.668,-5.668,-5.668,-5.668,-5.668,-7.0529,0.0,-6.9602,-6.9916,-6.9708,-6.9237,0.0,-6.6858,-6.5301,-6.4323,-6.2367,-6.0955,-6.139,-5.8716,-5.7223,-5.9369,-5.7808,-5.7171,-5.9742,-6.5019,-6.9925,-7.3409,-7.6487,-7.8145,-7.7773,-7.872,-7.9667,-8.0412,-7.9228,-7.8686,-7.9092,-7.8044,-7.7164,-7.6623,-7.4931,-7.3646,-7.2935,-7.2563,-7.2022,-7.1312,-7.1312,-7.1312,-7.1312,-7.1312,-7.1312,-7.1312,-7.1312,-7.0567,-6.935,-6.918,-6.8301,-6.7049,-6.688,-6.6474,-6.5865,-6.5121,-6.4512,-6.3903,-6.2956,-6.2651,-6.2618,-6.2448,-6.2381,-6.2381,-6.2381,-6.2381,-6.2381,-6.2381,-6.2381,-6.2381,-6.2381,-6.2381,-6.2381,-6.2381,-6.2381,-6.2381,-6.2381,-6.2381,-6.2263,-6.179,-6.1709,-6.1547,-6.1169,-6.1119,-6.1119,-6.1119,-6.1119,-6.1152,-6.1351,-6.1848,-6.2056,-6.1649,-6.1947,-6.2155,-6.1947,-6.0589,-5.9562,-5.9164,-5.8303,-5.7707,-5.7541,-5.7144,-5.6879,-5.668,-5.668,-5.668,-5.668,-5.668,-5.668,-5.668,-5.668,-5.668,-6.8877,-6.8471,-6.7838,-6.8059,-6.7774,-6.7329,-6.6895,-6.5591,-6.4359,-6.3925,-6.2223,-6.1064,-6.1833,-5.9287,-5.7715,-5.9682,-5.8496,-5.8423,-6.1704,-6.6779,-7.1176,-7.3781,-7.6454,-7.8348,0.0,-7.8754,-7.9025,-8.0107,-7.8822,-7.801,-7.8111,-7.6995,-7.6048,-7.5337,-7.3815,-7.2969,-7.2902,-7.2225,-7.1718,-7.1312,-7.1312,-7.1312,-7.1312,-7.1312,-7.1312,-7.1312,-7.1312,-7.0466,-6.9113,-6.9113,-6.8199,-6.6779,-6.644,-6.6034,-6.5561,-6.4478,-6.3869,-6.3396,-6.2651,-6.2381,-6.2381,-6.2381,-6.2381,-6.2381,-6.2381,-6.2381,-6.2381,-6.2381,-6.2381,-6.2381,-6.2381,-6.2381,-6.2381,-6.2381,-6.2381,-6.2381,-6.2381,-6.2651,-6.2668,-6.1857,-6.1977,-6.1989,-6.1235,-6.1119,-6.1119,-6.1119,-6.1119,-6.1119,-6.1119,-6.1715,-6.1914,-6.1185,-6.1748,-6.2089,-6.1715,-6.0953,-6.049,-6.039,-6.0026,-5.933,-5.8336,-5.8237,-5.774,-5.6713,-5.668,-5.668,-5.668,-5.668,-5.668,-5.668,-5.668,-5.668,-6.8567,-6.8836,-6.8917,-6.8862,-6.783,-6.675,-6.6496,-6.4758,-6.32,-6.32,-6.1933,-6.11,-6.2005,-5.9899,-5.8527,-6.0104,-5.946,-6.0283,-6.4681,-6.8233,-7.1142,-7.324,-7.5506,0.0,-7.9329,-7.8483,-7.8382,-7.9769,-7.8382,-7.7266,-7.6758,-7.5845,-7.4796,-7.351,-7.2766,-7.2699,-7.3308,-7.1988,-7.1312,-7.1312,-7.1312,-7.1312,-7.1312,-7.1312,-7.1244,-7.1142,0.0,0.0,-6.891,-6.8808,-6.7929,-6.6576,-6.5831,-6.5459,-6.5189,-6.3971,-6.3429,-6.326,-6.2618,-6.2381,-6.2381,-6.2381,-6.2381,-6.2381,-6.2381,-6.2381,-6.2381,-6.2381,-6.2381,-6.2381,-6.2381,-6.2381,-6.2381,-6.2381,-6.2381,-6.2381,-6.2381,-6.2888,-6.3039,-6.1964,-6.2353,-6.2456,-6.1343,-6.1185,-6.1285,-6.1285,-6.1185,-6.1152,-6.1251,-6.1715,-6.1815,-6.1318,-6.1715,-6.1815,-6.1318,-6.1285,-6.1583,-6.2321,-6.2056,-6.0887,-5.8833,-5.9231,-5.8601,-5.6713,-5.668,-5.668,-5.668,-5.668,-5.668,-5.668,-5.668,-5.668,-6.9091,-7.0367,-7.0647,-6.8007,-6.7055,-6.646,-6.5084,-6.3925,-6.32,-6.32,-6.1933,-6.1245,-6.273,-6.1116,-6.011,-6.1687,-6.2348,-6.4005,-6.7861,-6.9992,-7.1718,-7.3308,0.0,-7.6758,-7.642,-7.6792,-7.7401,-7.8247,-7.6352,-7.5337,-7.5845,-7.4559,-7.3713,-7.3477,-7.2766,-7.2462,-7.2563,-7.1751,-7.1312,-7.1312,-7.1312,-7.1312,-7.1312,-7.1312,-7.0973,-7.0364,0.0,-6.9485,-6.803,-6.7421,-6.6643,-6.5797,-6.5053,-6.4377,-6.3835,-6.3599,-6.3125,-6.255,-6.2415,-6.2381,-6.2381,-6.2381,-6.2381,-6.2381,-6.2381,-6.2381,-6.2381,-6.2381,-6.2381,-6.2381,-6.2381,-6.2381,-6.2381,-6.2381,-6.2381,-6.2381,-6.2381,-6.2482,-6.2437,-6.203,-6.2434,-6.2498,-6.1517,-6.1708,-6.2056,-6.2056,-6.1483,-6.1318,-6.1956,-6.1583,-6.145,-6.1989,-6.155,-6.1483,-6.2022,-6.2056,-6.2354,-6.3083,-6.1351,-5.9628,-5.8038,-5.7475,-5.7044,-5.668,-5.668,-5.668,-5.668,-5.668,-5.668,-5.668,-5.668,-5.668,-6.8041,-6.8444,-6.848,-6.8275,-6.8476,-6.8199,-6.617,-6.4722,-6.3852,-6.3852,-6.2911,-6.273,-6.4758,-6.3289,-6.2508,-6.4942,-6.6016,-6.7421,-6.9925,-7.121,-7.2293,0.0,0.0,-7.5845,-7.6284,-7.6284,-7.6555,-7.7333,-7.5676,-7.4762,-7.51,-7.3713,-7.2902,-7.2902,-7.2191,-7.1819,-7.1819,-7.1481,-7.1312,-7.1312,-7.1312,-7.1109,-7.0703,-7.0703,-7.0297,-6.962,0.0,-6.8944,-6.7827,-6.7117,-6.6373,-6.5561,-6.4444,-6.4038,-6.4072,-6.3666,-6.3024,-6.2381,-6.2381,-6.2381,-6.2381,-6.2381,-6.2381,-6.2381,-6.2381,-6.2381,-6.2381,-6.2381,-6.2381,-6.2381,-6.2381,-6.2381,-6.2381,-6.2381,-6.2381,-6.2381,-6.2381,-6.3024,-6.3423,-6.2744,-6.3497,-6.3869,-6.2757,-6.2798,-6.278,-6.2288,-6.1881,-6.1649,-6.1616,-6.1649,-6.1649,-6.1616,-6.2013,-6.208,-6.1616,-6.1947,-6.2685,-6.3769,-6.2543,-6.1119,-5.9628,-5.8502,-5.7508,-5.6713,-5.668,-5.668,-5.668,-5.668,-5.668,-5.668,-5.668,-5.668,-6.702,-6.6777,-6.6642,-6.8011,-6.8814,-6.9032,-6.8126,-6.6533,-6.541,-6.5953,-6.5446,-6.5337,-6.6822,-6.5607,-6.5294,-6.7993,-6.9107,-7.0195,-7.1853,-7.2563,-7.3172,-7.3916,-7.4525,-7.5337,-7.6487,-7.5912,-7.5709,-7.6318,-7.4965,-7.4086,-7.4086,-7.2868,-7.2157,-7.2157,-7.1616,-7.1312,-7.1312,-7.1312,-7.1312,-7.1312,-7.1142,-7.0737,-7.0195,-6.9992,-6.9519,-6.8808,-6.8808,-6.8368,-6.759,-6.6846,-6.6102,-6.529,-6.4005,-6.3734,-6.4005,-6.3463,-6.2888,-6.2381,-6.2381,-6.2381,-6.2381,-6.2381,-6.2381,-6.2381,-6.2381,-6.2381,-6.2381,-6.2381,-6.2381,-6.2381,-6.2381,-6.2381,-6.2381,-6.2381,-6.2381,-6.2381,-6.2381,-6.3429,-6.4133,-6.3431,-6.4428,-6.5035,-6.3842,-6.3791,-6.3596,-6.2818,-6.242,-6.2089,-6.1682,-6.1947,-6.1989,-6.1417,-6.2345,-6.251,-6.1218,-6.1914,-6.2808,-6.3736,-6.314,-6.2113,-6.0655,-5.933,-5.8038,-5.6713,-5.668,-5.668,-5.668,-5.668,-5.668,-5.668,-5.668,-5.668,-6.6992,-6.7491,-6.751,-6.617,-6.5881,-6.6858,-7.0372,-6.9394,-6.838,-7.0553,-7.0408,-6.9466,-6.8162,-6.7743,-6.8092,-6.9767,-7.0686,-7.1921,-7.4086,0.0,-7.4728,-7.5439,-7.5574,-7.5676,-7.5777,-7.51,-7.4728,-7.4762,-7.3409,-7.2563,-7.2563,-7.1819,-7.1379,-7.1379,-7.1345,-7.1312,-7.1312,-7.1312,-7.1312,-7.1312,-7.0601,-7.0229,-7.0161,-6.9485,-6.8741,-6.7996,-6.7996,-6.7557,-6.6846,-6.6068,-6.5324,-6.4613,-6.3835,-6.3125,-6.255,-6.2482,-6.2448,-6.2381,-6.2381,-6.2381,-6.2381,-6.2381,-6.2381,-6.2381,-6.2381,-6.2381,-6.2381,-6.2381,-6.2381,-6.2381,-6.2381,-6.2381,-6.2381,-6.2381,-6.2381,-6.2381,-6.2381,-6.3024,-6.3565,-6.3491,-6.451,-6.5077,-6.402,-6.4319,-6.4537,-6.4277,-6.3083,-6.2453,-6.3083,-6.2619,-6.2188,-6.2155,-6.2221,-6.1947,-6.1185,-6.2378,-6.2984,-6.2387,-6.1649,-6.0589,-5.9131,-5.8303,-5.7508,-5.6713,-5.668,-5.668,-5.668,-5.668,-5.668,-5.668,-5.668,-5.668,-6.4012,-6.4928,-6.5844,-6.6243,-6.6714,-6.7764,-7.0227,-7.0879,-7.1458,-7.3378,-7.3523,-7.285,-7.1204,-7.1231,-7.1691,-7.223,-7.2867,-7.3815,-7.51,-7.527,-7.5405,-7.5676,-7.5303,-7.5033,-7.5033,-7.4356,-7.3916,-7.3916,-7.2969,-7.2394,-7.2394,-7.1718,-7.1312,-7.1312,-7.1312,-7.1312,-7.1312,-7.1312,-7.1312,-7.1312,-7.0534,-6.9958,-6.9485,-6.8707,-6.7929,-6.7218,-6.7218,-6.6812,-6.6068,-6.5324,-6.458,-6.3903,-6.3632,-6.3057,-6.2448,-6.2922,-6.2787,-6.2381,-6.2381,-6.2381,-6.2381,-6.2381,-6.2381,-6.2381,-6.2381,-6.2381,-6.2381,-6.2381,-6.2719,-6.299,-6.2516,-6.2381,-6.2516,-6.299,-6.3091,-6.3091,-6.3091,-6.4038,-6.4715,-6.4275,-6.5309,-6.6095,-6.5614,-6.5158,-6.481,-6.4594,-6.3235,-6.2321,-6.2586,-6.2785,-6.2719,-6.2255,-6.2619,-6.2785,-6.2477,-6.2586,-6.2321,-6.155,-6.2543,-6.2477,-6.0986,-6.1086,-6.0423,-5.8767,-5.8303,-5.7839,-5.7376,-5.6912,-5.668,-5.668,-5.668,-5.668,-6.2585,-6.3275,-6.4359,-6.57,-6.7221,-6.8923,-7.1024,-7.2327,-7.3776,-7.613,-7.559,-7.4552,-7.3934,-7.2966,-7.2434,-7.3116,-7.384,-7.4525,-7.5236,-7.554,-7.5608,-7.5371,-7.4931,-7.4525,-7.4289,-7.3578,-7.3138,-7.3138,-7.2462,-7.2056,-7.2056,-7.1582,-7.1312,-7.1312,-7.1312,-7.1312,-7.1312,-7.1312,-7.121,-7.0939,-7.0195,-6.9586,-6.9045,-6.7793,-6.7049,-6.6779,-6.6305,-6.5967,-6.5628,-6.4884,-6.4174,-6.3497,-6.326,-6.2854,-6.2448,-6.2956,-6.2821,-6.2381,-6.2381,-6.2381,-6.2381,-6.2381,-6.2381,-6.2381,-6.2381,-6.2381,-6.2381,-6.2381,-6.2753,-6.3057,-6.2516,-6.255,-6.2821,-6.3091,-6.3159,-6.3226,-6.3463,-6.4478,-6.5256,-6.4986,-6.5967,-6.6728,-6.655,-6.5856,-6.5206,-6.4757,-6.3643,-6.2719,-6.2288,-6.2851,-6.305,-6.2288,-6.2884,-6.3216,-6.2984,-6.2719,-6.2212,-6.1483,-6.2842,-6.3183,-6.1881,-6.208,-6.1649,-6.039,-5.9396,-5.8767,-5.8502,-5.774,-5.7276,-5.7044,-5.7044,-5.6912,-6.3375,-6.3303,-6.3418,-6.4215,-6.6822,-7.0046,-7.3197,-7.3921,-7.508,-7.9064,-7.6746,-7.4464,-7.5985,-7.2335,-6.9823,-7.21,-7.3069,-7.3747,-7.4492,-7.5236,-7.5405,-7.4695,-7.4593,-7.4289,-7.3544,-7.28,-7.2394,-7.2394,-7.1718,-7.1312,-7.1312,-7.1312,-7.1312,-7.1312,-7.1312,-7.1312,-7.1312,-7.1312,-7.0939,-7.0195,-6.9451,-6.9079,-6.9011,-6.6711,-6.6102,-6.6711,-6.5222,-6.5019,-6.5595,-6.4884,-6.414,-6.3429,-6.2685,-6.2381,-6.2381,-6.2381,-6.2381,-6.2381,-6.2381,-6.2381,-6.2381,-6.2381,-6.2381,-6.2381,-6.2381,-6.2381,-6.2381,-6.2381,-6.2381,-6.2415,-6.2415,-6.2956,-6.3328,-6.2584,-6.2415,-6.2618,-6.3362,-6.4106,-6.4816,-6.5561,-6.6305,-6.6728,-6.655,-6.6302,-6.5784,-6.4824,-6.4474,-6.3802,-6.242,-6.2851,-6.3017,-6.2288,-6.2884,-6.3017,-6.2288,-6.2884,-6.2984,-6.2255,-6.2221,-6.1848,-6.1152,-6.0423,-6.039,-6.1119,-5.9661,-5.9264,-6.0026,-5.9264,-5.8502,-5.7806,-5.7806,-5.7376,-6.1141,-6.284,-6.4939,-6.5192,-6.8488,-7.2219,-7.4283,-7.4721,-7.5406,-7.7724,-7.8159,-7.776,-7.6529,-7.4579,-7.3194,-7.3295,-7.386,-7.4187,-7.3849,-7.4458,-7.4661,-7.3916,-7.3375,-7.2969,-7.2732,-7.2056,-7.165,-7.165,-7.1447,-7.1312,-7.1312,-7.1312,-7.1312,-7.1312,-7.1312,-7.1312,-7.1312,-7.1312,-7.0939,-7.0195,-6.9451,-6.8538,-6.7455,-6.6237,-6.5527,-6.5222,-6.4783,-6.4444,-6.4106,-6.3362,-6.2922,-6.2685,-6.2482,-6.2381,-6.2381,-6.2381,-6.2381,-6.2381,-6.2381,-6.2381,-6.2381,-6.2381,-6.2381,-6.2381,-6.2381,-6.2381,-6.2381,-6.2381,-6.2753,-6.3193,-6.3193,-6.3734,-6.4241,-6.4005,-6.4343,-6.4783,-6.4986,-6.5628,-6.6068,-6.5764,-6.6305,-6.677,-6.6728,-6.5951,-6.5383,-6.5641,-6.4494,-6.3438,-6.305,-6.2719,-6.2652,-6.2951,-6.3183,-6.3017,-6.2288,-6.242,-6.2453,-6.2221,-6.1682,-6.155,-6.1848,-6.2146,-6.2411,-6.261,-6.1185,-6.0556,-6.0788,-5.9496,-5.8502,-5.7806,-5.7806,-5.7376,-6.1715,-6.4054,-6.6714,-6.7329,-7.0625,-7.4102,-7.5696,-7.6818,-7.805,-7.9969,-7.9861,-7.9173,-7.8376,-7.5899,-7.3935,-7.3756,-7.3731,-7.3578,-7.3105,-7.368,-7.3883,-7.3138,-7.2665,-7.2157,-7.1582,-7.1379,-7.1176,-7.0906,-7.1142,-7.1312,-7.1312,-7.1312,-7.1312,-7.1312,-7.1312,-7.1176,-7.0872,-7.0872,-7.0331,-6.9282,-6.8842,-6.7692,-6.5933,-6.5459,-6.5019,-6.458,-6.4309,-6.3734,-6.3024,-6.2584,-6.2381,-6.2381,-6.2381,-6.2381,-6.2381,-6.2381,-6.2381,-6.2381,-6.2381,-6.2381,-6.2381,-6.2381,-6.2381,-6.2381,-6.2381,-6.2381,-6.2381,-6.2381,-6.2719,-6.3125,-6.3429,-6.4072,-6.4613,-6.4613,-6.4952,-6.5324,-6.5628,-6.6034,-6.6237,-6.5764,-6.6305,-6.6711,-6.6406,-6.5859,-6.5493,-6.566,-6.4038,-6.2984,-6.3282,-6.2378,-6.1914,-6.2378,-6.2676,-6.2685,-6.2255,-6.2221,-6.2221,-6.2221,-6.1748,-6.1583,-6.1748,-6.2179,-6.2676,-6.3315,-6.1848,-6.1251,-6.1516,-6.0357,-5.9396,-5.8668,-5.8668,-5.8104,-6.3909,-6.5989,-6.8235,-7.0118,-7.3088,-7.5985,-7.7579,-7.9571,-8.1672,-8.3627,-8.1382,-7.939,-8.0585,-7.6469,-7.3093,-7.3694,-7.3086,-7.2462,-7.2326,-7.2868,-7.3003,-7.2293,-7.2124,-7.1582,-7.0229,-7.0703,-7.0872,-7.0229,-7.0838,-7.1244,-7.1312,-7.1312,-7.1278,-7.121,-7.121,-7.0838,-7.0094,-7.0094,-6.935,-6.7895,-6.7895,-6.6745,-6.4613,-6.4613,-6.4546,-6.4377,-6.37,-6.3024,-6.2381,-6.2381,-6.2381,-6.2381,-6.2381,-6.2381,-6.2381,-6.2381,-6.2381,-6.2381,-6.2381,-6.2381,-6.2381,-6.2381,-6.2381,-6.2381,-6.2381,-6.2381,-6.2381,-6.2381,-6.2381,-6.2584,-6.3396,-6.4106,-6.4647,-6.4783,-6.4816,-6.4986,-6.5662,-6.573,-6.5696,-6.5696,-6.6237,-6.6508,-6.5797,-6.5892,-6.5861,-6.5139,-6.3539,-6.2652,-6.3315,-6.2113,-6.1218,-6.1218,-6.1715,-6.2122,-6.2122,-6.2122,-6.2122,-6.2122,-6.2188,-6.1881,-6.1218,-6.1218,-6.1815,-6.3183,-6.1815,-6.145,-6.2221,-6.145,-6.0721,-5.9993,-5.9993,-5.9264,-6.3185,-6.4843,-6.7112,-7.1205,-7.5551,-7.9281,-8.0875,-8.1165,-8.073,-7.9318,-8.0368,-8.0839,-7.8666,-7.6682,-7.5028,-7.3975,-7.3499,-7.2868,-7.1718,-7.1684,-7.1515,-7.0737,-7.0161,-6.9688,-6.9383,-6.9485,-6.9755,-7.0161,-7.0331,-7.0703,-7.1278,-7.1312,-7.1041,-7.0432,-7.0432,-7.006,-6.935,-6.935,-6.8842,-6.7895,-6.7895,-6.6745,-6.4613,-6.4613,-6.3971,-6.2854,-6.2719,-6.255,-6.2381,-6.2381,-6.2381,-6.2381,-6.2381,-6.2381,-6.2381,-6.2381,-6.2381,-6.2381,-6.2381,-6.2381,-6.2381,-6.2381,-6.2381,-6.2381,-6.2381,-6.2381,-6.2381,-6.2381,-6.2381,-6.2685,-6.4038,-6.4478,-6.4884,-6.6068,-6.6339,-6.6373,-6.6542,-6.6102,-6.5696,-6.5696,-6.5831,-6.5865,-6.573,-6.5892,-6.5898,-6.5371,-6.4476,-6.3935,-6.4133,-6.2884,-6.1947,-6.1947,-6.1583,-6.1351,-6.1351,-6.1351,-6.1351,-6.1351,-6.1848,-6.2155,-6.1989,-6.1947,-6.2122,-6.2453,-6.155,-6.145,-6.2221,-6.145,-6.0721,-5.9993,-5.9993,-5.9529,-6.3375,-6.583,-6.9032,-7.3812,-7.7181,-7.9643,-8.0875,-8.1128,-8.0658,-7.8992,-7.968,-8.0042,-7.8376,-7.7053,-7.5832,-7.4629,-7.365,-7.2624,-7.1498,-7.1002,-7.05,-6.9755,-6.9316,-6.8944,-6.8571,-6.8876,-6.9113,-6.9079,-6.9755,-7.0195,-7.0263,-7.0601,-7.0432,-6.9688,-6.9654,-6.9282,-6.8538,-6.8199,-6.7624,-6.6846,-6.6474,-6.5527,-6.4072,-6.37,-6.3125,-6.2381,-6.2381,-6.2381,-6.2381,-6.2381,-6.2381,-6.2381,-6.2381,-6.2381,-6.2381,-6.2381,-6.2381,-6.2381,-6.2381,-6.2381,-6.2381,-6.2381,-6.2381,-6.2381,-6.2381,-6.2381,-6.2381,-6.2381,-6.2381,-6.2651,-6.3802,-6.4343,-6.4884,-6.6,-6.6542,-6.6812,-6.6812,-6.6508,-6.6102,-6.5764,-6.5967,-6.6102,-6.5764,-6.5892,-6.5965,-6.5647,-6.4884,-6.4365,-6.4365,-6.3448,-6.2619,-6.2255,-6.1848,-6.1483,-6.1152,-6.1119,-6.1119,-6.1119,-6.2113,-6.2586,-6.2221,-6.2884,-6.2951,-6.2221,-6.1483,-6.1285,-6.1649,-6.1285,-6.092,-6.0523,-6.0523,-6.0125,-6.3337,-6.7221,-7.1675,-7.6348,-7.8014,-7.8702,-7.9499,-8.0114,-8.0295,-7.9607,-7.9064,-7.8666,-7.8521,-7.7164,-7.5868,-7.5189,-7.3536,-7.2084,-7.1505,-7.0465,-6.9586,-6.8977,-6.8774,-6.8436,-6.776,-6.8301,-6.847,-6.7929,-6.9079,-6.9586,-6.9113,-6.9688,-6.9586,-6.8741,-6.8842,-6.8436,-6.7523,-6.7049,-6.644,-6.5662,-6.4681,-6.3903,-6.3294,-6.2381,-6.2144,-6.2381,-6.2245,-6.2279,-6.2381,-6.2381,-6.2381,-6.2381,-6.2381,-6.2381,-6.2381,-6.2381,-6.2381,-6.2381,-6.2381,-6.2381,-6.2381,-6.2381,-6.2381,-6.2381,-6.2381,-6.2381,-6.2381,-6.2381,-6.2381,-6.2584,-6.3463,-6.414,-6.4816,-6.5662,-6.6373,-6.6812,-6.6812,-6.6711,-6.644,-6.5797,-6.6203,-6.6474,-6.5925,-6.5993,-6.6009,-6.5824,-6.5105,-6.4564,-6.4564,-6.3935,-6.3216,-6.2487,-6.2288,-6.1881,-6.1152,-6.1119,-6.1053,-6.092,-6.2278,-6.2851,-6.2255,-6.3514,-6.3647,-6.242,-6.1649,-6.1218,-6.1119,-6.1119,-6.1119,-6.1119,-6.1119,-6.0788,-6.1525,-6.675,-7.2327,-7.6456,-7.7579,-7.7869,-7.8666,-7.8412,-7.7941,0.0,-7.8303,-7.8484,-7.7796,-7.6338,-7.5225,-7.5118,-7.312,-7.1539,-7.1436,-6.9543,-6.8166,-6.8064,-6.7523,-6.7083,-6.6981,-6.7049,-6.7354,-6.7861,-6.8098,-6.847,-6.9079,-6.918,-6.8605,-6.7151,-6.7726,-6.7387,-6.6,-6.6542,-6.644,-6.5662,-6.3666,-6.2618,-6.2482,-6.1061,-6.1129,-6.2347,-6.1704,-6.1806,-6.2381,-6.2381,-6.2381,-6.2381,-6.2381,-6.2381,-6.2381,-6.2381,-6.2381,-6.2381,-6.2381,-6.2381,-6.2381,-6.2381,-6.2381,-6.2381,-6.2381,-6.2381,-6.2381,-6.2381,-6.2381,-6.2719,-6.4106,-6.4546,-6.4952,-6.6339,-6.6745,-6.6812,-6.6812,-6.6305,-6.5797,-6.5696,-6.5764,-6.5959,-6.6356,-6.6235,-6.6009,-6.5824,-6.5492,-6.5293,-6.5293,-6.4664,-6.3935,-6.3249,-6.2586,-6.1881,-6.1152,-6.1119,-6.0854,-6.0191,-6.1516,-6.2321,-6.2221,-6.3017,-6.3382,-6.3183,-6.2453,-6.1715,-6.1119,-6.1119,-6.1119,-6.1119,-6.1119,-6.1053,-6.2911,-6.704,-7.106,0.0,-7.6167,-7.6927,-7.7253,-7.7072,-7.6818,-7.6818,-7.7108,-7.7253,-7.6891,-7.6254,-7.5616,-7.5184,-7.3421,-7.1852,-7.098,-6.9159,-6.776,-6.7354,-6.7015,-6.6812,-6.6812,-6.6812,-6.6948,-6.7252,-6.7658,-6.7861,-6.7827,-6.7827,-6.732,-6.6203,-6.6102,-6.573,-6.5087,-6.5019,-6.458,-6.3835,-6.2448,-6.1772,-6.1738,-6.0622,-6.0723,-6.1772,-6.1434,-6.1704,-6.2381,-6.2381,-6.2381,-6.2381,-6.2381,-6.2381,-6.2381,-6.2381,-6.2381,-6.2381,-6.2381,-6.2381,-6.2381,-6.2381,-6.2381,-6.2381,-6.2381,-6.2381,-6.2381,-6.2381,-6.2381,-6.2618,-6.3734,-6.4309,-6.4884,-6.5933,-6.6508,-6.6812,-6.6812,-6.6542,-6.6305,-6.6305,-6.6305,-6.6398,-6.6652,-6.6473,-6.6259,-6.5965,-6.578,-6.5559,-6.5425,-6.516,-6.4531,-6.3448,-6.3017,-6.2345,-6.1218,-6.1119,-6.0953,-6.0655,-6.1583,-6.2387,-6.2818,-6.3547,-6.3945,-6.3945,-6.2818,-6.1815,-6.1119,-6.1119,-6.1119,-6.1119,-6.1119,-6.1119,-6.3418,0.0,-6.8307,-7.2291,-7.4175,-7.5297,0.0,0.0,-7.6058,0.0,-7.6275,-7.6239,-7.6022,-7.6167,-7.6022,-7.5261,-7.3582,-7.1942,-7.0572,-6.8819,-6.7421,-6.688,-6.6812,-6.6812,-6.6812,-6.6812,-6.6745,-6.6542,-6.7218,-6.7218,-6.6305,-6.644,-6.6102,-6.5155,-6.4783,-6.4512,-6.4343,-6.3768,-6.3125,-6.2381,-6.1434,-6.0892,-6.0723,-6.008,-6.025,-6.1028,-6.1231,-6.1704,-6.2381,-6.2381,-6.2381,-6.2381,-6.2381,-6.2381,-6.2381,-6.2381,-6.2381,-6.2381,-6.2381,-6.2381,-6.2381,-6.2381,-6.2381,-6.2381,-6.2381,-6.2381,-6.2415,-6.2618,-6.2685,-6.2888,-6.3835,-6.4478,-6.5053,-6.5797,-6.6406,-6.6812,-6.6812,-6.6812,-6.6812,-6.6812,-6.6812,-6.6812,-6.6812,-6.6635,-6.6421,-6.6139,-6.5955,-6.5692,-6.5425,-6.526,-6.4664,-6.3405,-6.315,-6.2477,-6.1218,-6.1119,-6.1119,-6.1119,-6.1616,-6.2354,-6.3282,-6.3802,-6.42,-6.4365,-6.3348,-6.2278,-6.1384,-6.1185,-6.1119,-6.1119,-6.1119,-6.1119,0.0,-6.2268,0.0,-7.0082,-7.1712,-7.2545,0.0,0.0,-7.5406,-7.613,-7.6275,-7.6058,-7.5334,-7.5804,-7.6022,-7.5261,-7.3155,-7.1347,-7.0539,-6.8372,-6.6846,-6.6812,-6.6812,-6.6812,-6.6812,-6.6812,-6.6508,-6.5797,-6.644,-6.6237,-6.4783,-6.5358,-6.5087,-6.3666,-6.4275,-6.4275,-6.3565,-6.3531,-6.3125,-6.2381,-6.0892,-5.981,-5.9133,-5.9099,-5.9471,-6.0216,-6.096,-6.1704,-6.2381,-6.2381,-6.2381,-6.2381,-6.2381,-6.2381,-6.2381,-6.2381,-6.2381,-6.2381,-6.2381,-6.2381,-6.2381,-6.2381,-6.2381,-6.2381,-6.2381,-6.2381,-6.255,-6.326,-6.3463,-6.3768,-6.5189,-6.5595,-6.5831,-6.6576,-6.6779,-6.6812,-6.6812,-6.6812,-6.6812,-6.6812,-6.6812,-6.6812,-6.6812,-6.6635,-6.6421,-6.6139,-6.5955,-6.5692,-6.5425,-6.4796,-6.41,-6.3415,-6.2685,-6.1914,-6.1185,-6.1119,-6.1119,-6.1119,-6.1152,-6.1781,-6.3249,-6.3348,-6.367,-6.4365,-6.4299,-6.3614,-6.2155,-6.145,-6.1119,-6.1119,-6.1119,-6.1119,0.0,0.0,0.0,-6.4722,-6.7728,-7.0046,-7.0191,-7.1965,-7.3486,-7.3269,-7.403,-7.4682,-7.4359,-7.5406,-7.5696,-7.3885,-7.2442,-7.1136,-6.9834,-6.7988,-6.6812,-6.6812,-6.6812,-6.6609,-6.6136,-6.6542,-6.6305,-6.5087,-6.5662,-6.5662,-6.4647,-6.441,-6.4072,-6.3531,-6.3294,-6.2821,-6.211,-6.1603,-6.1197,-6.0892,-5.9877,-5.9505,-5.9708,-5.9235,-5.9404,-6.0114,-6.0419,-6.1231,-6.2381,-6.2381,-6.211,-6.1738,-6.2212,-6.211,-6.1738,-6.2212,-6.2381,-6.2381,-6.2381,-6.2381,-6.2381,-6.2381,-6.2381,-6.2381,-6.2381,-6.2719,-6.3159,-6.3429,-6.3869,-6.4444,-6.5425,-6.5696,-6.5865,-6.6643,-6.6812,-6.6812,-6.6812,-6.6812,-6.6812,-6.6812,-6.6812,-6.6812,-6.6812,-6.6728,-6.6558,-6.6139,-6.6052,-6.5834,-6.547,-6.4796,-6.4067,-6.3415,-6.2652,-6.1881,-6.1152,-6.1119,-6.1119,-6.1119,-6.1119,-6.155,-6.2553,-6.3083,-6.368,-6.4365,-6.4365,-6.3902,-6.2917,-6.261,-6.2245,-6.1781,-6.1781,-6.155,-5.7224,-5.8202,0.0,0.0,0.0,-6.6315,-6.7692,0.0,-7.1277,-7.1784,-7.2979,-7.3993,-7.425,-7.5189,-7.5297,-7.3414,-7.2689,-7.1717,-6.9871,-6.8438,-6.7384,-6.6888,-6.6812,-6.6508,-6.5764,-6.6136,-6.5831,-6.4343,-6.4918,0.0,-6.3903,-6.3632,-6.3396,-6.3159,-6.2415,-6.1806,-6.1298,-6.0486,-5.9979,-5.9742,-5.9505,-5.937,-5.937,-5.937,-5.9505,-5.9742,-5.9979,-6.0825,-6.2009,-6.1738,-6.1637,-6.167,-6.1941,-6.1873,-6.1738,-6.2212,-6.2381,-6.2381,-6.2381,-6.2381,-6.2381,-6.2381,-6.2381,-6.2448,-6.2685,-6.3125,-6.3632,-6.4106,-6.458,-6.5087,-6.5561,-6.5696,-6.5865,-6.6643,-6.6812,-6.6812,-6.6812,-6.6812,-6.6812,-6.6812,-6.6812,-6.6812,-6.6812,-6.6728,-6.6558,-6.6139,-6.6052,-6.5767,-6.5138,-6.4465,-6.3736,-6.3017,-6.2245,-6.1616,-6.1152,-6.1119,-6.1119,-6.1119,-6.1119,-6.155,-6.2553,-6.305,-6.3736,-6.4697,-6.473,-6.4498,-6.4001,-6.3504,-6.3083,-6.2586,-6.2321,-6.1781,0.0,0.0,0.0,0.0,0.0,0.0,-6.838,0.0,-6.8706,-7.1857,-7.316,-7.3993,-7.4866,-7.5047,-7.483,-7.4033,-7.3895,-7.3082,-7.0719,-6.971,-6.8635,-6.6964,-6.6812,-6.6508,-6.5764,-6.5696,-6.5087,-6.3632,-6.4174,-6.3937,-6.2482,-6.3091,-6.3125,-6.2381,-6.1637,-6.1264,-6.1231,-6.0452,-5.9674,-5.8998,-5.9708,-5.9302,-5.7983,-5.937,-5.9674,-5.9066,-5.9742,-6.0486,-6.1129,-6.0419,-6.096,-6.2212,-6.1569,-6.1704,-6.2313,-6.2381,-6.2381,-6.2381,-6.2381,-6.2381,-6.2381,-6.2381,-6.2381,-6.2516,-6.3294,-6.3531,-6.3835,-6.5256,-6.5696,-6.573,-6.573,-6.573,-6.5899,-6.6643,-6.6812,-6.6812,-6.6812,-6.6812,-6.6812,-6.6812,-6.6812,-6.6812,-6.6812,-6.6635,-6.6421,-6.6139,-6.5922,-6.5426,-6.4509,-6.3746,-6.3017,-6.2288,-6.155,-6.1119,-6.1119,-6.1119,-6.1119,-6.1119,-6.1119,-6.1748,-6.3216,-6.3315,-6.3935,-6.5326,-6.5392,-6.5425,-6.5425,-6.4034,-6.3348,-6.3315,-6.2553,-6.1748,-5.5305,0.0,0.0,0.0,0.0,0.0,0.0,0.0,0.0,-6.6895,-6.8669,-7.0408,-7.2907,-7.4319,-7.5011,-7.4793,-7.4254,-7.3082,-7.0719,-6.971,-6.8635,-6.6964,-6.6812,-6.6508,-6.5764,-6.5696,-6.5087,0.0,-6.37,-6.3396,-6.2448,-6.2584,-6.2381,-6.1637,-6.0858,-6.0182,-5.9641,-5.8896,-5.8389,-5.8186,-5.8389,-5.8558,-5.8693,-5.8558,-5.8693,-5.8998,-5.866,-5.8626,-5.8896,-5.9742,-6.0047,-6.0047,-6.096,-6.1061,-6.0858,-6.1975,-6.2381,-6.2381,-6.2381,-6.2381,-6.2381,-6.2381,-6.2381,-6.2516,-6.3294,-6.3869,-6.4377,-6.4783,-6.5662,-6.6508,-6.6508,-6.6508,-6.6542,-6.6779,-6.6812,-6.6812,-6.6812,-6.6812,-6.6812,-6.6812,-6.6812,-6.6812,-6.6812,-6.6635,-6.6421,-6.6139,-6.5487,-6.487,-6.4442,-6.3315,-6.2453,-6.2221,-6.155,-6.1119,-6.1119,-6.1119,-6.1119,-6.1119,-6.1583,-6.1815,-6.1715,-6.3239,-6.4001,-6.3868,-6.4895,-6.5425,-6.5425,-6.5028,-6.4299,-6.3282,-6.198,-6.1285,-5.5486,-5.4907,-5.4399,-5.4436,0.0,0.0,-5.6717,-5.8202,-6.0231,0.0,-6.512,-6.6858,-6.972,-7.1024,-7.1965,-7.2979,-7.3014,-7.2543,-7.155,-7.0719,-6.9614,-6.7961,-6.7489,-6.7025,-6.6245,-6.5595,-6.4749,-6.3599,-6.3226,-6.2854,-6.2415,-6.211,-6.1738,-6.1332,-6.0216,-5.9438,-5.9032,-5.8254,-5.7881,-5.7881,-5.822,-5.8423,-5.8558,-5.8423,-5.8423,-5.849,-5.7746,-5.7442,-5.7509,-5.8355,-5.8829,-5.9133,-6.0317,-6.0723,-6.0757,-6.1941,-6.2381,-6.2381,-6.2381,-6.2381,-6.2381,-6.2381,-6.2381,-6.2516,-6.3294,-6.3802,-6.4208,-6.4512,-6.5222,-6.6034,-6.6643,-6.6576,-6.644,-6.6745,-6.6812,-6.6812,-6.6812,-6.6812,-6.6812,-6.6812,-6.6812,-6.677,-6.6686,-6.6473,-6.6259,-6.6042,-6.519,-6.4407,-6.4011,-6.2951,-6.2089,-6.1748,-6.1351,-6.1119,-6.1119,-6.1119,-6.1119,-6.1119,-6.1483,-6.1682,-6.155,-6.3073,-6.3868,-6.3779,-6.4829,-6.5425,-6.5425,-6.5425,-6.4697,-6.3315,-6.2411,-6.1682,-5.5993,-5.4979,-5.4399,-5.6319,-5.4834,0.0,-5.7116,-5.7406,-5.784,-6.0964,-6.2186,-6.3418,-6.5953,-6.6533,-6.7329,-6.9394,-7.0661,-7.1705,-7.2545,-7.2119,-7.1089,-6.9317,-6.8532,-6.7793,-6.6998,-6.5527,-6.4343,-6.3666,-6.2854,-6.2381,-6.2381,-6.1704,-6.1264,-6.1163,-5.9776,-5.893,-5.8761,-5.8118,-5.778,-5.778,-5.8457,-5.8457,-5.7915,-5.866,-5.8592,-5.7848,-5.7205,-5.6833,-5.6697,-5.6765,-5.7577,-5.8863,-5.9742,-6.0554,-6.1264,-6.2178,-6.2448,-6.2415,-6.2482,-6.2448,-6.2381,-6.2381,-6.2381,-6.2516,-6.3294,-6.3531,-6.3666,-6.4478,-6.4647,-6.4952,-6.644,-6.6305,-6.5967,-6.6542,-6.6677,-6.6677,-6.6576,-6.6576,-6.6609,-6.6677,-6.6745,-6.6728,-6.655,-6.6192,-6.5908,-6.569,-6.4806,-6.3945,-6.3282,-6.2553,-6.1815,-6.1185,-6.1119,-6.1119,-6.1119,-6.1119,-6.1119,-6.1119,-6.1185,-6.1483,-6.2056,-6.2951,-6.367,-6.4266,-6.5028,-6.5425,-6.5425,-6.5326,-6.463,-6.3448,-6.3348,-6.2543,-5.5993,-5.5776,-5.5341,-5.4581,-5.4834,0.0,-5.4725,-5.5015,-5.6066,0.0,-5.9216,-6.0267,-6.3345,-6.4939,-6.5772,-6.5591,-6.8416,-7.0911,-7.1723,-7.2262,-7.1691,-6.9387,-6.902,-6.8629,-6.7777,-6.5797,-6.4546,-6.441,-6.3159,-6.2381,-6.2381,-6.1704,-6.0994,-6.0351,-5.9471,-5.8457,-5.7239,-5.7103,-5.7002,-5.7036,-5.7171,-5.7476,-5.7915,-5.866,-5.8592,-5.7881,-5.7746,-5.7002,-5.5987,-5.6562,-5.6968,-5.7408,-5.9336,-6.0216,-6.0588,-6.2584,-6.2922,-6.2482,-6.3091,-6.2888,-6.2381,-6.2381,-6.2381,-6.2516,-6.3294,-6.3531,-6.3802,-6.5121,-6.5053,-6.4952,-6.644,-6.6711,-6.6474,-6.6,-6.5899,-6.573,-6.5155,-6.5019,-6.5189,-6.5797,-6.6406,-6.6728,-6.655,-6.5789,-6.5139,-6.4924,-6.361,-6.2586,-6.2453,-6.1748,-6.1251,-6.1119,-6.1119,-6.1119,-6.1119,-6.1119,-6.1119,-6.1119,-6.1649,-6.1748,-6.1318,-6.314,-6.3935,-6.3547,-6.4763,-6.5425,-6.5425,-6.4862,-6.4432,-6.4133,-6.3614,-6.2851,-5.6497,-5.6082,-5.5533,-5.5449,-5.516,0.0,0.0,-5.4001,-5.4146,-5.574,-5.574,-5.6066,-5.8094,0.0,-6.052,-6.1281,-6.378,-6.6162,-6.7775,-7.0404,-7.1834,-7.0954,-6.954,-6.8582,-6.8497,-6.6136,-6.4275,-6.3565,-6.2821,-6.2381,-6.2381,-6.1332,-6.052,-6.0114,-5.9032,-5.7915,-5.6799,-5.6799,-5.663,-5.6258,-5.663,-5.7171,-5.7915,-5.8287,-5.8254,-5.7848,-5.7137,-5.6393,-5.5715,-5.6122,-5.6461,-5.7036,-5.9235,-6.0114,-6.0385,-6.2685,-6.3024,-6.2516,-6.326,-6.3024,-6.2381,-6.2381,-6.2381,-6.2448,-6.2854,-6.2956,-6.326,-6.4749,-6.4884,-6.485,-6.5967,-6.6542,-6.6609,-6.5865,-6.5967,-6.6034,-6.529,-6.5155,-6.5155,-6.5155,-6.5459,-6.5883,-6.6415,-6.5783,-6.5067,-6.4767,-6.3663,-6.2704,-6.2255,-6.155,-6.1119,-6.1119,-6.1119,-6.1119,-6.1119,-6.1119,-6.1119,-6.1119,-6.145,-6.1483,-6.1119,-6.251,-6.3481,-6.3846,-6.4862,-6.5425,-6.5425,-6.5061,-6.473,-6.4365,-6.4001,-6.3438,-5.7011,-5.6438,-5.5801,-5.6642,-5.5523,-5.4287,0.0,0.0,0.0,0.0,0.0,0.0,0.0,0.0,0.0,0.0,0.0,0.0,0.0,-6.7257,0.0,-7.1115,-6.8815,-6.7519,-6.8549,-6.605,-6.3835,-6.2482,-6.2245,-6.2245,-6.2381,-6.0926,-6.0114,-6.0114,-5.866,-5.7476,-5.6596,-5.6596,-5.6224,-5.5513,-5.6258,-5.69,-5.7476,-5.7746,-5.7746,-5.7408,-5.6224,-5.5649,-5.5513,-5.5649,-5.6055,-5.6799,-5.9032,-5.9979,-6.0351,-6.2516,-6.2922,-6.2516,-6.326,-6.3024,-6.2381,-6.2381,-6.2381,-6.2381,-6.2381,-6.2482,-6.2888,-6.4208,-6.4613,-6.4783,-6.5493,-6.6136,-6.6373,-6.5493,-6.5831,-6.6136,-6.5256,-6.5053,-6.4918,-6.4478,-6.4275,-6.4633,-6.6044,-6.5564,-6.49,-6.4533,-6.3748,-6.2898,-6.2089,-6.145,-6.1119,-6.1119,-6.1119,-6.1119,-6.1119,-6.1119,-6.1119,-6.1119,-6.1119,-6.1152,-6.1318,-6.2278,-6.3405,-6.4763,-6.5359,-6.5624,-6.5624,-6.5492,-6.5127,-6.4564,-6.4432,-6.4067,-5.6962,-5.7459,-5.7012,-5.5836,-5.586,-5.561,-5.344,0.0,-5.3605,-5.2785,0.0,0.0,0.0,0.0,0.0,0.0,0.0,0.0,-6.2041,0.0,0.0,-6.6037,-6.4941,-6.4812,-6.675,-6.4948,-6.3294,-6.2448,-6.1772,-6.1704,-6.2347,-6.0926,-6.0114,-6.0114,-5.866,-5.7239,-5.5817,-5.5817,-5.5446,-5.4735,-5.548,-5.5886,-5.6021,-5.7306,-5.7171,-5.5953,-5.5749,-5.5344,-5.4769,-5.5446,-5.5749,-5.6055,-5.8287,-5.9539,-6.0283,-6.1907,-6.2448,-6.2516,-6.326,-6.3024,-6.2381,-6.2381,-6.2381,-6.2381,-6.2381,-6.2854,-6.3565,-6.4377,-6.4613,-6.4783,-6.5493,-6.5764,-6.5459,-6.4106,-6.4309,-6.4478,-6.3057,-6.2753,-6.2922,-6.3531,-6.3091,-6.3248,-6.5202,-6.4353,-6.3482,-6.3733,-6.2549,-6.1534,-6.126,-6.1152,-6.1119,-6.1119,-6.1119,-6.1119,-6.1119,-6.1119,-6.1119,-6.1119,-6.1119,-6.1384,-6.2056,-6.3968,-6.5425,-6.6254,-6.6353,-6.6386,-6.6386,-6.5724,-6.5359,-6.5293,-6.4664,-6.4332,0.0,-5.7625,-5.7051,-5.7285,-5.6535,-5.5537,-5.4494,-5.3482,-5.2644,0.0,0.0,0.0,0.0,0.0,0.0,0.0,-5.5015,0.0,0.0,0.0,0.0,0.0,0.0,0.0,-6.2146,-6.0642,-5.9674,-5.9776,-5.9099,-5.8998,-5.9742,-5.9573,-5.9471,-5.9471,-5.8017,-5.6968,-5.6359,-5.548,-5.5108,-5.5243,-5.5108,-5.5513,-5.6359,-5.6562,-5.6528,-5.6325,-5.5919,-5.5784,-5.5886,-5.6224,-5.6867,-5.7712,-5.866,-5.9471,-6.0385,-6.2787,-6.3396,-6.3159,-6.3903,-6.3666,-6.2956,-6.2516,-6.2381,-6.2381,-6.2381,-6.2618,-6.3091,-6.4275,-6.4309,-6.414,-6.4884,-6.5358,-6.5324,-6.3869,-6.4715,-6.5493,-6.4005,-6.4005,-6.4275,-6.4174,-6.3903,-6.393,-6.4795,-6.3964,-6.3194,-6.3133,-6.2499,-6.18,-6.1194,-6.1119,-6.1119,-6.1119,-6.1119,-6.1119,-6.1119,-6.1119,-6.1285,-6.1682,-6.2113,-6.2709,-6.3481,-6.4697,-6.5757,-6.6519,-6.6904,-6.7135,-6.7135,-6.6419,-6.6055,-6.6022,-6.5326,-6.4995,-5.7621,0.0,0.0,0.0,0.0,0.0,0.0,0.0,0.0,0.0,0.0,0.0,0.0,0.0,0.0,0.0,0.0,-5.3833,0.0,0.0,0.0,0.0,0.0,0.0,0.0,-5.7719,-5.7171,-5.7273,-5.6596,-5.6528,-5.7273,-5.7814,-5.8287,-5.8693,-5.7476,-5.6697,-5.6494,-5.5243,-5.4871,-5.5412,-5.4871,-5.5141,-5.619,-5.5649,-5.5683,-5.6156,-5.5649,-5.5953,-5.6833,-5.7036,-5.7848,-5.9066,-5.9471,-5.9979,-6.0689,-6.2888,-6.3632,-6.3565,-6.3869,-6.3666,-6.3125,-6.255,-6.2381,-6.2381,-6.2381,-6.2516,-6.2956,-6.4241,-6.4208,-6.3971,-6.4715,-6.529,-6.5324,-6.3869,-6.5053,-6.6102,-6.4613,-6.4884,-6.5222,-6.4715,-6.4613,-6.4546,-6.4262,-6.3708,-6.3175,-6.2822,-6.2523,-6.2016,-6.1227,-6.1119,-6.1185,-6.1384,-6.1218,-6.1285,-6.1682,-6.1516,-6.1715,-6.2453,-6.3216,-6.3846,-6.4365,-6.5425,-6.6254,-6.6771,-6.7546,-6.791,-6.791,-6.6982,-6.6519,-6.6485,-6.5558,-6.5227,0.0,0.0,0.0,-5.7378,0.0,0.0,0.0,0.0,-5.223,0.0,0.0,0.0,0.0,0.0,0.0,-5.4804,0.0,0.0,0.0,0.0,0.0,0.0,0.0,0.0,0.0,-5.7837,-5.7273,-5.5886,-5.5108,-5.5006,-5.575,-5.5818,-5.6461,-5.7881,-5.7205,-5.6461,-5.575,-5.4972,-5.46,-5.4634,-5.46,-5.46,-5.4668,-5.4634,-5.4634,-5.4668,-5.4634,-5.5446,-5.6867,-5.7577,-5.8321,-5.9167,-6.0655,-6.1231,-6.1264,-6.1366,-6.2313,-6.3429,-6.2719,-6.2448,-6.2415,-6.2381,-6.2381,-6.2381,-6.2381,-6.2888,-6.3632,-6.4377,-6.458,-6.4715,-6.5459,-6.5662,-6.5324,-6.3869,-6.4647,-6.5324,-6.3869,-6.4106,-6.4647,-6.4613,-6.4613,-6.4295,-6.3384,-6.337,-6.3337,-6.2863,-6.2211,-6.158,-6.1161,-6.1119,-6.1384,-6.2122,-6.1516,-6.1682,-6.3073,-6.2586,-6.2487,-6.3249,-6.3935,-6.4409,-6.4365,-6.6419,-6.7533,-6.7533,-6.8274,-6.8639,-6.8639,-6.7214,-6.6519,-6.6485,-6.5061,-6.4763,0.0,0.0,-5.5615,-5.6867,0.0,0.0,0.0,0.0,0.0,0.0,0.0,0.0,0.0,0.0,0.0,0.0,0.0,0.0,0.0,0.0,0.0,0.0,0.0,0.0,0.0,0.0,0.0,-5.1352,-5.1048,-5.142,-5.2672,-5.416,-5.5412,-5.6427,-5.5716,-5.5446,-5.5681,-5.4499,-5.4363,-5.5344,-5.4329,-5.4126,-5.46,-5.46,-5.4871,-5.5378,-5.6359,-5.734,-5.8321,-5.9066,-5.981,-6.0588,-6.1095,-6.1907,-6.2787,-6.2787,-6.3091,-6.3463,-6.3226,-6.2821,-6.2381,-6.2381,-6.2381,-6.2381,-6.2381,-6.2922,-6.3666,-6.441,-6.4613,-6.4783,-6.5493,-6.5324,-6.485,-6.4343,-6.4986,-6.5561,-6.5053,-6.5561,-6.6068,-6.6068,-6.5662,-6.5046,-6.4098,-6.3997,-6.3706,-6.2749,-6.2283,-6.2149,-6.252,-6.2543,-6.2643,-6.2917,-6.2676,-6.2742,-6.3282,-6.3547,-6.3779,-6.4001,-6.4664,-6.5293,-6.579,-6.6982,-6.7844,-6.8307,-6.9036,-6.9169,-6.8672,-6.7711,-6.7016,-6.6485,-6.5525,-6.5194,-5.4566,-5.4532,0.0,-5.6021,-5.4329,0.0,-5.3991,0.0,-5.3078,0.0,0.0,0.0,0.0,0.0,0.0,0.0,0.0,0.0,0.0,-4.8496,0.0,0.0,0.0,0.0,0.0,0.0,-4.956,-4.8308,-4.797,-4.8578,0.0,-5.2063,-5.3822,-5.5614,-5.4972,-5.4938,-5.5681,-5.4262,-5.4126,-5.531,-5.4093,-5.4025,-5.4972,-5.4702,-5.5141,-5.6156,-5.7103,-5.822,-5.9438,-5.9911,-6.0723,-6.167,-6.167,-6.2279,-6.3125,-6.3125,-6.3125,-6.3125,-6.3125,-6.2787,-6.2381,-6.2381,-6.2381,-6.2448,-6.2719,-6.3125,-6.3734,-6.4715,-6.4986,-6.5155,-6.5899,-6.5527,-6.4986,-6.4986,-6.5358,-6.5696,-6.5613,-6.6179,-6.6686,-6.6686,-6.6238,-6.5539,-6.4707,-6.4489,-6.3986,-6.2691,-6.2589,-6.287,-6.3249,-6.3315,-6.3415,-6.368,-6.3481,-6.3415,-6.368,-6.4332,-6.4763,-6.4763,-6.516,-6.5624,-6.6121,-6.7082,-6.8076,-6.9069,-6.9566,-6.9699,-6.9467,-6.8241,-6.7202,-6.6485,-6.5757,-6.5425]},{"header":{"parameterUnit":"m.s-1","parameterCategory":1,"la1":30.6,"la2":29.2853,"lo1":-89.7004,"lo2":-87.6739,"dy":0.0162,"dx":0.0183,"nx":112,"ny":82,"refTime":"2023-04-02T06:00:00:Z","depth":0,"parameterNumber":3,"parameterNumberName":"V-component_of_WINDS"},"data":[0.0,0.0,0.0,0.0,0.0,0.0,0.0,0.0,0.0,0.0,0.0,0.0,0.0,0.0,0.0,0.0,0.0,0.0,0.0,0.0,0.0,0.0,0.0,0.0,0.0,0.0,0.0,0.0,0.0,0.0,0.0,0.0,0.0,0.0,0.0,0.0,0.0,0.0,0.0,0.0,0.0,0.0,0.0,0.0,0.0,0.0,0.0,0.0,0.0,0.0,0.0,0.0,0.0,0.0,0.0,0.0,0.0,0.0,0.0,0.0,0.0,0.0,0.0,0.0,0.0,0.0,0.0,0.0,0.0,0.0,0.0,0.0,0.0,0.0,0.0,0.0,0.0,0.0,0.0,0.0,0.0,0.0,0.0,0.0,0.0,0.0,0.0,0.0,0.0,0.0,2.3749,2.5622,2.8198,2.969,2.9471,2.9573,2.7687,2.3057,0.0,0.0,0.0,0.0,0.0,0.0,0.0,0.0,0.0,0.0,0.0,0.0,0.0,0.0,0.0,0.0,0.0,0.0,0.0,0.0,0.0,0.0,0.0,0.0,0.0,0.0,0.0,0.0,0.0,0.0,0.0,0.0,0.0,0.0,0.0,0.0,0.0,0.0,0.0,0.0,0.0,0.0,0.0,0.0,0.0,0.0,0.0,0.0,0.0,0.0,0.0,0.0,0.0,0.0,0.0,0.0,0.0,0.0,0.0,0.0,0.0,0.0,0.0,0.0,0.0,0.0,0.0,0.0,0.0,0.0,0.0,0.0,0.0,0.0,0.0,0.0,0.0,0.0,0.0,0.0,0.0,0.0,0.0,0.0,0.0,0.0,0.0,0.0,0.0,0.0,0.0,0.0,0.0,0.0,0.0,0.0,0.0,0.0,0.0,0.0,0.0,0.0,0.0,0.0,2.3852,2.6866,2.8549,2.9544,2.9764,2.909,2.7392,2.4471,0.0,0.0,0.0,0.0,0.0,0.0,0.0,0.0,0.0,0.0,0.0,0.0,0.0,0.0,0.0,0.0,0.0,0.0,0.0,0.0,0.0,0.0,0.0,0.0,0.0,0.0,0.0,0.0,0.0,0.0,0.0,0.0,0.0,0.0,0.0,0.0,0.0,0.0,0.0,0.0,0.0,0.0,0.0,0.0,0.0,0.0,0.0,0.0,0.0,0.0,0.0,0.0,0.0,0.0,0.0,0.0,0.0,0.0,0.0,0.0,0.0,0.0,0.0,0.0,0.0,0.0,0.0,0.0,0.0,0.0,0.0,0.0,0.0,0.0,0.0,0.0,0.0,0.0,0.0,0.0,0.0,0.0,0.0,0.0,0.0,0.0,0.0,0.0,0.0,0.0,0.0,0.0,0.0,0.0,0.0,0.0,0.0,0.0,0.0,0.0,0.0,0.0,0.0,2.2974,2.451,2.672,2.8095,2.893,2.9076,2.8534,2.7071,2.4466,2.3436,0.0,0.0,0.0,0.0,0.0,0.0,0.0,0.0,0.0,0.0,0.0,0.0,0.0,0.0,0.0,0.0,0.0,0.0,0.0,0.0,0.0,0.0,0.0,0.0,0.0,0.0,0.0,0.0,0.0,0.0,0.0,0.0,0.0,0.0,0.0,0.0,0.0,0.0,0.0,0.0,0.0,0.0,0.0,0.0,0.0,0.0,0.0,0.0,0.0,0.0,0.0,0.0,0.0,0.0,0.0,0.0,0.0,0.0,0.0,0.0,0.0,0.0,0.0,0.0,0.0,0.0,0.0,0.0,0.0,0.0,0.0,0.0,0.0,0.0,0.0,0.0,0.0,0.0,0.0,0.0,0.0,0.0,0.0,0.0,0.0,0.0,0.0,0.0,0.0,0.0,0.0,0.0,0.0,0.0,0.0,0.0,0.0,0.0,0.0,0.0,0.0,0.0,2.3896,2.5271,2.6486,2.7642,2.8253,2.8253,2.7742,2.6486,2.4115,2.3223,0.0,0.0,0.0,0.0,0.0,0.0,0.0,0.0,0.0,0.0,0.0,0.0,0.0,0.0,0.0,0.0,0.0,0.0,0.0,0.0,0.0,0.0,0.0,0.0,0.0,0.0,0.0,0.0,0.0,0.0,0.0,0.0,0.0,0.0,0.0,0.0,0.0,0.0,0.0,0.0,0.0,0.0,0.0,0.0,0.0,0.0,0.0,0.0,0.0,0.0,0.0,0.0,0.0,0.0,0.0,0.0,0.0,0.0,0.0,0.0,0.0,0.0,0.0,0.0,0.0,0.0,0.0,0.0,0.0,0.0,0.0,0.0,0.0,0.0,0.0,0.0,0.0,0.0,0.0,0.0,0.0,0.0,0.0,0.0,0.0,0.0,0.0,0.0,0.0,0.0,0.0,0.0,0.0,0.0,0.0,0.0,0.0,0.0,0.0,0.0,0.0,0.0,2.4291,2.5842,2.6852,2.7569,2.7903,2.7903,2.6852,2.5432,2.3735,2.2476,0.0,0.0,0.0,0.0,0.0,0.0,0.0,0.0,0.0,0.0,0.0,0.0,0.0,0.0,0.0,0.0,0.0,0.0,0.0,0.0,0.0,0.0,0.0,0.0,0.0,0.0,0.0,0.0,0.0,0.0,0.0,0.0,0.0,0.0,0.0,0.0,0.0,0.0,0.0,0.0,0.0,0.0,0.0,0.0,0.0,0.0,0.0,0.0,0.0,0.0,0.0,0.0,0.0,0.0,0.0,0.0,0.0,0.0,0.0,0.0,0.0,0.0,0.0,0.0,0.0,0.0,0.0,0.0,0.0,0.0,0.0,0.0,0.0,0.0,0.0,0.0,0.0,0.0,0.0,0.0,0.0,0.0,0.0,0.0,0.0,0.0,0.0,0.0,0.0,0.0,0.0,0.0,0.0,0.0,0.0,0.0,0.0,0.0,0.0,0.0,0.0,0.0,2.3501,2.4847,2.6237,2.6778,2.7217,2.7627,2.6837,2.5549,2.3706,0.0,0.0,0.0,0.0,0.0,0.0,0.0,0.0,0.0,0.0,0.0,0.0,0.0,0.0,0.0,0.0,0.0,0.0,0.0,0.0,0.0,0.0,0.0,0.0,0.0,0.0,0.0,0.0,0.0,0.0,0.0,0.0,0.0,0.0,0.0,0.0,0.0,0.0,0.0,0.0,0.0,0.0,0.0,0.0,0.0,0.0,0.0,0.0,0.0,0.0,0.0,0.0,0.0,0.0,0.0,0.0,0.0,0.0,0.0,0.0,0.0,0.0,0.0,0.0,0.0,0.0,0.0,0.0,0.0,0.0,0.0,0.0,0.0,0.0,0.0,0.0,0.0,0.0,0.0,0.0,0.0,0.0,0.0,0.0,0.0,0.0,0.0,0.0,0.0,0.0,0.0,0.0,0.0,0.0,0.0,0.0,0.0,0.0,0.0,0.0,0.0,0.0,2.2734,2.385,2.505,2.6403,2.6431,2.653,2.6969,2.6135,2.492,2.3384,0.0,0.0,0.0,0.0,0.0,0.0,0.0,0.0,0.0,0.0,0.0,0.0,0.0,0.0,0.0,0.0,0.0,0.0,0.0,0.0,0.0,0.0,0.0,0.0,0.0,0.0,0.0,0.0,0.0,0.0,0.0,0.0,0.0,0.0,0.0,0.0,0.0,0.0,0.0,0.0,0.0,0.0,0.0,0.0,0.0,0.0,0.0,0.0,0.0,0.0,0.0,0.0,0.0,0.0,0.0,0.0,0.0,0.0,0.0,0.0,0.0,0.0,0.0,0.0,0.0,0.0,0.0,0.0,0.0,0.0,0.0,0.0,0.0,0.0,0.0,0.0,0.0,0.0,0.0,0.0,0.0,0.0,0.0,0.0,0.0,0.0,0.0,0.0,0.0,0.0,0.0,0.0,0.0,0.0,0.0,0.0,0.0,0.0,0.0,0.0,0.0,0.0,2.4204,2.5611,2.6767,2.753,2.6701,2.6018,2.6018,2.454,2.3325,0.0,0.0,0.0,0.0,0.0,0.0,0.0,0.0,0.0,0.0,0.0,0.0,0.0,0.0,0.0,0.0,0.0,0.0,0.0,0.0,0.0,0.0,0.0,0.0,0.0,0.0,0.0,0.0,0.0,0.0,0.0,0.0,0.0,0.0,0.0,0.0,0.0,0.0,0.0,0.0,0.0,0.0,0.0,0.0,0.0,0.0,0.0,0.0,0.0,0.0,0.0,0.0,0.0,0.0,0.0,0.0,0.0,0.0,0.0,0.0,0.0,0.0,0.0,0.0,0.0,0.0,0.0,0.0,0.0,0.0,0.0,0.0,0.0,0.0,0.0,0.0,0.0,0.0,0.0,0.0,0.0,0.0,0.0,0.0,0.0,0.0,0.0,0.0,0.0,0.0,0.0,0.0,0.0,0.0,0.0,0.0,0.0,0.0,0.0,0.0,0.0,0.0,0.0,2.4378,2.6365,2.7875,2.8593,2.8625,2.8273,2.7578,2.646,2.4774,2.2449,0.0,0.0,0.0,0.0,0.0,0.0,0.0,0.0,0.0,0.0,0.0,0.0,0.0,0.0,0.0,0.0,0.0,0.0,0.0,0.0,0.0,0.0,0.0,0.0,0.0,0.0,0.0,0.0,0.0,0.0,0.0,0.0,0.0,0.0,0.0,0.0,0.0,0.0,0.0,0.0,0.0,0.0,0.0,0.0,0.0,0.0,0.0,0.0,0.0,0.0,0.0,0.0,0.0,0.0,0.0,0.0,0.0,0.0,0.0,0.0,0.0,0.0,0.0,0.0,0.0,0.0,0.0,0.0,0.0,0.0,0.0,0.0,0.0,0.0,0.0,0.0,0.0,0.0,0.0,0.0,0.0,0.0,0.0,0.0,0.0,0.0,0.0,0.0,0.0,0.0,0.0,0.0,0.0,0.0,0.0,0.0,0.0,0.0,0.0,0.0,0.0,0.0,2.5544,2.7533,2.9168,2.9924,2.9716,2.9227,2.857,2.7736,2.6372,2.4306,0.0,0.0,0.0,0.0,0.0,0.0,0.0,0.0,0.0,0.0,0.0,0.0,0.0,0.0,0.0,0.0,0.0,0.0,0.0,0.0,0.0,0.0,0.0,0.0,0.0,0.0,0.0,0.0,0.0,0.0,0.0,0.0,0.0,0.0,0.0,0.0,0.0,0.0,0.0,0.0,0.0,0.0,0.0,0.0,0.0,0.0,0.0,0.0,0.0,0.0,0.0,0.0,0.0,0.0,0.0,0.0,0.0,0.0,0.0,0.0,0.0,0.0,0.0,0.0,0.0,0.0,0.0,0.0,0.0,0.0,0.0,0.0,0.0,0.0,0.0,0.0,0.0,0.0,0.0,0.0,0.0,0.0,0.0,0.0,0.0,0.0,0.0,0.0,0.0,0.0,0.0,0.0,0.0,0.0,0.0,0.0,0.0,0.0,0.0,0.0,0.0,0.0,2.7141,2.8991,3.0519,3.1312,3.0348,2.954,2.9444,2.8783,2.7989,2.7194,0.0,0.0,0.0,0.0,0.0,0.0,0.0,0.0,0.0,0.0,0.0,0.0,0.0,0.0,0.0,0.0,0.0,0.0,0.0,0.0,0.0,0.0,0.0,0.0,0.0,0.0,0.0,0.0,0.0,0.0,0.0,0.0,0.0,0.0,0.0,0.0,0.0,0.0,0.0,0.0,0.0,0.0,0.0,0.0,0.0,0.0,0.0,0.0,0.0,0.0,0.0,0.0,0.0,0.0,0.0,0.0,0.0,0.0,0.0,0.0,3.1004,0.0,0.0,0.0,0.0,0.0,0.0,0.0,0.0,0.0,0.0,0.0,0.0,0.0,0.0,0.0,0.0,0.0,0.0,0.0,0.0,0.0,0.0,0.0,0.0,0.0,0.0,0.0,0.0,0.0,0.0,0.0,0.0,0.0,0.0,0.0,0.0,0.0,0.0,0.0,0.0,0.0,2.6916,2.9198,3.1167,3.2263,3.2386,3.2068,3.1332,3.0606,2.9159,2.6807,2.5418,0.0,0.0,0.0,0.0,0.0,0.0,0.0,0.0,0.0,0.0,0.0,0.0,0.0,0.0,0.0,0.0,0.0,0.0,0.0,0.0,0.0,0.0,0.0,0.0,0.0,0.0,0.0,0.0,0.0,0.0,0.0,0.0,0.0,0.0,0.0,0.0,0.0,0.0,0.0,0.0,0.0,0.0,0.0,0.0,0.0,0.0,0.0,0.0,0.0,0.0,0.0,0.0,0.0,0.0,0.0,0.0,0.0,0.0,0.0,0.0,3.1384,0.0,0.0,0.0,0.0,0.0,0.0,0.0,0.0,0.0,0.0,0.0,0.0,0.0,0.0,0.0,0.0,0.0,0.0,0.0,0.0,0.0,0.0,0.0,0.0,0.0,0.0,0.0,0.0,0.0,0.0,0.0,0.0,0.0,0.0,0.0,0.0,0.0,0.0,0.0,0.0,2.8009,3.0359,3.2276,3.3134,3.3574,3.3602,3.3087,3.2322,3.1246,2.9728,2.766,0.0,0.0,0.0,0.0,0.0,0.0,0.0,0.0,0.0,0.0,0.0,0.0,0.0,0.0,0.0,0.0,0.0,0.0,0.0,0.0,0.0,0.0,0.0,0.0,0.0,0.0,0.0,0.0,0.0,0.0,0.0,0.0,0.0,0.0,0.0,0.0,0.0,0.0,0.0,0.0,0.0,0.0,0.0,0.0,0.0,0.0,0.0,0.0,0.0,0.0,0.0,0.0,0.0,3.464,3.5609,3.7297,3.7446,3.7836,3.8292,3.5012,3.3454,3.3214,3.2646,0.0,0.0,0.0,0.0,0.0,0.0,0.0,0.0,0.0,0.0,0.0,0.0,0.0,0.0,0.0,0.0,0.0,0.0,0.0,0.0,0.0,0.0,0.0,0.0,3.1127,3.0755,0.0,0.0,0.0,0.0,0.0,0.0,0.0,0.0,0.0,0.0,0.0,0.0,2.9257,3.1414,3.3055,3.3619,3.4062,3.4365,3.4365,3.37,3.3195,3.3054,3.0145,2.83,0.0,0.0,0.0,0.0,0.0,0.0,0.0,0.0,0.0,0.0,0.0,0.0,0.0,0.0,0.0,0.0,0.0,0.0,0.0,0.0,0.0,0.0,0.0,0.0,0.0,0.0,0.0,0.0,0.0,0.0,0.0,0.0,3.2496,3.2965,0.0,0.0,0.0,0.0,0.0,0.0,0.0,0.0,0.0,0.0,0.0,0.0,0.0,3.6579,3.824,3.866,3.9084,3.9566,4.0645,4.0936,4.0627,4.1267,4.1327,4.0723,3.9834,0.0,3.5667,3.5413,0.0,0.0,0.0,0.0,0.0,0.0,0.0,0.0,0.0,0.0,0.0,0.0,0.0,0.0,0.0,0.0,0.0,0.0,0.0,0.0,0.0,0.0,3.2739,3.208,3.228,3.2302,0.0,2.9679,2.861,2.8009,2.7766,0.0,0.0,0.0,0.0,0.0,0.0,0.0,2.9277,3.0894,3.2246,3.2926,3.378,3.4289,3.4289,3.4122,3.3649,3.2965,3.1999,3.05,2.8481,2.7521,0.0,0.0,0.0,0.0,0.0,0.0,0.0,0.0,0.0,0.0,0.0,0.0,0.0,0.0,0.0,0.0,0.0,0.0,0.0,0.0,0.0,0.0,0.0,0.0,0.0,0.0,0.0,0.0,0.0,3.3661,3.488,3.4842,3.4461,3.4049,0.0,0.0,0.0,0.0,0.0,0.0,0.0,0.0,0.0,3.8027,3.834,3.9082,4.0293,4.0742,4.1172,4.1601,4.2402,4.2734,4.2617,4.3242,4.3066,4.2246,4.2285,4.1305,3.9623,3.8574,3.6859,3.4885,0.0,0.0,0.0,0.0,3.1551,3.1837,3.2069,3.2376,0.0,3.2497,0.0,0.0,0.0,0.0,0.0,0.0,0.0,0.0,0.0,0.0,3.3027,3.291,3.3203,3.334,3.2715,3.1621,3.0468,0.0,2.9172,2.8804,2.7897,0.0,0.0,0.0,0.0,2.9561,3.0186,3.1665,3.2813,3.3114,3.4017,3.447,3.4202,3.4116,3.3865,3.3235,3.2427,3.1456,3.0178,2.9407,2.8344,0.0,0.0,0.0,0.0,0.0,0.0,0.0,0.0,0.0,0.0,0.0,0.0,0.0,0.0,0.0,0.0,0.0,0.0,0.0,0.0,0.0,0.0,0.0,0.0,0.0,0.0,0.0,0.0,3.5586,3.6621,3.6094,3.6328,3.5937,0.0,0.0,0.0,0.0,0.0,0.0,3.6601,3.6777,3.7871,4.0117,4.0527,4.1172,4.2148,4.2461,4.2773,4.3105,4.3535,4.3848,4.4062,4.4512,4.4238,4.3437,4.375,4.3398,4.248,4.0996,3.9316,3.7598,3.7051,3.6035,3.4824,3.4277,3.4355,3.4746,3.4863,3.5254,3.5644,3.5195,3.4844,3.4297,3.2793,0.0,0.0,0.0,0.0,3.1387,3.2129,3.2637,3.3027,3.334,3.3672,3.3789,3.3359,3.2695,3.1878,0.0,3.0364,2.9937,2.9084,0.0,0.0,0.0,0.0,3.0792,3.1187,3.2493,3.3327,3.3223,3.4031,3.4463,3.3986,3.3886,3.3741,3.3389,3.2644,3.2023,3.1567,3.0874,3.0093,2.9166,0.0,0.0,0.0,0.0,0.0,0.0,0.0,0.0,0.0,0.0,0.0,0.0,0.0,0.0,0.0,0.0,0.0,0.0,0.0,0.0,0.0,0.0,0.0,0.0,0.0,0.0,0.0,0.0,0.0,3.6113,3.8184,0.0,0.0,0.0,0.0,3.5879,3.6289,3.709,3.8379,3.8828,4.0215,4.2793,4.291,4.3535,4.4824,4.4844,4.4883,4.4902,4.5332,4.5351,4.498,4.541,4.5137,4.4336,4.4355,4.3867,4.2969,4.207,4.1152,4.0117,3.8066,3.7207,3.7031,3.6191,3.6172,3.6601,3.6992,3.6894,3.6738,3.748,3.6914,3.5527,3.3398,3.2461,0.0,0.0,3.1797,3.2207,3.2656,3.3066,3.3398,3.3418,3.3437,3.334,3.291,3.248,3.2133,0.0,3.0994,3.0035,2.9481,0.0,2.9937,2.9901,3.0837,3.1733,3.2183,3.2905,3.3223,3.2809,3.3575,3.3986,3.3451,3.341,3.341,3.3368,3.2954,3.2421,3.1967,3.1567,3.1091,3.0594,2.927,0.0,0.0,0.0,0.0,0.0,0.0,0.0,0.0,0.0,0.0,0.0,0.0,0.0,0.0,0.0,0.0,0.0,0.0,0.0,0.0,0.0,0.0,0.0,0.0,0.0,0.0,0.0,0.0,3.8555,4.0293,0.0,3.8926,3.8476,3.8359,3.8496,3.9414,4.0527,4.1816,4.2305,4.3086,4.4297,4.4609,4.498,4.5449,4.5449,4.5449,4.5449,4.5605,4.5312,4.4629,4.5058,4.4785,4.3945,4.3945,4.3769,4.3457,4.3144,4.2363,4.1152,3.9258,3.8516,3.8379,3.7246,3.7109,3.75,3.7656,3.7422,3.7031,3.6777,3.6211,3.5469,3.4707,3.416,3.3711,3.3281,3.3066,3.3066,3.3496,3.3921,3.4147,3.4147,3.4576,3.4848,3.4409,3.3751,3.3334,3.376,3.2256,3.0988,3.1236,3.1374,3.1394,3.1091,3.1774,3.2267,3.2123,3.2628,3.2892,3.269,3.3265,3.3451,3.2996,3.3223,3.312,3.2561,3.2318,3.1884,3.1195,3.1298,3.1029,3.0263,2.9766,2.8918,0.0,0.0,0.0,0.0,0.0,0.0,0.0,0.0,0.0,0.0,0.0,0.0,0.0,0.0,0.0,0.0,0.0,0.0,0.0,0.0,0.0,0.0,0.0,0.0,0.0,3.8184,4.0488,4.0351,4.2344,4.3066,4.1348,4.1172,4.1289,4.1601,4.2539,4.3535,4.4531,4.5,4.5449,4.5879,4.6172,4.625,4.6094,4.6094,4.6035,4.5879,4.5879,4.5586,4.5058,4.5332,4.498,4.416,4.416,4.3906,4.3496,4.3496,4.2988,4.2109,4.0801,4.0117,3.9726,3.8594,3.8262,3.832,3.8027,3.7832,3.7578,3.6719,3.6074,3.5605,3.5605,3.5293,3.4844,3.4414,3.418,3.4121,3.4238,3.4471,3.4665,3.4814,3.5226,3.542,3.4805,3.4302,3.4083,3.4207,3.2752,3.1672,3.219,3.2183,3.1917,3.1411,3.1896,3.2168,3.1857,3.2354,3.2669,3.2669,3.312,3.3265,3.2975,3.2934,3.2664,3.2029,3.1843,3.1485,3.0719,3.0822,3.0553,2.9766,2.9456,2.869,2.7489,0.0,0.0,0.0,0.0,0.0,0.0,0.0,0.0,0.0,0.0,0.0,0.0,0.0,0.0,0.0,0.0,0.0,0.0,0.0,0.0,0.0,0.0,0.0,3.6738,3.9726,4.1758,4.1406,4.4316,4.5703,4.3984,4.459,4.5078,4.5078,4.5488,4.5918,4.6348,4.6738,4.7168,4.7578,4.7578,4.7383,4.6953,4.6933,4.6719,4.6328,4.6289,4.6269,4.6269,4.625,4.5781,4.4961,4.498,4.4258,4.3086,4.3086,4.3086,4.3027,4.2558,4.1875,4.1074,4.0176,3.957,3.9082,3.8223,3.8203,3.8437,3.7578,3.6738,3.6074,3.6074,3.5781,3.5351,3.4883,3.5059,3.5273,3.4844,3.4726,3.4838,3.5185,3.5315,3.5022,3.4101,3.4203,3.4184,3.3189,3.2383,3.1943,3.2289,3.1978,3.1528,3.1078,3.1258,0.0,3.1422,3.2188,3.2669,3.2669,3.312,3.3368,3.3348,3.2561,3.1988,3.1946,3.1588,3.1133,3.0657,3.0222,2.9787,2.9352,2.8421,2.7875,2.7924,0.0,0.0,0.0,0.0,0.0,0.0,0.0,0.0,0.0,0.0,0.0,0.0,0.0,0.0,0.0,0.0,0.0,0.0,0.0,0.0,0.0,3.7539,3.9336,3.9453,4.1875,4.4082,4.5215,4.6719,4.7383,4.6582,4.6445,4.6406,4.6406,4.6816,4.7246,4.7656,4.7793,4.791,4.8027,4.7734,4.7519,4.7402,4.709,4.6875,4.6738,4.6133,4.5683,4.5371,4.5058,4.4453,4.3633,4.3926,4.3691,4.3105,4.3398,4.3359,4.2949,4.1582,4.1094,4.0996,3.9492,3.9043,3.9082,3.8223,3.8203,3.8437,3.7578,3.7344,3.7402,3.7402,3.6894,3.6289,3.6172,3.5527,3.5019,3.5527,3.5375,3.51,3.523,3.5426,3.557,3.5202,3.496,3.4859,3.5191,3.4285,3.3523,3.3582,3.3479,3.3231,3.2777,3.2752,0.0,3.2395,3.2582,3.2669,3.2669,3.312,3.3244,3.2934,3.2685,3.2106,3.1133,3.0636,3.016,2.9704,2.9891,3.0098,3.0305,2.9063,2.8255,0.0,0.0,0.0,0.0,0.0,0.0,0.0,0.0,0.0,0.0,0.0,0.0,0.0,0.0,0.0,0.0,0.0,0.0,0.0,0.0,0.0,0.0,3.9746,4.1973,4.3047,4.4492,4.5937,4.7305,4.8066,4.8457,4.8398,4.8164,4.8027,4.8027,4.8242,4.8418,4.8476,4.8476,4.8476,4.8476,4.8066,4.7754,4.7578,4.7148,4.6758,4.6406,4.6094,4.5625,4.5019,4.4766,4.418,4.334,4.3418,4.3105,4.2578,4.2988,4.293,0.0,0.0,0.0,0.0,0.0,3.873,3.8809,3.7949,3.7832,3.7949,3.7461,3.7344,3.7461,3.7812,3.7461,3.6894,3.6719,3.6113,3.5566,3.5723,3.5505,3.5376,3.5639,3.5902,3.6042,3.6111,3.6031,3.593,3.5831,3.5335,0.0,3.4672,3.4155,3.3617,3.3182,3.3099,3.3016,3.2768,3.2892,3.2996,3.2996,3.3223,3.3265,3.3016,3.2664,0.0,0.0,0.0,2.9994,2.9332,2.9373,0.0,0.0,0.0,2.8297,2.8214,0.0,0.0,0.0,2.7469,2.7102,0.0,0.0,0.0,0.0,0.0,0.0,0.0,0.0,0.0,0.0,0.0,0.0,0.0,0.0,0.0,0.0,4.1836,4.4414,4.6816,4.7226,4.7539,4.8203,4.8613,4.9023,4.9414,4.9492,4.9531,4.9531,4.9531,4.9355,4.8945,0.0,0.0,0.0,0.0,4.8008,4.7578,4.7148,4.6523,4.5742,4.6035,4.5762,4.5019,4.4863,4.4355,4.3535,4.3164,4.2539,4.1836,4.2246,4.2129,4.1699,4.207,4.1426,4.0156,3.9004,3.8574,3.8457,3.7598,0.0,0.0,3.7266,3.7012,3.6894,3.7676,3.7598,3.7168,3.6836,3.6641,3.6348,3.5586,3.5391,3.5571,3.6156,3.6308,3.6426,3.6714,3.7071,3.6988,3.5811,3.5873,3.5976,3.5562,3.4445,3.3451,3.3016,3.2954,3.2934,3.2892,3.3223,3.343,3.3389,0.0,0.0,3.3306,3.2582,3.1878,3.134,3.0822,3.016,2.9332,2.8959,2.8566,2.8152,2.8152,2.8359,2.8773,2.8359,2.8794,2.9953,2.8325,2.7924,0.0,0.0,0.0,0.0,0.0,0.0,0.0,0.0,0.0,0.0,0.0,0.0,0.0,0.0,0.0,4.1543,4.457,4.7129,4.832,4.9101,4.9336,4.8789,4.8808,4.8887,4.8984,4.9316,4.9531,4.9531,4.9531,4.9492,4.9414,4.9062,4.8867,4.8867,4.8437,4.8008,4.7578,4.7148,4.668,4.6172,0.0,0.0,4.5,4.3945,4.3164,4.2676,4.2578,4.2266,4.1836,4.2246,4.1777,4.0781,4.0859,4.0098,3.8926,3.8672,3.8574,3.8457,3.7598,3.7519,3.7695,3.7012,3.6973,3.7266,3.7773,3.7402,0.0,3.7109,3.6426,3.5605,3.543,3.5391,3.5426,3.5514,3.5759,3.6096,3.6306,3.648,3.6524,3.6534,3.6308,3.608,3.5997,3.5459,3.4879,3.4424,3.4362,3.4238,3.3865,3.3886,3.3782,3.341,3.372,3.3637,3.2913,3.2706,3.2085,3.0884,3.0036,2.9497,2.9311,2.958,2.9684,2.9601,2.9601,2.9642,2.9725,2.9642,2.9725,2.9973,2.9249,2.9001,0.0,0.0,0.0,0.0,0.0,0.0,0.0,0.0,0.0,0.0,0.0,3.7324,3.8398,0.0,4.2676,4.4394,4.6484,4.8281,4.9375,4.9902,4.9941,4.9277,4.9199,4.9277,4.9492,4.9531,4.9609,4.9844,4.9648,4.9433,4.9199,4.8984,4.8867,4.8867,4.8223,4.7793,4.7578,4.6933,4.6406,4.5976,4.5547,4.5117,4.4668,4.3574,4.2832,4.2422,4.2207,4.1875,4.1504,4.1719,4.1172,4.0215,4.0215,3.9531,3.8574,3.8574,3.8437,3.8164,3.7519,3.7441,3.7539,3.7129,3.7266,3.7695,3.8125,3.7812,3.7246,3.7051,3.6367,3.5605,3.5156,3.4883,3.4916,3.5442,3.5633,3.5824,3.677,3.6779,3.6619,3.6782,3.6432,3.6039,3.5811,3.5583,3.5335,3.5128,3.5086,3.5004,3.4776,3.4341,3.4049,3.38,3.3534,3.3223,3.2711,3.2669,3.225,3.1112,3.0594,3.0139,2.9663,2.987,2.9994,2.9994,2.9994,2.9994,2.9994,2.9994,2.9994,2.9973,2.9518,2.9311,0.0,0.0,0.0,0.0,0.0,0.0,0.0,3.5137,3.5625,3.8047,3.9082,4.0078,4.1738,4.3301,4.498,4.6973,4.8027,4.9023,5.0254,5.043,5.0254,4.9824,4.9629,4.9629,4.9902,4.9687,4.9707,5.0137,4.9785,4.9414,4.9121,4.8945,4.8867,4.8867,4.8027,4.7578,4.7578,4.6738,4.6133,4.5801,4.5723,4.5273,4.4492,4.3516,4.2891,4.2519,4.2012,4.1601,4.1289,4.1211,4.0723,4.0019,3.9922,3.9414,3.8672,3.8516,3.8184,3.7734,3.7324,3.7109,3.707,3.7148,3.7402,3.7773,3.8301,3.8144,3.7637,3.6875,3.6309,3.5684,3.4805,3.4336,3.4367,3.5402,3.5494,3.5711,3.7177,3.7208,3.6906,3.6947,3.6556,3.6101,3.5645,3.548,3.5418,3.5418,3.5418,3.5418,3.5418,3.4776,3.43,3.4217,3.3555,3.3058,3.2871,3.2768,3.2354,3.1443,3.1381,3.0967,3.0036,2.9994,2.9994,2.9994,2.9994,2.9994,2.9994,2.9994,2.9994,2.9973,2.9435,2.9166,2.6281,2.6269,2.7633,3.0053,3.1417,3.3484,0.0,3.8906,3.9004,4.2305,4.3066,4.3555,4.4922,4.5937,4.7012,4.8418,4.9375,5.0273,5.1172,5.1289,5.1133,5.0703,5.0,4.9394,4.9043,4.9316,4.9707,5.0137,4.9785,4.9668,5.0019,4.9277,4.8867,4.8867,4.8027,4.7578,4.7578,4.6738,4.6289,4.623,4.5859,4.543,4.4902,4.3652,4.3047,4.2969,4.2148,4.1777,4.1699,4.1328,4.0898,4.041,4.0039,3.959,3.9043,3.8281,3.7734,3.7305,3.6894,3.6484,3.623,3.6621,3.6777,3.6953,3.7754,3.7695,3.7266,3.6797,3.6094,3.5254,3.4375,3.4101,3.423,3.4631,3.5057,3.5631,3.679,3.7003,3.7074,3.736,3.7032,3.6577,3.6121,3.5687,3.5418,3.5418,3.5418,3.5418,3.5418,3.5335,3.5128,3.4795,3.465,3.4256,3.3368,3.2954,3.2354,3.1443,3.1381,3.0967,3.0036,2.9994,2.9994,2.9994,2.9994,2.9994,2.9994,2.9994,2.9994,2.9973,2.9104,2.869,2.811,2.7629,2.8429,3.2052,3.3238,3.4953,4.0336,4.1211,4.166,4.4609,4.5605,4.6367,4.7676,4.8613,4.9531,5.0566,5.084,5.1113,5.1719,5.1582,5.1191,5.0527,5.0117,4.9922,4.998,4.9707,4.9805,5.0488,4.9922,4.9609,4.9785,4.9199,4.8867,4.8867,4.8262,4.7832,4.7578,4.6973,4.6543,4.6289,4.5879,4.5449,4.498,4.3926,4.3301,4.3027,4.2168,4.1933,4.2109,4.1445,4.0918,4.0488,4.0059,3.9609,3.9121,3.8535,3.8203,3.7969,3.7559,3.7441,3.75,3.7422,3.7578,3.7851,3.8203,3.8184,3.791,3.7226,3.6601,3.5937,3.5059,3.4648,3.4577,3.4982,3.5244,3.5633,3.6496,3.6461,3.6359,3.677,3.6366,3.5935,3.5749,3.5542,3.5418,3.5418,3.5418,3.5418,3.5418,3.519,3.4755,3.409,3.4007,3.3699,3.3058,3.3306,3.2892,3.1464,3.2106,3.1774,3.0056,3.0243,3.0263,2.9994,2.9994,2.9994,2.9994,2.9994,2.9849,2.958,2.8918,2.8607,2.8783,2.8403,2.9002,3.3006,3.4766,3.6737,4.1518,4.3065,4.416,4.6523,4.7402,4.8125,4.9316,5.0039,5.0762,5.1738,5.1543,5.1445,5.2012,5.1601,5.0937,5.0098,4.9883,4.998,5.041,4.9902,4.9883,5.0742,5.0,4.959,4.9707,4.916,4.8867,4.8867,4.8437,4.8008,4.7578,4.7148,4.6719,4.6289,4.5996,4.5625,4.5176,4.4297,4.3535,4.2871,4.2246,4.207,4.2207,4.1465,4.0996,4.0644,4.0117,3.9687,3.9316,3.8769,3.8418,3.8184,3.7851,3.7871,3.8027,3.7812,3.8047,3.8418,3.8535,3.8574,3.8398,3.7539,3.6992,3.6465,3.5625,3.5039,3.4785,3.5117,3.5195,3.5446,3.6174,3.6044,3.5826,3.6115,3.5822,3.5478,3.5273,3.5232,3.5294,3.5356,3.5418,3.5418,3.5418,3.5148,3.4693,3.401,3.3824,3.3575,3.3141,3.3699,3.341,3.1857,3.254,3.2209,3.045,3.045,3.0346,2.9994,3.0118,3.0118,2.9994,3.0118,2.9891,2.929,2.8835,2.8545,2.7071,2.773,2.9112,3.2204,3.5609,3.9113,4.2454,4.4731,4.668,4.8418,4.8457,4.8457,4.9355,4.9551,4.998,5.125,5.1094,5.1113,5.1973,5.1348,5.0508,4.9648,4.916,4.9082,0.0,4.9551,4.9883,5.0742,5.0,4.9707,5.0137,4.9336,4.8867,4.8867,4.8437,4.8008,4.7578,4.7148,4.6719,4.6308,4.6289,4.6055,4.5625,4.4766,4.3672,4.2441,4.2422,4.2187,4.1777,4.1348,4.1172,4.1074,4.0234,3.9883,3.9766,3.8906,3.8047,3.7324,3.7324,3.7051,3.6797,3.7187,3.7598,3.8027,3.8437,3.8574,3.8398,3.7539,3.6992,3.6465,3.5625,3.5039,3.4707,3.4726,3.4726,3.4975,3.5739,3.5884,3.5878,3.5851,3.5816,3.5578,3.5002,3.4922,3.5046,3.5356,3.5418,3.5418,3.5418,3.5418,3.5397,3.5355,3.4983,3.4588,3.4132,3.4051,3.3679,3.269,3.2256,3.1857,3.136,3.0491,3.0015,2.9994,3.0429,3.045,2.9994,3.045,3.0201,2.929,2.8835,2.838,2.852,2.9603,3.144,3.4823,3.6805,3.8704,4.1781,4.4123,4.5772,4.6315,4.6485,4.6699,4.7285,4.7168,4.748,4.9043,4.9902,5.0586,5.1152,5.123,5.0683,4.9258,4.9473,0.0,0.0,0.0,0.0,5.0332,4.9863,4.959,4.9746,4.918,4.8867,4.8867,4.8711,4.8301,4.7578,4.7441,4.7012,4.6289,4.5723,4.5078,4.4355,4.3769,4.3125,4.2402,4.2129,4.1933,4.1758,4.1348,4.1172,4.1113,4.0527,4.0137,3.9824,3.9219,3.8457,3.7754,3.8047,3.8047,3.7949,3.8105,3.8242,3.8379,3.8535,3.8574,3.8516,3.8223,3.7637,3.6953,3.6387,3.5918,3.5508,3.5234,3.5371,3.5547,3.5544,3.5705,3.5686,3.5147,3.542,3.5679,3.541,3.5636,3.5845,3.5852,3.5625,3.5418,3.5418,3.5418,3.5314,3.5004,3.492,3.4505,3.3679,3.3886,3.3555,3.2297,3.2685,3.2313,3.0967,3.0905,3.0615,3.0015,3.045,3.047,2.9994,3.047,3.0201,2.929,2.9145,2.898,2.9676,3.1081,3.2925,3.57,3.7334,3.8713,4.0755,4.2751,4.426,4.4636,4.4497,4.4501,4.548,4.4883,4.4941,4.6973,4.7891,4.875,4.9941,5.0215,4.9922,4.8965,4.9219,4.9258,0.0,0.0,0.0,5.0098,4.9785,4.9531,4.9531,4.9101,4.8867,4.8867,4.8867,4.8437,4.7578,4.7578,4.7148,4.6289,4.5586,4.4805,4.3945,4.3672,4.3066,4.2207,4.207,4.1855,4.1562,4.1289,4.1172,4.1133,4.0684,4.0273,3.9844,3.9375,3.875,3.8164,3.8301,3.834,3.834,3.834,3.8457,3.8574,3.8574,3.8574,3.8555,3.8379,3.7949,3.7383,3.6816,3.6465,3.6152,3.5723,3.582,3.5937,3.5684,3.574,3.5744,3.5015,3.5335,3.5766,3.5666,3.6149,3.6383,3.612,3.5852,3.5604,3.5438,3.5418,3.5314,3.5024,3.4983,3.4693,3.3927,3.4194,3.3865,3.283,3.2996,3.2623,3.1464,3.1402,3.1029,3.0263,3.0864,3.0781,2.9994,3.0615,3.0367,2.9311,2.9311,2.9208,3.0539,3.2149,3.37,3.4973,3.7226,3.9163,3.9496,4.0892,4.2353,4.3398,4.2371,4.188,4.3729,4.2754,4.25,4.5058,4.5293,4.6035,4.8535,4.8594,4.8496,4.8828,4.8535,4.8281,4.8223,4.8223,4.875,5.0019,0.0,4.9492,4.9492,4.9082,4.8867,4.8867,4.8867,4.8457,4.7617,4.7578,4.7109,4.6269,4.584,4.5176,4.4336,4.4316,4.3379,4.1797,4.2187,4.1914,4.1172,4.1172,4.1172,4.1094,4.0684,4.0254,3.9805,3.9355,3.8945,3.8516,3.8105,3.7969,3.7969,3.7969,3.8242,3.8574,3.8574,3.8574,3.8496,3.8066,3.7949,3.7734,3.6953,3.6699,3.6562,3.6152,3.6035,3.6016,3.5996,3.5996,3.5879,3.5449,3.5685,3.5898,3.5892,3.6374,3.666,3.6204,3.6101,3.5914,3.548,3.5418,3.5418,3.5418,3.5418,3.5252,3.4857,3.4816,3.4608,3.4132,3.3244,3.269,3.2649,3.1836,3.1153,3.0698,3.1526,3.1319,2.9994,3.0905,3.0657,2.9373,2.9352,2.9125,3.2559,3.4168,3.5573,3.6407,3.6918,3.7267,3.7356,3.8351,3.932,3.9747,3.9021,3.865,3.9445,3.9726,4.0508,4.2461,4.5117,4.75,4.9121,5.0078,5.0176,4.9004,4.9336,4.9297,4.8301,4.8496,4.8828,0.0,4.9082,4.9023,4.9023,4.8926,4.8867,4.8867,4.8867,4.8594,4.8047,4.7422,4.668,4.584,4.5391,4.457,4.3398,4.3086,4.2344,4.1348,4.1445,4.1367,4.1172,4.1172,4.0976,4.0684,4.0566,4.0059,3.9355,3.9238,3.8945,3.8555,3.8437,3.8418,3.8418,3.8418,3.8476,3.8574,3.8574,3.8574,3.8555,3.8437,3.8164,3.7871,3.7656,3.7148,3.6641,3.6523,3.625,3.5937,3.5625,3.5801,3.5801,3.5019,3.5666,3.6475,3.7049,3.6914,3.6763,3.6639,3.6039,3.5562,3.5438,3.5418,3.5418,3.5418,3.5418,3.5252,3.4857,3.4816,3.4463,3.3596,3.3327,3.2913,3.2194,3.1671,3.1153,3.0698,3.0905,3.0698,2.9994,3.0574,3.0677,3.0325,2.9973,3.0118,3.4212,3.5544,3.6626,3.6992,3.6948,3.6553,3.5573,3.5746,3.6074,3.5455,3.5018,3.5079,3.6251,3.7087,3.8398,4.1094,4.3652,4.6172,4.8613,4.957,4.9863,4.9473,4.9707,4.9531,4.8574,4.8711,4.8867,4.8867,4.8867,4.8867,4.8867,4.8867,4.8867,4.8867,4.8867,4.8555,4.793,4.7266,4.6601,4.5937,4.5332,4.4433,4.334,4.291,4.2148,4.1191,0.0,4.1348,4.1172,4.1172,4.0918,4.0527,4.0527,3.998,3.918,3.9004,3.8652,3.8262,3.8086,3.8144,3.832,3.8516,3.8574,3.8574,3.8574,3.8574,3.8574,3.8574,3.8398,3.8164,3.7969,3.7441,3.6894,3.6719,3.6348,3.5957,3.5723,3.5859,3.5927,3.5771,3.627,3.691,3.7729,3.7604,3.7343,3.7136,3.666,3.6183,3.5769,3.5542,3.5418,3.5418,3.5418,3.5314,3.5066,3.5045,3.4734,3.409,3.3782,3.3368,3.2664,3.2209,3.1754,3.1298,3.1278,3.0946,3.0305,3.076,3.0781,3.0387,3.0532,3.0781,3.5573,3.648,3.7153,3.7153,3.7095,3.6466,3.4285,3.3597,3.2953,3.1575,3.1301,3.189,3.3875,3.4929,3.666,4.0547,4.2031,4.4023,4.7851,4.8437,4.8867,4.9961,4.9766,4.9355,4.8906,4.8867,4.8867,4.8867,4.8867,4.8867,4.8867,4.8867,4.8867,4.8867,4.8867,4.8437,4.7578,4.7207,4.6738,4.6211,4.541,4.4551,4.3691,4.3203,4.2363,4.1269,4.1582,4.1504,4.1172,4.1172,4.0879,4.043,4.043,3.9902,3.9062,3.8652,3.8242,3.7851,3.7441,3.7578,3.7988,3.8359,3.8535,3.8574,3.8574,3.8574,3.8574,3.8574,3.8574,3.8496,3.8105,3.7656,3.7207,3.6836,3.6426,3.6094,3.6035,3.6016,3.6219,3.6944,3.7079,3.7348,3.8037,3.8129,3.7964,3.755,3.7446,3.7115,3.6308,3.5852,3.5583,3.5521,3.5521,3.5521,3.5521,3.5459,3.5231,3.4857,3.438,3.3865,3.3389,3.2892,3.2401,3.1988,3.1926,3.1547,3.0677,3.1153,3.0967,3.0201,3.1008,3.1215,3.6583,3.7168,3.749,3.749,3.7095,3.6246,3.4519,3.2895,3.1455,3.0573,3.0151,3.0373,3.1797,3.3889,3.666,4.0547,4.2793,4.5293,4.8808,4.9609,4.9785,4.9648,4.957,4.9355,4.8906,4.8867,4.8867,0.0,4.8867,4.8867,4.8867,4.8867,4.8867,4.8867,4.8867,4.8437,4.7578,4.75,4.6894,4.5781,4.5273,4.4551,4.3672,4.2891,4.2226,4.168,4.1406,0.0,4.1172,4.1172,4.0723,4.0,4.0,3.9473,3.8633,3.8203,3.7988,3.7851,3.7441,3.7578,3.793,3.8008,3.8281,3.8574,3.8574,3.8574,3.8574,3.8574,3.8574,3.8555,3.8476,3.7891,3.7285,3.7207,3.6875,3.6465,3.6094,3.6016,3.6219,3.6944,3.7079,3.7348,3.8037,3.786,3.7591,3.7508,3.7177,3.6867,3.6701,3.6618,3.6411,3.6039,3.5997,3.5997,3.5997,3.5645,3.5231,3.4857,3.438,3.3865,3.3389,3.2602,3.207,3.1988,3.1671,3.1215,3.0677,3.1153,3.1298,3.1133,3.1298,3.1733,3.7155,3.7709,3.8002,3.7665,3.7095,3.5924,3.3305,3.1593,2.996,2.7716,2.7498,2.8175,2.9531,3.2152,3.5169,3.8638,4.0976,4.3594,4.7031,4.7891,4.8496,4.9414,4.9531,4.9355,4.8906,4.8867,4.8867,4.8867,4.8867,4.8867,4.8867,4.8867,4.8867,4.8867,4.8867,4.8437,4.7578,4.7578,4.6933,4.5664,4.5234,4.4453,4.3359,4.2715,4.207,4.1465,4.125,4.1172,4.1172,4.1172,4.0801,4.0195,3.998,3.9492,3.8828,3.8164,3.7793,3.7539,3.7109,3.7109,3.7266,3.7266,3.7871,3.8535,3.8301,3.8242,3.8281,3.8516,3.8418,3.8242,3.8242,3.7773,3.7246,3.7031,3.6641,3.6269,3.6074,3.6016,3.6219,3.6944,3.7079,3.7348,3.8037,3.8005,3.786,3.786,3.7653,3.7529,3.7529,3.7529,3.726,3.6556,3.6266,3.6121,3.6121,3.5687,3.5335,3.5107,3.4672,3.4277,3.3762,3.3099,3.2623,3.2339,3.1961,3.1609,3.1402,3.1609,3.1609,3.1381,3.1857,3.2188,3.7418,3.8045,3.847,3.7753,3.7036,3.5602,3.2193,3.0495,2.8725,2.5447,2.5382,2.6423,2.8094,3.0524,3.3348,3.6743,3.8867,4.1348,4.4902,4.5918,4.7031,4.9004,4.9336,4.9238,4.8887,4.8867,0.0,4.8867,4.8867,4.8867,4.8867,4.8867,4.8867,4.8867,4.8769,4.8359,4.7578,4.7402,4.6719,4.5527,4.5,4.416,4.3066,4.2539,4.1933,4.1308,4.1211,4.1172,4.1172,4.1172,4.0918,4.0488,4.0059,3.9609,3.9101,3.8242,3.7715,3.7363,3.6953,3.6855,3.6914,3.6738,3.7402,3.8262,3.8008,3.793,3.7988,3.834,3.8184,3.791,3.7812,3.748,3.709,3.6758,3.6348,3.6074,3.625,3.6152,3.6239,3.7064,3.7139,3.7348,3.8037,3.8253,3.8295,3.8191,3.8357,3.844,3.8336,3.8336,3.8046,3.7322,3.6825,3.6515,3.6411,3.5976,3.5625,3.5438,3.5004,3.4608,3.4152,3.3617,3.3161,3.2747,3.2318,3.2132,3.2132,3.2215,3.2106,3.1692,3.2499,3.2623,3.7225,3.8069,3.8748,3.7812,3.6861,3.5383,3.2427,3.032,2.83,2.593,2.552,2.6197,2.8337,2.9681,3.1937,3.6549,3.8125,4.0098,4.3965,4.5547,4.6797,4.8164,4.8672,4.8906,4.8867,4.8867,4.8867,4.8867,4.8867,4.8867,4.8867,4.8867,4.8867,4.8867,4.8476,4.8047,4.7578,4.6816,4.5976,4.5078,4.4219,4.3555,4.3047,4.2226,4.1816,4.1719,4.1348,4.1172,0.0,4.1172,4.0918,4.0488,4.0059,3.9609,3.9101,3.8242,3.791,3.7812,3.7383,3.748,3.7676,3.6914,3.7012,3.748,3.7812,3.793,3.793,3.7969,3.7949,3.7832,3.7461,3.7051,3.6719,3.668,3.6348,3.623,3.7012,3.6562,3.6337,3.7445,3.734,3.7348,3.8037,3.8523,3.8647,3.8253,3.8895,3.9199,3.8786,3.8724,3.8683,3.86,3.8253,3.7819,3.7405,3.6949,3.6328,3.548,3.5004,3.4608,3.4152,3.3617,3.3161,3.2747,3.2685,3.2607,3.2607,3.3058,3.3037,3.2566,3.3099,3.3078,3.6249,3.7678,3.8792,3.7812,3.6553,3.4827,3.212,2.9851,2.7744,2.5666,2.4743,2.4855,2.6516,2.8066,2.9924,3.2571,3.4652,3.7051,4.043,4.1543,4.3281,4.666,4.7207,4.7734,4.875,4.8867,4.8867,4.8867,4.8613,4.8476,4.8476,4.8711,4.873,4.8476,4.8301,4.7754,4.6816,4.6465,4.5605,4.4219,4.3867,4.3223,4.2305,4.1953,4.166,4.1406,4.125,0.0,0.0,4.1172,4.0918,4.0488,4.0059,3.9609,3.9141,3.8535,3.8144,3.791,3.7734,3.7461,3.7109,3.6777,3.6601,3.6601,3.7031,3.7344,3.7539,3.7539,3.7539,3.7461,3.7031,3.6601,3.6289,3.6289,3.6152,3.6113,3.6445,3.6387,3.6511,3.7232,3.7402,3.7651,3.8409,3.8662,3.8724,3.8605,3.8895,3.8993,3.8807,3.8605,3.8667,3.9137,3.8378,3.7591,3.7115,3.666,3.6121,3.5459,3.5252,3.4962,3.4567,3.436,3.3865,3.3141,3.312,3.312,3.312,3.3285,3.343,3.3534,3.343,3.3285,3.4814,3.6493,3.7881,3.7404,3.5948,3.4085,3.1973,2.9632,2.7348,2.5579,2.4423,2.4089,2.5298,2.6919,2.856,0.0,0.0,3.5039,3.7812,3.9004,4.0937,4.4551,4.5312,4.6113,4.7578,4.8183,4.8476,4.8476,4.8203,4.8027,4.8027,4.832,4.834,4.8027,4.7773,4.7148,4.6133,4.5723,4.4863,4.3516,4.3262,4.2676,4.1797,4.168,4.1445,4.1172,4.1172,4.1172,0.0,4.1035,4.0801,4.0469,3.9902,3.9492,3.9141,3.873,3.8379,3.8105,3.7969,3.7539,3.7012,3.6758,3.6465,3.625,3.6426,3.6777,3.7109,3.7109,3.7012,3.6855,3.6562,3.625,3.6016,3.6016,3.6016,3.6055,3.6191,3.6298,3.6578,3.7172,3.7361,3.7718,3.845,3.8703,3.8745,3.8667,3.8807,3.8993,3.8993,3.8667,3.873,3.9571,3.8523,3.757,3.7239,3.6784,3.6266,3.5666,3.55,3.5231,3.4837,3.4816,3.4443,3.3596,3.3575,3.3717,3.3782,3.3782,3.3948,3.4318,3.3986,3.372,3.2749,3.4268,3.5702,3.6192,3.4875,3.3148,3.2077,2.9793,2.7421,2.5857,2.4759,2.4357,2.5345,2.6641,2.8184,2.9934,3.2384,0.0,3.7012,3.916,4.084,4.1738,4.2969,4.4082,4.498,4.6601,4.7598,4.7598,4.7598,0.0,4.7578,4.7598,4.7598,4.7578,4.6758,4.6113,4.5683,4.4375,4.3516,4.3066,4.2226,4.1816,4.1797,4.1367,4.1172,4.1172,0.0,0.0,0.0,4.0703,4.0527,4.043,3.9551,3.9199,3.9141,3.873,3.8574,3.8496,3.8066,3.791,3.7773,3.6934,3.666,3.6582,3.6152,3.6328,3.668,3.668,3.6367,3.6035,3.6035,3.6016,3.6016,3.6016,3.6016,3.6133,3.6562,3.6328,3.6337,3.7505,3.738,3.7348,3.8058,3.8564,3.8621,3.8253,3.8957,3.9468,3.9468,3.9055,3.9117,4.0116,3.8999,3.8171,3.8171,3.7757,3.7094,3.6163,3.5666,3.5231,3.4837,3.4816,3.4608,3.4132,3.4051,3.4339,3.4816,3.4816,3.4816,3.4816,3.4816,3.4567,3.0395,3.1861,3.3251,3.3206,3.2566,3.1626,3.0173,2.8681,2.7232,2.5827,2.4935,2.451,2.4865,2.6551,2.8358,2.9491,3.1862,0.0,3.6152,3.7773,3.9609,4.1953,4.4668,4.6465,4.6738,4.6992,4.7266,4.7558,4.7305,4.7129,4.7129,4.6855,4.6699,4.6699,4.6445,4.5664,4.4336,4.3906,4.3203,4.2207,4.1933,4.166,4.1367,4.123,4.1172,0.0,0.0,0.0,0.0,4.0586,4.0176,3.959,3.9316,3.9023,3.873,3.8281,3.8125,3.8066,3.7637,3.7305,3.7031,3.6758,3.6465,3.6191,3.6055,3.6328,3.668,3.668,3.6348,3.6016,3.6016,3.6016,3.6016,3.6016,3.6016,3.6055,3.6191,3.6298,3.6511,3.7192,3.7382,3.7718,3.845,3.8683,3.8724,3.8667,3.8807,3.8889,3.8647,3.875,3.8786,3.8833,3.8709,3.8378,3.7757,3.7281,3.6618,3.5707,3.55,3.5355,3.5211,3.5211,3.5004,3.4608,3.4608,3.4671,3.4816,3.4816,3.4816,3.4816,3.4816,3.4567,2.8632,2.994,3.0991,3.1295,3.0908,0.0,2.9325,2.8052,2.6808,2.5754,2.5022,2.454,2.4408,2.6344,2.8169,2.9051,3.118,3.3359,3.5254,3.6641,3.8574,4.1601,4.4414,4.6191,4.6367,4.6562,4.6875,4.7305,4.6933,4.6621,4.6465,4.6211,4.584,4.5332,4.5312,4.4726,4.3476,4.3144,4.25,4.1562,4.1562,4.1426,4.1172,4.1172,4.1172,0.0,0.0,4.0918,0.0,4.0351,3.9863,3.918,3.9023,3.8809,3.8516,3.8086,3.793,3.7832,3.7266,3.6894,3.6641,3.6484,3.623,3.6016,3.6016,3.6211,3.6426,3.6426,3.623,3.6016,3.6016,3.6016,3.6016,3.6016,3.6016,3.6016,3.6016,3.6132,3.6471,3.7011,3.728,3.7651,3.8409,3.8585,3.8585,3.8585,3.8585,3.8564,3.846,3.8688,3.8745,3.8709,3.8792,3.8497,3.7819,3.7177,3.6639,3.6225,3.5873,3.5604,3.5438,3.5583,3.548,3.5024,3.5004,3.5004,3.5004,3.5004,3.5004,3.5004,3.5004,3.4859,0.0,2.8372,2.8854,3.0283,2.981,2.9042,2.9202,2.7803,0.0,2.5696,2.5037,2.4481,2.4203,2.5977,2.7809,2.8678,3.0396,3.2324,3.4414,3.5996,3.8027,4.0957,4.2812,4.4004,4.4394,4.5547,4.6426,4.6855,4.6465,4.6055,4.5703,4.5625,4.5019,4.3789,4.3672,4.3418,4.2988,4.2187,4.1582,4.1172,4.1172,4.1172,4.1172,4.1172,4.1172,0.0,4.1172,4.0918,0.0,4.0059,3.9609,3.9121,3.873,3.8555,3.8476,3.8047,3.7851,3.7715,3.6914,3.6621,3.6562,3.6152,3.6016,3.6016,3.6016,3.6016,3.6016,3.6016,3.6016,3.6016,3.6016,3.6016,3.6016,3.6016,3.6016,3.6016,3.6016,3.6016,3.6219,3.6944,3.7079,3.7348,3.8037,3.8191,3.8191,3.8191,3.8191,3.8336,3.8683,3.8765,3.8931,3.9323,3.9013,3.8688,3.8274,3.7384,3.7032,3.7425,3.6618,3.5914,3.55,3.5852,3.5852,3.5438,3.5418,3.5418,3.5418,3.5418,3.5418,3.5418,3.5418,3.5418,2.6633,0.0,2.6544,2.6926,2.7459,2.7798,0.0,2.7013,2.6383,2.5988,2.5198,2.4627,2.4803,2.6296,2.7832,2.8956,3.098,3.3008,3.4492,3.7539,4.0371,4.2383,4.416,4.5117,4.4902,4.5449,4.5996,4.6426,4.5742,4.543,4.5664,4.5058,4.4551,4.4238,4.3262,4.2519,4.2109,4.1894,4.1582,4.1172,4.1172,4.1172,4.1172,4.1172,4.1172,4.1172,4.1172,4.0742,4.0039,3.9941,3.9434,3.8711,3.8613,3.8379,3.8027,3.7598,3.7246,3.6894,3.6348,3.6172,3.6152,3.6055,3.6016,3.6016,3.6016,3.6016,3.6016,3.6016,3.6016,3.6016,3.6016,3.6016,3.6016,3.6016,3.6016,3.6016,3.6016,3.6016,3.6219,3.6944,3.7079,3.7348,3.8037,3.8191,3.8191,3.8191,3.8191,3.8212,3.8336,3.8647,3.8683,3.8523,3.8709,3.8745,3.8709,3.786,3.7218,3.697,3.6432,3.6059,3.5956,3.5707,3.5542,3.5418,3.5418,3.5418,3.5418,3.5418,3.5418,3.5418,3.5418,3.5418,2.5923,2.6112,2.6126,2.6638,2.7039,2.7203,2.7027,2.65,2.6003,2.5827,2.514,2.4671,2.5061,2.6551,2.8072,2.9028,3.1349,3.373,3.5625,3.8555,4.1094,4.2598,4.4141,4.5234,0.0,4.5469,4.5625,4.625,4.5508,4.5039,4.5098,4.4453,4.3906,4.3496,4.2617,4.2129,4.209,4.1699,4.1406,4.1172,4.1172,4.1172,4.1172,4.1172,4.1172,4.1172,4.1172,4.0684,3.9902,3.9902,3.9375,3.8555,3.8359,3.8125,3.7851,3.7226,3.6875,3.6601,3.6172,3.6016,3.6016,3.6016,3.6016,3.6016,3.6016,3.6016,3.6016,3.6016,3.6016,3.6016,3.6016,3.6016,3.6016,3.6016,3.6016,3.6016,3.6016,3.6172,3.6455,3.6984,3.724,3.7523,3.8079,3.8191,3.8191,3.8191,3.8191,3.8191,3.8191,3.8564,3.8688,3.8233,3.8585,3.8703,3.8564,3.8088,3.7798,3.7736,3.7508,3.7074,3.6453,3.639,3.608,3.5438,3.5418,3.5418,3.5418,3.5418,3.5418,3.5418,3.5418,3.5418,2.5636,2.6251,2.6801,2.7473,2.7319,2.6969,2.6866,2.6164,2.5535,2.5535,2.5022,2.4686,2.5052,2.6904,2.8545,2.9233,3.1949,3.4805,3.7344,3.9394,4.1074,4.2285,4.3594,0.0,4.5801,4.5312,4.5254,4.6055,4.5254,4.4609,4.4316,4.3789,4.3183,4.2441,4.2012,4.1973,4.2324,4.1562,4.1172,4.1172,4.1172,4.1172,4.1172,4.1172,4.1133,4.1074,0.0,0.0,3.9785,3.9726,3.9219,3.8437,3.8008,3.7793,3.7637,3.6934,3.6621,3.6523,3.6152,3.6016,3.6016,3.6016,3.6016,3.6016,3.6016,3.6016,3.6016,3.6016,3.6016,3.6016,3.6016,3.6016,3.6016,3.6016,3.6016,3.6016,3.6016,3.6309,3.6671,3.6957,3.7373,3.7806,3.8053,3.8233,3.8295,3.8295,3.8233,3.8212,3.8274,3.8564,3.8626,3.8316,3.8564,3.8626,3.8316,3.8295,3.8481,3.8848,3.8683,3.8046,3.6763,3.7011,3.6618,3.5438,3.5418,3.5418,3.5418,3.5418,3.5418,3.5418,3.5418,3.5418,2.6349,2.7276,2.774,2.6875,2.6837,2.6852,2.6296,2.5827,2.5535,2.5535,2.5022,2.4744,2.5344,2.7531,2.9399,3.0087,3.3589,3.6953,3.918,4.041,4.1406,4.2324,0.0,4.4316,4.4121,4.4336,4.4687,4.5176,4.4082,4.3496,4.3789,4.3047,4.2558,4.2422,4.2012,4.1836,4.1894,4.1426,4.1172,4.1172,4.1172,4.1172,4.1172,4.1172,4.0976,4.0625,0.0,4.0117,3.9277,3.8926,3.8476,3.7988,3.7559,3.7168,3.6855,3.6719,3.6445,3.6113,3.6035,3.6016,3.6016,3.6016,3.6016,3.6016,3.6016,3.6016,3.6016,3.6016,3.6016,3.6016,3.6016,3.6016,3.6016,3.6016,3.6016,3.6016,3.6016,3.6074,3.623,3.6539,3.7237,3.7738,3.7697,3.8279,3.8683,3.8683,3.8419,3.8316,3.8621,3.8481,3.8398,3.8641,3.846,3.8419,3.8662,3.8683,3.8869,3.9323,3.8336,3.726,3.6266,3.5914,3.5645,3.5418,3.5418,3.5418,3.5418,3.5418,3.5418,3.5418,3.5418,3.5418,2.6033,2.6616,2.7061,2.7153,2.7492,2.7554,2.6735,2.6149,2.5798,2.5798,2.5418,2.5344,2.6164,2.851,3.1421,3.4621,3.6971,3.8926,4.0371,4.1113,4.1738,0.0,0.0,4.3789,4.4043,4.4043,4.4199,4.4648,4.3691,4.3164,4.3359,4.2558,4.209,4.209,4.168,4.1465,4.1465,4.1269,4.1172,4.1172,4.1172,4.1055,4.082,4.082,4.0586,4.0195,0.0,3.9805,3.916,3.875,3.832,3.7851,3.7207,3.6973,3.6992,3.6758,3.6387,3.6016,3.6016,3.6016,3.6016,3.6016,3.6016,3.6016,3.6016,3.6016,3.6016,3.6016,3.6016,3.6016,3.6016,3.6016,3.6016,3.6016,3.6016,3.6016,3.6016,3.6387,3.671,3.6867,3.7589,3.8187,3.8364,3.8671,3.8849,3.8827,3.8667,3.8523,3.8502,3.8523,3.8523,3.8502,3.875,3.8792,3.8502,3.8709,3.9075,3.9847,3.9081,3.8191,3.726,3.6556,3.5935,3.5438,3.5418,3.5418,3.5418,3.5418,3.5418,3.5418,3.5418,3.5418,2.5643,2.6052,2.6503,2.7392,2.7803,2.7891,2.7525,2.6881,2.6427,2.6647,2.6442,2.6398,2.6998,2.964,3.3269,3.8078,3.9598,4.0527,4.1484,4.1894,4.2246,4.2676,4.3027,4.3496,4.416,4.3828,4.3711,4.4062,4.3281,4.2773,4.2773,4.207,4.166,4.166,4.1348,4.1172,4.1172,4.1172,4.1172,4.1172,4.1074,4.084,4.0527,4.041,4.0137,3.9726,3.9726,3.9473,3.9023,3.8594,3.8164,3.7695,3.6953,3.6797,3.6953,3.6641,3.6309,3.6016,3.6016,3.6016,3.6016,3.6016,3.6016,3.6016,3.6016,3.6016,3.6016,3.6016,3.6016,3.6016,3.6016,3.6016,3.6016,3.6016,3.6016,3.6016,3.6016,3.6621,3.7121,3.7085,3.7856,3.8596,3.8836,3.8995,3.9163,3.9158,3.891,3.8703,3.8543,3.8709,3.8641,3.8378,3.8957,3.9061,3.8253,3.8688,3.9247,3.9827,3.9454,3.8812,3.7902,3.7074,3.6266,3.5438,3.5418,3.5418,3.5418,3.5418,3.5418,3.5418,3.5418,3.5418,2.5716,2.6586,2.7276,2.6735,2.6617,2.7013,2.8432,2.8037,2.7627,2.8505,2.8447,2.8066,2.7539,3.0605,3.4228,3.7194,3.9586,4.1523,4.2773,0.0,4.3144,4.3555,4.3633,4.3691,4.375,4.3359,4.3144,4.3164,4.2383,4.1894,4.1894,4.1465,4.1211,4.1211,4.1191,4.1172,4.1172,4.1172,4.1172,4.1172,4.0762,4.0547,4.0508,4.0117,3.9687,3.9258,3.9258,3.9004,3.8594,3.8144,3.7715,3.7305,3.6855,3.6445,3.6113,3.6074,3.6055,3.6016,3.6016,3.6016,3.6016,3.6016,3.6016,3.6016,3.6016,3.6016,3.6016,3.6016,3.6016,3.6016,3.6016,3.6016,3.6016,3.6016,3.6016,3.6016,3.6016,3.6387,3.6699,3.6749,3.7716,3.8525,3.8467,3.9029,3.9646,4.0067,3.9323,3.8931,3.9323,3.9034,3.8765,3.8745,3.8786,3.8709,3.8233,3.8978,3.9261,3.8889,3.8523,3.786,3.6949,3.6432,3.5935,3.5438,3.5418,3.5418,3.5418,3.5418,3.5418,3.5418,3.5418,3.5418,2.4973,2.5739,2.6603,2.6764,2.6954,2.7378,2.8373,2.8637,2.8871,2.9647,2.9705,2.9804,3.05,3.3121,3.5939,3.8304,4.0807,4.2617,4.3359,4.3457,4.3535,4.3691,4.3476,4.332,4.332,4.293,4.2676,4.2676,4.2129,4.1797,4.1797,4.1406,4.1172,4.1172,4.1172,4.1172,4.1172,4.1172,4.1172,4.1172,4.0723,4.0391,4.0117,3.9668,3.9219,3.8809,3.8809,3.8574,3.8144,3.7715,3.7285,3.6894,3.6738,3.6406,3.6055,3.6328,3.625,3.6016,3.6016,3.6016,3.6016,3.6016,3.6016,3.6016,3.6016,3.6016,3.6016,3.6016,3.6211,3.6367,3.6094,3.6016,3.6094,3.6367,3.6426,3.6426,3.6426,3.6973,3.7363,3.7109,3.7896,3.8642,3.8843,3.9151,3.9424,3.9777,3.9227,3.8848,3.9013,3.9137,3.9096,3.8807,3.9034,3.9137,3.904,3.9013,3.8848,3.846,3.9081,3.904,3.8109,3.8171,3.7757,3.6722,3.6432,3.6142,3.5852,3.5562,3.5418,3.5418,3.5418,3.5418,2.4653,2.5244,2.6003,2.6544,2.7159,2.7847,2.8695,2.9222,2.9807,3.0759,3.0636,3.0595,3.1764,3.3928,3.6114,3.796,4.0825,4.3027,4.3437,4.3613,4.3652,4.3516,4.3262,4.3027,4.2891,4.248,4.2226,4.2226,4.1836,4.1601,4.1601,4.1328,4.1172,4.1172,4.1172,4.1172,4.1172,4.1172,4.1113,4.0957,4.0527,4.0176,3.9863,3.9141,3.8711,3.8555,3.8281,3.8086,3.7891,3.7461,3.7051,3.666,3.6523,3.6289,3.6055,3.6348,3.6269,3.6016,3.6016,3.6016,3.6016,3.6016,3.6016,3.6016,3.6016,3.6016,3.6016,3.6016,3.623,3.6406,3.6094,3.6113,3.6269,3.6426,3.6465,3.6504,3.6641,3.7226,3.7676,3.7519,3.8086,3.872,3.9103,3.9278,3.9374,3.9586,3.9384,3.9096,3.8827,3.9179,3.9302,3.8827,3.9199,3.9406,3.9261,3.9096,3.8874,3.8419,3.9268,3.9385,3.8667,3.8792,3.8523,3.7736,3.7115,3.6722,3.6556,3.608,3.579,3.5645,3.5645,3.5562,2.4884,2.5175,2.5622,2.5944,2.6998,2.83,2.9573,2.9866,3.0334,3.1944,3.1007,3.0086,3.07,3.2585,3.4433,3.5556,3.9467,4.2578,4.3008,4.3437,4.3535,4.3125,4.3066,4.2891,4.2461,4.2031,4.1797,4.1797,4.1406,4.1172,4.1172,4.1172,4.1172,4.1172,4.1172,4.1172,4.1172,4.1172,4.0957,4.0527,4.0098,3.9883,3.9844,3.8516,3.8164,3.8516,3.7656,3.7539,3.7871,3.7461,3.7031,3.6621,3.6191,3.6016,3.6016,3.6016,3.6016,3.6016,3.6016,3.6016,3.6016,3.6016,3.6016,3.6016,3.6016,3.6016,3.6016,3.6016,3.6016,3.6035,3.6035,3.6348,3.6562,3.6133,3.6035,3.6152,3.6582,3.7012,3.7422,3.7851,3.8281,3.872,3.9103,3.9445,3.9625,3.9627,3.9898,3.9868,3.891,3.9179,3.9282,3.8827,3.9199,3.9282,3.8827,3.9199,3.9261,3.8807,3.8786,3.8647,3.8212,3.7757,3.7736,3.8191,3.7281,3.7032,3.7508,3.7032,3.6556,3.6121,3.6121,3.5852,2.4161,2.507,2.6237,2.6339,2.7671,2.9178,3.0012,3.0284,3.0466,3.1402,3.1578,3.1417,3.092,3.3595,3.5897,3.6046,3.9894,4.2832,4.2637,4.2988,4.3105,4.2676,4.2363,4.2129,4.1992,4.1601,4.1367,4.1367,4.125,4.1172,4.1172,4.1172,4.1172,4.1172,4.1172,4.1172,4.1172,4.1172,4.0957,4.0527,4.0098,3.957,3.8945,3.8242,3.7832,3.7656,3.7402,3.7207,3.7012,3.6582,3.6328,3.6191,3.6074,3.6016,3.6016,3.6016,3.6016,3.6016,3.6016,3.6016,3.6016,3.6016,3.6016,3.6016,3.6016,3.6016,3.6016,3.6016,3.623,3.6484,3.6484,3.6797,3.709,3.6953,3.7148,3.7402,3.7519,3.7891,3.8144,3.7969,3.8281,3.8647,3.872,3.9042,3.9383,3.9636,3.9716,3.964,3.9302,3.9096,3.9055,3.9241,3.9385,3.9282,3.8827,3.891,3.8931,3.8786,3.8543,3.846,3.8647,3.8833,3.8999,3.9123,3.8233,3.7839,3.7984,3.7177,3.6556,3.6121,3.6121,3.5852,2.4622,2.5717,2.6954,2.7203,2.8534,2.9939,3.0583,3.1037,3.1534,3.231,3.2266,3.1988,3.1666,3.409,3.6161,3.6172,3.9721,4.248,4.2207,4.2539,4.2656,4.2226,4.1953,4.166,4.1328,4.1211,4.1094,4.0937,4.1074,4.1172,4.1172,4.1172,4.1172,4.1172,4.1172,4.1094,4.0918,4.0918,4.0605,4.0,3.9746,3.9082,3.8066,3.7793,3.7539,3.7285,3.7129,3.6797,3.6387,3.6133,3.6016,3.6016,3.6016,3.6016,3.6016,3.6016,3.6016,3.6016,3.6016,3.6016,3.6016,3.6016,3.6016,3.6016,3.6016,3.6016,3.6016,3.6016,3.6211,3.6445,3.6621,3.6992,3.7305,3.7305,3.75,3.7715,3.7891,3.8125,3.8242,3.7969,3.8281,3.8516,3.834,3.8891,3.9352,3.9453,3.9339,3.9261,3.9447,3.8978,3.8688,3.8978,3.9164,3.9075,3.8807,3.8786,3.8786,3.8786,3.8585,3.8481,3.8585,3.8854,3.9164,3.9468,3.8647,3.8274,3.844,3.7715,3.7115,3.666,3.666,3.6308,2.5659,2.6661,2.7569,2.833,2.9529,3.07,3.1344,3.2149,3.2997,3.3788,3.288,3.2076,3.2559,3.4346,3.5749,3.5943,3.9271,4.1836,4.1758,4.207,4.2148,4.1738,4.1641,4.1328,4.0547,4.082,4.0918,4.0547,4.0898,4.1133,4.1172,4.1172,4.1152,4.1113,4.1113,4.0898,4.0469,4.0469,4.0039,3.9199,3.9199,3.8535,3.7305,3.7305,3.7266,3.7168,3.6777,3.6387,3.6016,3.6016,3.6016,3.6016,3.6016,3.6016,3.6016,3.6016,3.6016,3.6016,3.6016,3.6016,3.6016,3.6016,3.6016,3.6016,3.6016,3.6016,3.6016,3.6016,3.6016,3.6133,3.6601,3.7012,3.7324,3.7402,3.7422,3.7519,3.791,3.7949,3.793,3.793,3.8242,3.8398,3.7988,3.891,3.9573,3.9333,3.9032,3.9055,3.9468,3.8812,3.8253,3.8253,3.8564,3.8724,3.8724,3.8724,3.8724,3.8724,3.8765,3.8667,3.8253,3.8253,3.8626,3.9385,3.8626,3.8398,3.8786,3.8398,3.7943,3.7488,3.7488,3.7032,2.5048,2.5952,2.7115,2.8769,3.0525,3.2032,3.2676,3.2793,3.2617,3.2046,3.2471,3.2661,3.1783,3.4442,3.6594,3.608,3.9493,4.207,4.1406,4.1387,4.1289,4.084,4.0508,4.0234,4.0059,4.0117,4.0273,4.0508,4.0605,4.082,4.1152,4.1172,4.1016,4.0664,4.0664,4.0449,4.0039,4.0039,3.9746,3.9199,3.9199,3.8535,3.7305,3.7305,3.6934,3.6289,3.6211,3.6113,3.6016,3.6016,3.6016,3.6016,3.6016,3.6016,3.6016,3.6016,3.6016,3.6016,3.6016,3.6016,3.6016,3.6016,3.6016,3.6016,3.6016,3.6016,3.6016,3.6016,3.6016,3.6191,3.6973,3.7226,3.7461,3.8144,3.8301,3.832,3.8418,3.8164,3.793,3.793,3.8008,3.8027,3.7949,3.891,3.989,4.0453,4.0191,3.9951,4.0075,3.9199,3.8709,3.8709,3.8481,3.8336,3.8336,3.8336,3.8336,3.8336,3.8647,3.8745,3.8641,3.8709,3.8724,3.8931,3.846,3.8398,3.8786,3.8398,3.7943,3.7488,3.7488,3.7198,2.5204,2.643,2.7891,2.9822,3.1183,3.2178,3.2676,3.2778,3.2588,3.1915,3.2193,3.2339,3.1666,3.3704,3.5361,3.48,3.8034,4.036,3.9734,4.0376,4.0703,4.0273,4.0019,3.9805,3.959,3.9766,3.9902,3.9883,4.0273,4.0527,4.0566,4.0762,4.0664,4.0234,4.0215,4.0,3.957,3.9375,3.9043,3.8594,3.8379,3.7832,3.6992,3.6777,3.6445,3.6016,3.6016,3.6016,3.6016,3.6016,3.6016,3.6016,3.6016,3.6016,3.6016,3.6016,3.6016,3.6016,3.6016,3.6016,3.6016,3.6016,3.6016,3.6016,3.6016,3.6016,3.6016,3.6016,3.6016,3.6172,3.6836,3.7148,3.7461,3.8105,3.8418,3.8574,3.8574,3.8398,3.8164,3.7969,3.8086,3.8164,3.7969,3.891,3.993,4.0525,4.0348,4.022,4.022,3.955,3.9034,3.8807,3.8647,3.8419,3.8212,3.8191,3.8191,3.8191,3.8812,3.9013,3.8786,3.9199,3.9241,3.8786,3.8419,3.8295,3.8523,3.8295,3.8067,3.7819,3.7819,3.757,2.5509,2.7159,2.8959,3.0846,3.152,3.1798,3.212,3.2368,3.2441,3.2163,3.1944,3.1783,3.1724,3.2854,3.368,3.3476,3.6264,3.8328,3.792,3.926,4.0176,3.9824,3.9707,3.9512,3.9121,3.9434,3.9531,3.9219,3.9883,4.0176,3.9902,4.0234,4.0176,3.9687,3.9746,3.9512,3.8984,3.8711,3.8359,3.791,3.7344,3.6894,3.6543,3.6016,3.5879,3.6016,3.5937,3.5957,3.6016,3.6016,3.6016,3.6016,3.6016,3.6016,3.6016,3.6016,3.6016,3.6016,3.6016,3.6016,3.6016,3.6016,3.6016,3.6016,3.6016,3.6016,3.6016,3.6016,3.6016,3.6133,3.6641,3.7031,3.7422,3.791,3.832,3.8574,3.8574,3.8516,3.8359,3.7988,3.8223,3.8379,3.8158,3.897,3.9858,4.0238,4.0288,4.0344,4.0344,3.9951,3.9406,3.8951,3.8827,3.8667,3.8212,3.8191,3.815,3.8067,3.8916,3.9179,3.8807,3.9592,3.9674,3.891,3.8523,3.8253,3.8191,3.8191,3.8191,3.8191,3.8191,3.7984,2.478,2.6969,2.9222,3.089,3.1344,3.1461,3.1783,3.1681,3.149,0.0,3.1637,3.171,3.1432,3.2502,3.3492,3.3444,3.596,3.7938,3.7883,3.8747,3.9355,3.9297,3.8984,3.873,3.8672,3.8711,3.8887,3.918,3.9316,3.9531,3.9883,3.9941,3.9609,3.8769,3.9101,3.8906,3.8105,3.8418,3.8359,3.791,3.6758,3.6152,3.6074,3.5254,3.5293,3.5996,3.5625,3.5684,3.6016,3.6016,3.6016,3.6016,3.6016,3.6016,3.6016,3.6016,3.6016,3.6016,3.6016,3.6016,3.6016,3.6016,3.6016,3.6016,3.6016,3.6016,3.6016,3.6016,3.6016,3.6211,3.7012,3.7266,3.75,3.8301,3.8535,3.8574,3.8574,3.8281,3.7988,3.793,3.7969,3.8177,3.8892,3.9405,3.9858,4.0238,4.0627,4.08,4.08,4.0406,3.9951,3.9426,3.9013,3.8667,3.8212,3.8191,3.8026,3.7612,3.844,3.8848,3.8786,3.9282,3.9509,3.9385,3.8931,3.8564,3.8191,3.8191,3.8191,3.8191,3.8191,3.815,2.5418,2.7086,2.871,0.0,3.0773,3.1081,3.1212,3.1139,3.1037,3.1037,3.1154,3.1212,3.1066,3.1488,3.1902,3.172,3.4432,3.6315,3.5874,3.7746,3.9121,3.8887,3.8691,3.8574,3.8574,3.8574,3.8652,3.8828,3.9062,3.918,3.916,3.916,3.8867,3.8223,3.8164,3.7949,3.7578,3.7539,3.7285,3.6855,3.6055,3.5664,3.5644,3.5,3.5059,3.5664,3.5469,3.5625,3.6016,3.6016,3.6016,3.6016,3.6016,3.6016,3.6016,3.6016,3.6016,3.6016,3.6016,3.6016,3.6016,3.6016,3.6016,3.6016,3.6016,3.6016,3.6016,3.6016,3.6016,3.6152,3.6797,3.7129,3.7461,3.8066,3.8398,3.8574,3.8574,3.8418,3.8281,3.8281,3.8281,3.8432,3.8773,3.9156,3.9518,3.993,4.031,4.0668,4.0882,4.0717,4.0323,3.955,3.9282,3.8957,3.8253,3.8191,3.8088,3.7902,3.8481,3.8889,3.9158,3.9612,3.986,3.986,3.9158,3.8626,3.8191,3.8191,3.8191,3.8191,3.8191,3.8191,2.5622,0.0,2.7598,2.9208,2.9968,3.0422,0.0,0.0,3.0729,0.0,3.0817,3.0803,3.0715,3.0773,3.0715,3.0407,3.3146,3.4991,3.4325,3.6978,3.8926,3.8613,3.8574,3.8574,3.8574,3.8574,3.8535,3.8418,3.8809,3.8809,3.8281,3.8359,3.8164,3.7617,3.7402,3.7246,3.7148,3.6816,3.6445,3.6016,3.5469,3.5156,3.5059,3.4687,3.4785,3.5234,3.5351,3.5625,3.6016,3.6016,3.6016,3.6016,3.6016,3.6016,3.6016,3.6016,3.6016,3.6016,3.6016,3.6016,3.6016,3.6016,3.6016,3.6016,3.6016,3.6016,3.6035,3.6152,3.6191,3.6309,3.6855,3.7226,3.7559,3.7988,3.834,3.8574,3.8574,3.8574,3.8574,3.8574,3.8574,3.8574,3.8574,3.8958,3.9321,3.9642,4.0022,4.0453,4.0882,4.0779,4.0406,3.962,3.9364,3.904,3.8253,3.8191,3.8191,3.8191,3.8502,3.8869,3.9447,3.9868,4.0116,4.022,3.9488,3.8916,3.8357,3.8233,3.8191,3.8191,3.8191,3.8191,0.0,2.5237,0.0,2.8315,2.8973,2.931,0.0,0.0,3.0466,3.0759,3.0817,3.0729,3.0437,3.0627,3.0715,3.0407,3.2858,3.4606,3.4214,3.6738,3.8594,3.8574,3.8574,3.8574,3.8574,3.8574,3.8398,3.7988,3.8359,3.8242,3.7402,3.7734,3.7578,3.6758,3.7109,3.7109,3.6699,3.668,3.6445,3.6016,3.5156,3.4531,3.4141,3.4121,3.4336,3.4766,3.5195,3.5625,3.6016,3.6016,3.6016,3.6016,3.6016,3.6016,3.6016,3.6016,3.6016,3.6016,3.6016,3.6016,3.6016,3.6016,3.6016,3.6016,3.6016,3.6016,3.6113,3.6523,3.6641,3.6816,3.7637,3.7871,3.8008,3.8437,3.8555,3.8574,3.8574,3.8574,3.8574,3.8574,3.8574,3.8574,3.8574,3.8958,3.9321,3.9642,4.0022,4.0453,4.0882,4.0489,4.0054,3.953,3.9075,3.8688,3.8233,3.8191,3.8191,3.8191,3.8212,3.8605,3.9426,3.9488,3.9785,4.022,4.0179,3.9654,3.8745,3.8398,3.8191,3.8191,3.8191,3.8191,0.0,0.0,0.0,2.6149,2.7364,2.83,2.8359,2.9076,2.969,2.9603,2.991,3.0173,3.0137,3.0466,3.0583,2.9851,3.2538,3.4504,3.3966,3.6627,3.8574,3.8574,3.8574,3.8457,3.8184,3.8418,3.8281,3.7578,3.791,3.791,3.7324,3.7187,3.6992,3.668,3.6543,3.6269,3.5859,3.5566,3.5332,3.5156,3.457,3.4355,3.4473,3.4199,3.4297,3.4707,3.4883,3.5351,3.6016,3.6016,3.5859,3.5644,3.5918,3.5859,3.5644,3.5918,3.6016,3.6016,3.6016,3.6016,3.6016,3.6016,3.6016,3.6016,3.6016,3.6211,3.6465,3.6621,3.6875,3.7207,3.7773,3.793,3.8027,3.8476,3.8574,3.8574,3.8574,3.8574,3.8574,3.8574,3.8574,3.8574,3.8574,3.872,3.9011,3.9642,3.9786,4.0146,4.0811,4.0489,4.0034,3.953,3.9055,3.8667,3.8212,3.8191,3.8191,3.8191,3.8191,3.846,3.8993,3.9323,3.9695,4.022,4.022,3.993,3.922,3.9123,3.8895,3.8605,3.8605,3.846,2.312,2.3515,0.0,0.0,0.0,2.6793,2.7349,0.0,2.8798,2.9003,2.9486,2.9895,3.0093,3.0378,3.0422,2.9661,3.2079,3.4015,3.389,3.6198,3.8124,3.8521,3.8574,3.8398,3.7969,3.8184,3.8008,3.7148,3.748,0.0,3.6894,3.6738,3.6601,3.6465,3.6035,3.5684,3.5391,3.4922,3.4629,3.4492,3.4355,3.4277,3.4277,3.4277,3.4355,3.4492,3.4629,3.5117,3.5801,3.5644,3.5586,3.5605,3.5762,3.5723,3.5644,3.5918,3.6016,3.6016,3.6016,3.6016,3.6016,3.6016,3.6016,3.6055,3.6191,3.6445,3.6738,3.7012,3.7285,3.7578,3.7851,3.793,3.8027,3.8476,3.8574,3.8574,3.8574,3.8574,3.8574,3.8574,3.8574,3.8574,3.8574,3.872,3.9011,3.9642,3.9786,4.0105,4.0604,4.0282,3.9827,3.9282,3.8895,3.8502,3.8212,3.8191,3.8191,3.8191,3.8191,3.846,3.8993,3.9302,3.9827,4.0427,4.0448,4.0303,3.9992,3.9682,3.9323,3.9013,3.8848,3.8605,0.0,0.0,0.0,0.0,0.0,0.0,2.7627,0.0,2.7759,2.9032,2.9559,2.9895,3.0343,3.0416,3.0328,3.0005,3.1557,3.3113,3.4111,3.5615,3.7072,3.8467,3.8574,3.8398,3.7969,3.793,3.7578,3.6738,3.7051,3.6914,3.6074,3.6426,3.6445,3.6016,3.5586,3.5371,3.5351,3.4902,3.4453,3.4062,3.4473,3.4238,3.3476,3.4277,3.4453,3.4101,3.4492,3.4922,3.5293,3.4883,3.5195,3.5918,3.5547,3.5625,3.5976,3.6016,3.6016,3.6016,3.6016,3.6016,3.6016,3.6016,3.6016,3.6094,3.6543,3.668,3.6855,3.7676,3.793,3.7949,3.7949,3.7949,3.8047,3.8476,3.8574,3.8574,3.8574,3.8574,3.8574,3.8574,3.8574,3.8574,3.8574,3.8958,3.9321,3.9642,4.0002,4.0289,4.0212,3.9736,3.9282,3.8827,3.846,3.8191,3.8191,3.8191,3.8191,3.8191,3.8191,3.8585,3.9406,3.9468,3.9951,4.082,4.0862,4.0882,4.0882,4.0013,3.9488,3.9468,3.8993,3.8585,2.2345,0.0,0.0,0.0,0.0,0.0,0.0,0.0,0.0,2.7027,2.7744,2.8447,2.9456,3.0027,3.0401,3.0313,3.171,3.3113,3.4111,3.5615,3.7072,3.8467,3.8574,3.8398,3.7969,3.793,3.7578,0.0,3.6777,3.6601,3.6055,3.6133,3.6016,3.5586,3.5137,3.4746,3.4434,3.4004,3.3711,3.3594,3.3711,3.3809,3.3887,3.3809,3.3887,3.4062,3.3867,3.3848,3.4004,3.4492,3.4668,3.4668,3.5195,3.5254,3.5137,3.5781,3.6016,3.6016,3.6016,3.6016,3.6016,3.6016,3.6016,3.6094,3.6543,3.6875,3.7168,3.7402,3.791,3.8398,3.8398,3.8398,3.8418,3.8555,3.8574,3.8574,3.8574,3.8574,3.8574,3.8574,3.8574,3.8574,3.8574,3.8958,3.9321,3.9642,3.9739,3.985,4.017,3.9468,3.8931,3.8786,3.846,3.8191,3.8191,3.8191,3.8191,3.8191,3.8481,3.8626,3.8564,3.9516,3.9992,3.9909,4.0551,4.0882,4.0882,4.0634,4.0179,3.9447,3.873,3.8295,2.2418,2.2184,2.1979,2.1993,0.0,0.0,2.2915,2.3515,2.4335,0.0,2.631,2.7013,2.8169,2.8695,2.9076,2.9486,3.043,3.1731,3.3175,3.4111,3.5374,3.7574,3.7699,3.7728,3.815,3.7871,3.7383,3.6719,3.6504,3.6289,3.6035,3.5859,3.5644,3.541,3.4766,3.4316,3.4082,3.3633,3.3418,3.3418,3.3613,3.373,3.3809,3.373,3.373,3.3769,3.334,3.3164,3.3203,3.3691,3.3965,3.4141,3.4824,3.5059,3.5078,3.5762,3.6016,3.6016,3.6016,3.6016,3.6016,3.6016,3.6016,3.6094,3.6543,3.6836,3.707,3.7246,3.7656,3.8125,3.8476,3.8437,3.8359,3.8535,3.8574,3.8574,3.8574,3.8574,3.8574,3.8574,3.8574,3.8647,3.8793,3.9156,3.9518,3.9878,3.9851,3.9857,3.9902,3.9241,3.8703,3.8585,3.8336,3.8191,3.8191,3.8191,3.8191,3.8191,3.8419,3.8543,3.846,3.9413,3.9909,3.9757,4.051,4.0882,4.0882,4.0882,4.0427,3.9468,3.8999,3.8543,2.2623,2.2213,2.1979,2.2754,2.2154,0.0,2.3076,2.3193,2.3369,2.4709,2.5125,2.5622,2.6647,2.6881,2.7203,2.8037,2.8549,2.961,3.1921,3.2015,3.3055,3.6373,3.6439,3.6905,3.8487,3.7832,3.7148,3.6758,3.6289,3.6016,3.6016,3.5625,3.5371,3.5312,3.4512,3.4023,3.3926,3.3555,3.3359,3.3359,3.375,3.375,3.3437,3.3867,3.3828,3.3398,3.3027,3.2812,3.2734,3.2773,3.3242,3.3984,3.4492,3.4961,3.5371,3.5898,3.6055,3.6035,3.6074,3.6055,3.6016,3.6016,3.6016,3.6094,3.6543,3.668,3.6758,3.7226,3.7324,3.75,3.8359,3.8281,3.8086,3.8418,3.8496,3.8496,3.8437,3.8437,3.8457,3.8496,3.8535,3.872,3.9103,3.9478,3.9798,4.0157,4.0103,3.986,3.9447,3.8993,3.8626,3.8233,3.8191,3.8191,3.8191,3.8191,3.8191,3.8191,3.8233,3.8419,3.8683,3.9241,3.9785,4.0158,4.0634,4.0882,4.0882,4.082,4.0386,3.955,3.9488,3.9081,2.2623,2.2535,2.2359,2.2052,2.2154,0.0,2.2111,2.2228,2.2652,0.0,2.3925,2.4349,2.5593,2.6237,2.6574,2.65,2.7642,2.9282,3.1559,3.2079,3.3335,3.641,3.6602,3.7166,3.8934,3.7988,3.7266,3.7187,3.6465,3.6016,3.6016,3.5625,3.5215,3.4844,3.4336,3.375,3.3047,3.2969,3.291,3.293,3.3008,3.3184,3.3437,3.3867,3.3828,3.3418,3.334,3.291,3.2324,3.2656,3.2891,3.3144,3.4258,3.4766,3.498,3.6133,3.6328,3.6074,3.6426,3.6309,3.6016,3.6016,3.6016,3.6094,3.6543,3.668,3.6836,3.7598,3.7559,3.75,3.8359,3.8516,3.8379,3.8105,3.8047,3.7949,3.7617,3.7539,3.7637,3.7988,3.834,3.872,3.9103,3.9238,3.9333,3.9688,3.9363,3.9013,3.8931,3.8585,3.8274,3.8191,3.8191,3.8191,3.8191,3.8191,3.8191,3.8191,3.8523,3.8585,3.8316,3.9454,3.9951,3.9612,4.0468,4.0882,4.0882,4.053,4.0261,4.0075,3.9654,3.9179,2.3042,2.323,2.343,2.2614,2.2286,0.0,0.0,2.1818,2.1876,2.252,2.252,2.2652,2.3471,0.0,2.4452,2.4759,2.5769,2.7067,2.8681,2.9885,3.1983,3.5667,3.5432,3.6178,3.9249,3.8184,3.7109,3.6699,3.6269,3.6016,3.6016,3.541,3.4941,3.4707,3.4082,3.3437,3.2793,3.2793,3.2695,3.248,3.2695,3.3008,3.3437,3.3652,3.3633,3.3398,3.2988,3.2559,3.2248,3.2402,3.2598,3.293,3.4199,3.4707,3.4863,3.6191,3.6387,3.6094,3.6523,3.6387,3.6016,3.6016,3.6016,3.6055,3.6289,3.6348,3.6523,3.7383,3.7461,3.7441,3.8086,3.8418,3.8457,3.8027,3.8086,3.8125,3.7695,3.7617,3.7617,3.7617,3.7793,3.823,3.9024,3.8942,3.8999,3.9495,3.9204,3.8897,3.8807,3.846,3.8191,3.8191,3.8191,3.8191,3.8191,3.8191,3.8191,3.8191,3.8398,3.8419,3.8191,3.9061,3.9571,3.9798,4.053,4.0882,4.0882,4.0655,4.0448,4.022,3.9992,3.964,2.4347,2.4687,2.5064,2.4116,2.3354,2.2765,0.0,0.0,0.0,0.0,0.0,0.0,0.0,0.0,0.0,0.0,0.0,0.0,0.0,2.7174,0.0,3.3825,3.3471,3.4495,3.8684,3.7942,3.6855,3.6074,3.5937,3.5937,3.6016,3.5176,3.4707,3.4707,3.3867,3.3184,3.2676,3.2676,3.2461,3.2051,3.248,3.2851,3.3184,3.334,3.334,3.3144,3.2461,3.2129,3.2051,3.2129,3.2363,3.2793,3.4082,3.4629,3.4844,3.6094,3.6328,3.6094,3.6523,3.6387,3.6016,3.6016,3.6016,3.6016,3.6016,3.6074,3.6309,3.707,3.7305,3.7402,3.7812,3.8184,3.832,3.7812,3.8008,3.8184,3.7676,3.7559,3.748,3.7226,3.7109,3.7504,3.8806,3.862,3.8516,3.9353,3.9065,3.8733,3.8703,3.8398,3.8191,3.8191,3.8191,3.8191,3.8191,3.8191,3.8191,3.8191,3.8191,3.8212,3.8316,3.8916,3.962,4.0468,4.0841,4.1007,4.1007,4.0924,4.0696,4.0344,4.0261,4.0034,2.7475,2.7792,2.773,2.6932,2.6793,2.6227,2.3933,0.0,2.3169,2.1595,0.0,0.0,0.0,0.0,0.0,0.0,0.0,0.0,2.5066,0.0,0.0,2.9921,3.0801,3.2491,3.596,3.6559,3.6543,3.6055,3.5664,3.5625,3.5996,3.5176,3.4707,3.4707,3.3867,3.3047,3.2307,3.2307,3.2012,3.1601,3.2031,3.2266,3.2344,3.3086,3.3008,3.2305,3.2268,3.1953,3.1621,3.2012,3.2268,3.2363,3.3652,3.4375,3.4805,3.5742,3.6055,3.6094,3.6523,3.6387,3.6016,3.6016,3.6016,3.6016,3.6016,3.6289,3.6699,3.7168,3.7305,3.7402,3.7812,3.7969,3.7793,3.7012,3.7129,3.7226,3.6406,3.623,3.6328,3.668,3.6426,3.67,3.8311,3.7907,3.7768,3.8865,3.833,3.7893,3.8187,3.8212,3.8191,3.8191,3.8191,3.8191,3.8191,3.8191,3.8191,3.8191,3.8191,3.8357,3.8683,3.9972,4.0882,4.14,4.1462,4.1483,4.1483,4.1069,4.0841,4.08,4.0406,4.0199,0.0,2.9045,2.9226,2.8327,2.7727,2.7012,2.5846,2.5152,2.4548,0.0,0.0,0.0,0.0,0.0,0.0,0.0,2.2228,0.0,0.0,0.0,0.0,0.0,0.0,0.0,3.4448,3.4572,3.4453,3.4512,3.4121,3.4062,3.4492,3.4394,3.4336,3.4336,3.3496,3.2891,3.2539,3.2031,3.1816,3.1894,3.1816,3.2051,3.2539,3.2656,3.2637,3.2519,3.2285,3.2207,3.2266,3.2461,3.2832,3.332,3.3867,3.4336,3.4863,3.625,3.6601,3.6465,3.6894,3.6758,3.6348,3.6094,3.6016,3.6016,3.6016,3.6152,3.6426,3.7109,3.7129,3.7031,3.7461,3.7734,3.7715,3.6875,3.7363,3.7812,3.6953,3.6953,3.7109,3.7051,3.6894,3.7003,3.7693,3.749,3.741,3.8122,3.8112,3.8057,3.8145,3.8191,3.8191,3.8191,3.8191,3.8191,3.8191,3.8191,3.8295,3.8543,3.8812,3.9185,3.9571,4.0427,4.1089,4.1565,4.1908,4.2053,4.2053,4.1503,4.1276,4.1255,4.082,4.0613,2.9996,0.0,0.0,0.0,0.0,0.0,0.0,0.0,0.0,0.0,0.0,0.0,0.0,0.0,0.0,0.0,0.0,2.223,0.0,0.0,0.0,0.0,0.0,0.0,0.0,3.3073,3.3008,3.3066,3.2676,3.2637,3.3066,3.3379,3.3652,3.3887,3.3184,3.2734,3.2617,3.1894,3.168,3.1992,3.168,3.1836,3.2441,3.2129,3.2148,3.2422,3.2129,3.2305,3.2812,3.293,3.3398,3.4101,3.4336,3.4629,3.5039,3.6309,3.6738,3.6699,3.6875,3.6758,3.6445,3.6113,3.6016,3.6016,3.6016,3.6094,3.6348,3.709,3.707,3.6934,3.7363,3.7695,3.7715,3.6875,3.7559,3.8164,3.7305,3.7461,3.7656,3.7363,3.7305,3.7266,3.7289,3.7153,3.7213,3.7654,3.7847,3.8004,3.8166,3.8191,3.8233,3.8357,3.8253,3.8295,3.8543,3.844,3.8564,3.8931,3.9406,3.9798,4.022,4.0882,4.14,4.1825,4.2207,4.2435,4.2435,4.1855,4.1565,4.1545,4.0965,4.0758,0.0,0.0,0.0,3.2961,0.0,0.0,0.0,0.0,2.7407,0.0,0.0,0.0,0.0,0.0,0.0,2.4615,0.0,0.0,0.0,0.0,0.0,0.0,0.0,0.0,0.0,3.239,3.3066,3.2266,3.1816,3.1758,3.2187,3.2226,3.2598,3.3418,3.3027,3.2598,3.2187,3.1738,3.1523,3.1543,3.1523,3.1523,3.1562,3.1543,3.1543,3.1562,3.1543,3.2012,3.2832,3.3242,3.3672,3.416,3.5019,3.5351,3.5371,3.543,3.5976,3.6621,3.6211,3.6055,3.6035,3.6016,3.6016,3.6016,3.6016,3.6309,3.6738,3.7168,3.7285,3.7363,3.7793,3.791,3.7715,3.6875,3.7324,3.7715,3.6875,3.7012,3.7324,3.7305,3.7305,3.7308,3.7243,3.6956,3.6937,3.7585,3.738,3.7368,3.8125,3.8191,3.8357,3.8724,3.844,3.8543,3.9413,3.9013,3.8951,3.9426,3.9951,4.015,4.022,4.1503,4.2302,4.2302,4.2663,4.289,4.289,4.2,4.1565,4.1545,4.0655,4.0468,0.0,0.0,3.2109,3.2832,0.0,0.0,0.0,0.0,0.0,0.0,0.0,0.0,0.0,0.0,0.0,0.0,0.0,0.0,0.0,0.0,0.0,0.0,0.0,0.0,0.0,0.0,0.0,2.9648,2.9473,2.9687,3.041,3.1269,3.1992,3.2578,3.2168,3.2012,3.2229,3.1465,3.1387,3.1953,3.1367,3.125,3.1523,3.1523,3.168,3.1973,3.2539,3.3105,3.3672,3.4101,3.4531,3.498,3.5273,3.5742,3.625,3.625,3.6426,3.6641,3.6504,3.6269,3.6016,3.6016,3.6016,3.6016,3.6016,3.6328,3.6758,3.7187,3.7305,3.7402,3.7812,3.7715,3.7441,3.7148,3.7519,3.7851,3.7559,3.7851,3.8144,3.8144,3.791,3.7649,3.7569,3.7509,3.7619,3.8077,3.8167,3.8459,3.8972,3.9081,3.9144,3.922,3.9164,3.9206,3.9447,3.9612,3.9757,3.9992,4.0406,4.08,4.111,4.1855,4.2393,4.2683,4.3139,4.3221,4.2911,4.2311,4.1876,4.1545,4.0944,4.0737,3.1504,3.1484,0.0,3.2344,3.1367,0.0,3.1172,0.0,3.0644,0.0,0.0,0.0,0.0,0.0,0.0,0.0,0.0,0.0,0.0,1.9594,0.0,0.0,0.0,0.0,0.0,0.0,2.8613,2.7891,2.7695,2.8047,0.0,3.0059,3.1074,3.219,3.1738,3.1719,3.2229,3.1328,3.125,3.1934,3.123,3.1191,3.1738,3.1582,3.1836,3.2422,3.2969,3.3613,3.4316,3.459,3.5059,3.5605,3.5605,3.5957,3.6445,3.6445,3.6445,3.6445,3.6445,3.625,3.6016,3.6016,3.6016,3.6055,3.6211,3.6445,3.6797,3.7363,3.7519,3.7617,3.8047,3.7832,3.7519,3.7519,3.7734,3.793,3.8073,3.8498,3.8793,3.8793,3.8629,3.8509,3.8306,3.8367,3.8447,3.8323,3.8637,3.9,3.9426,3.9468,3.953,3.9695,3.9571,3.953,3.9695,4.0199,4.0468,4.0468,4.0717,4.1007,4.1317,4.1917,4.2538,4.3159,4.347,4.3553,4.3408,4.2642,4.2094,4.1545,4.1089,4.0882]}]]